GFSNW_850_thetae_000.txt.gz
Theta_e
308 310 310 308 308 311 313 320 323 320 324 325 325 324 324 322 322 322 322 324 325 325 326 326 325 326 324 322 324 326 323 326 325 324 318 318 318 319 318 320 322 319 316 317
312 309 310 308 308 309 317 319 319 321 323 324 323 321 320 321 322 322 323 324 324 324 325 327 326 324 322 322 322 323 323 326 327 325 322 320 323 322 319 319 320 323 319 318
317 314 309 309 308 309 314 317 323 322 319 319 321 322 322 321 319 321 322 322 323 324 325 324 326 323 321 321 320 319 321 323 323 323 321 321 323 322 322 321 320 321 320 319
317 318 313 309 308 309 314 315 316 316 322 318 318 319 320 320 322 321 321 322 322 323 324 324 323 321 320 319 318 320 321 322 320 320 319 318 318 319 318 320 320 320 319 319
317 318 317 310 309 310 314 316 316 316 316 316 316 317 319 318 317 318 321 322 321 321 321 322 324 322 322 321 318 320 317 319 318 317 315 314 314 314 314 316 317 318 318 318
316 317 318 318 308 310 313 313 314 316 314 316 316 317 316 317 316 315 317 319 321 320 315 313 313 316 319 319 319 318 317 316 315 315 315 315 316 316 315 315 315 315 316 316
315 316 317 319 311 309 311 312 315 317 316 315 316 316 316 316 314 315 314 314 316 313 310 311 311 311 312 313 314 315 316 316 315 315 316 317 317 317 316 317 317 315 316 316
315 316 317 317 319 313 311 312 315 315 315 315 314 314 314 313 312 311 312 309 309 309 310 313 315 313 315 313 313 313 311 314 315 317 318 318 318 318 318 318 317 316 316 315
315 315 316 317 318 319 316 316 317 318 318 315 313 312 313 313 312 309 307 306 308 309 312 315 322 325 320 316 315 314 314 311 314 311 317 321 320 315 315 315 316 317 316 316
314 316 316 317 317 318 318 318 319 319 319 313 315 317 315 312 312 310 307 307 308 309 311 315 317 319 311 319 319 317 315 314 314 315 316 318 317 314 315 318 318 318 317 317
313 314 315 318 318 317 317 318 318 318 318 317 314 316 315 312 312 315 309 310 309 310 313 317 314 314 313 313 316 317 317 316 316 316 318 316 318 316 317 316 317 317 317 316
312 313 314 315 318 319 318 317 318 318 317 318 317 317 315 313 314 315 309 313 312 314 314 312 310 311 309 312 317 314 313 315 317 317 317 317 318 316 315 313 314 314 313 313
310 311 312 313 315 316 317 317 317 317 316 316 316 316 317 317 314 314 313 311 312 312 314 312 312 314 310 315 314 313 314 315 314 314 315 314 315 315 312 311 311 310 310 310
308 309 309 311 312 314 315 314 315 315 314 313 316 314 313 314 315 315 313 313 312 312 311 313 312 314 313 315 314 314 314 313 314 314 314 314 315 313 311 310 310 309 308 307
306 307 308 309 309 312 313 312 312 313 314 313 314 313 313 313 313 314 314 312 312 310 310 311 311 311 311 311 310 313 313 312 313 314 312 312 312 312 312 311 309 307 306 305
307 305 306 308 308 310 311 311 311 311 311 312 312 313 311 312 312 312 313 312 312 311 310 310 310 309 310 312 313 311 313 313 313 311 311 311 311 310 310 309 309 307 306 303
306 304 305 306 307 309 310 311 310 310 311 311 309 313 309 308 310 310 311 312 311 311 309 309 309 309 310 311 312 311 311 310 310 310 310 310 310 310 310 309 307 306 305 302
305 304 305 306 306 308 309 309 310 310 310 310 308 309 308 307 308 309 309 309 309 309 309 309 309 309 309 310 310 310 309 310 310 309 308 308 308 307 307 305 304 303 301 300
304 305 305 306 306 306 307 308 308 310 310 309 306 308 310 307 307 307 307 308 308 308 308 309 308 309 309 308 308 309 309 309 309 309 308 307 306 306 305 302 301 299 298 296
305 305 305 305 306 306 305 305 306 308 309 308 306 307 309 308 308 307 307 305 306 306 306 306 306 307 307 307 308 307 308 308 307 304 303 303 301 301 299 300 298 297 292 290
304 304 303 303 304 304 304 303 305 305 304 305 304 305 306 305 307 307 306 304 304 305 306 305 305 304 304 306 306 306 305 303 301 301 301 301 301 301 301 299 296 295 289 287
304 302 302 303 303 302 302 303 301 302 305 304 303 303 304 303 305 305 303 305 303 305 301 302 303 301 304 305 303 302 302 301 299 299 300 301 300 300 300 297 294 287 287 287
303 303 302 301 300 302 301 302 303 304 301 300 300 301 302 303 304 303 303 305 304 300 301 302 300 303 303 302 300 298 298 298 298 299 300 300 300 298 294 289 287 287 287 287
302 301 300 299 299 299 301 303 302 300 300 299 300 300 301 300 302 302 303 303 300 302 302 300 298 303 302 300 297 296 297 297 298 298 298 297 295 290 287 287 287 287 287 287
301 301 300 300 301 300 299 299 299 298 299 300 299 298 300 299 301 300 302 302 301 301 300 299 301 299 298 297 296 296 296 297 297 296 295 293 288 287 287 287 287 287 287 286
301 299 301 298 299 298 296 297 299 298 299 299 300 298 299 300 300 302 301 302 300 299 296 301 301 300 298 296 295 295 296 296 296 295 294 291 288 287 287 287 287 287 287 286
299 299 299 299 300 301 298 298 300 298 298 297 299 300 298 295 300 301 298 298 299 303 301 300 299 298 296 296 296 296 295 295 295 295 293 291 288 287 287 287 287 287 286 285

GFSNW_850_thetae_003.txt.gz
Theta_e
317 310 310 308 308 311 316 320 315 321 324 319 318 321 323 322 322 322 323 324 325 324 325 324 324 325 324 322 324 325 323 320 322 323 317 317 317 318 316 317 321 316 314 317
318 315 313 310 308 310 316 319 320 319 323 319 318 319 320 320 322 322 323 324 324 323 324 326 324 322 321 322 321 323 322 322 324 322 320 318 321 321 318 317 316 320 318 317
317 319 317 310 308 310 316 318 316 318 320 320 317 319 321 321 321 320 321 322 322 323 323 323 323 321 321 320 319 319 319 320 320 321 319 318 322 321 321 318 318 317 318 319
317 318 319 312 308 312 315 315 313 316 315 314 314 316 318 320 322 321 321 321 322 323 324 322 321 320 320 318 318 318 318 318 317 317 317 316 317 317 317 319 318 319 317 317
315 317 319 318 309 311 314 316 313 315 314 315 313 314 316 317 316 318 322 321 319 317 318 320 322 320 320 320 318 318 314 317 315 314 314 313 313 312 312 314 315 316 316 317
314 316 318 319 308 311 312 314 314 314 313 312 313 314 315 316 314 315 315 317 317 316 312 311 312 316 316 317 317 316 315 312 312 313 313 314 317 315 313 313 313 313 314 314
314 315 317 318 311 310 312 314 316 314 312 311 313 314 313 312 312 314 311 313 313 312 310 311 312 312 311 311 309 312 314 313 312 313 314 317 316 314 315 314 315 313 313 313
313 315 316 318 318 311 310 313 315 315 311 311 312 313 310 311 310 309 309 309 310 310 311 311 312 311 314 312 311 312 309 311 312 314 315 315 317 314 316 317 316 314 315 314
314 315 315 317 318 318 315 316 316 317 311 312 313 310 311 308 307 307 306 307 309 310 310 313 319 319 317 315 315 312 311 308 311 305 312 318 316 314 315 313 315 316 316 316
313 314 315 315 317 319 319 319 320 320 317 313 313 312 311 312 310 306 307 308 309 311 312 315 312 317 312 316 315 315 312 311 312 312 313 313 313 314 315 317 314 316 317 317
312 314 315 316 317 318 319 319 319 320 319 314 314 315 313 313 313 310 309 312 310 309 313 313 312 313 312 313 313 314 314 311 313 312 313 314 314 315 317 312 313 312 312 313
310 312 314 314 318 318 319 318 319 319 319 318 316 315 315 314 316 316 309 313 310 311 310 310 308 311 307 309 314 311 313 312 315 313 312 313 313 313 311 312 311 310 310 310
307 310 313 314 316 318 319 318 319 318 317 317 317 317 317 316 315 316 313 313 313 313 314 312 311 314 307 312 311 313 312 313 312 313 313 313 313 310 311 311 311 311 310 309
306 308 310 312 313 315 317 317 317 317 316 314 315 314 314 315 315 313 315 315 314 314 313 313 311 315 312 313 311 310 311 312 311 311 311 312 312 312 311 311 311 310 309 308
306 306 308 310 311 313 314 314 314 315 315 313 314 313 313 312 313 315 313 313 313 312 310 308 309 312 312 311 308 307 311 310 310 310 311 310 310 311 310 310 310 310 309 308
307 306 307 307 309 311 311 312 311 313 314 313 311 313 311 313 312 313 314 312 312 312 311 309 310 311 311 309 311 310 311 312 312 311 310 309 310 310 309 309 308 307 306 304
307 306 306 307 308 310 311 312 312 312 312 311 308 310 309 310 311 311 312 313 312 311 310 310 310 309 310 310 309 309 311 310 310 309 309 309 308 308 308 307 307 306 305 304
306 305 305 306 307 309 310 310 310 311 311 311 306 307 308 308 309 310 310 310 311 310 310 308 309 309 309 310 308 309 309 309 309 309 309 308 308 308 307 306 306 305 304 302
304 304 305 306 307 307 308 309 310 311 310 309 306 308 309 307 308 308 308 308 308 309 309 309 308 309 309 308 308 309 308 308 309 308 308 307 305 303 303 303 302 302 301 300
305 305 305 306 306 306 307 308 308 309 309 308 307 308 306 307 307 306 305 305 305 306 306 307 306 307 307 307 307 307 307 307 307 306 305 301 300 300 301 301 301 300 299 298
306 304 304 304 305 305 304 303 304 305 304 305 305 307 304 306 306 304 305 303 303 305 304 305 305 303 302 305 305 305 306 305 303 300 299 299 299 301 301 300 299 298 294 291
305 304 303 304 304 302 300 302 301 303 304 304 303 303 305 305 306 303 303 304 302 302 301 302 302 300 303 304 303 302 300 299 298 298 298 299 300 300 300 299 297 296 290 288
302 302 303 302 301 301 301 301 302 302 301 301 301 302 303 303 304 302 302 302 302 298 301 301 298 301 303 303 301 299 298 298 298 299 298 298 299 299 299 298 295 288 288 288
303 301 301 298 297 296 294 295 297 301 301 301 302 300 301 301 302 300 300 302 299 300 301 299 297 302 302 302 300 299 299 299 298 297 297 297 298 298 296 291 287 288 288 287
301 300 298 295 296 297 298 299 299 299 300 300 299 298 299 299 300 300 299 300 301 299 299 297 302 300 300 299 298 298 298 297 296 296 296 296 296 295 290 287 287 287 287 287
301 299 298 298 297 296 297 298 297 299 299 300 299 298 299 297 300 300 301 301 299 298 295 301 302 300 300 300 298 297 297 297 296 295 295 295 295 293 290 287 287 287 287 287
298 298 299 299 298 298 298 299 299 299 299 292 297 295 294 292 299 298 295 297 297 300 301 301 300 300 300 299 297 297 297 298 296 294 294 295 293 291 289 288 287 287 287 287

GFSNW_850_thetae_006.txt.gz
Theta_e
315 318 315 311 308 309 316 319 316 319 320 317 316 322 323 322 322 322 323 320 320 323 325 324 324 325 323 321 322 324 322 317 319 320 316 315 315 316 314 316 318 314 313 317
315 318 319 313 308 309 315 317 318 319 321 322 318 319 320 320 322 322 324 325 324 323 324 326 323 322 320 321 321 322 321 321 321 323 319 318 319 317 315 314 314 318 318 318
314 317 319 315 309 309 315 317 317 317 319 317 317 319 320 321 320 321 320 322 322 322 322 321 322 322 320 319 319 319 318 317 320 324 321 318 321 321 317 316 316 316 316 318
314 316 318 318 309 309 314 314 312 315 316 314 315 316 319 320 321 320 320 321 321 322 322 321 321 320 319 318 317 316 316 318 317 317 316 316 318 318 318 318 316 317 316 316
313 315 317 319 311 310 314 314 313 314 312 313 313 312 316 317 317 318 321 319 316 316 318 318 321 320 319 320 317 317 314 316 314 313 312 313 313 313 312 314 316 316 316 316
313 314 316 318 312 310 312 314 314 312 311 310 312 313 314 315 315 314 313 316 314 312 311 311 314 316 315 316 317 315 314 312 312 313 312 314 316 314 312 310 310 311 312 311
313 314 315 317 315 310 312 314 316 312 311 311 313 313 312 313 313 314 310 313 312 312 310 310 312 311 311 311 310 311 312 311 311 313 314 318 316 312 313 312 313 312 312 312
313 313 315 317 318 310 310 313 315 313 309 310 311 310 309 309 309 308 308 308 309 310 311 310 313 312 314 312 311 311 308 309 312 314 314 314 316 315 316 317 315 313 314 314
313 313 314 316 318 316 313 316 316 315 309 310 312 309 309 308 307 306 306 308 309 311 310 314 317 317 316 315 315 309 308 307 311 306 313 318 315 314 314 312 312 314 315 314
313 314 314 315 317 318 318 318 319 319 312 312 311 309 311 309 307 306 306 308 309 311 311 315 314 318 312 316 315 313 309 309 311 312 312 312 310 312 314 316 311 312 312 312
311 313 314 315 315 317 319 318 319 320 317 313 314 314 312 311 312 311 309 311 310 309 313 314 311 313 311 312 311 312 312 310 310 310 312 312 312 314 316 311 311 311 311 311
310 312 314 315 315 317 318 318 318 319 320 315 314 314 313 314 315 314 308 313 309 311 309 308 307 310 306 308 314 309 314 312 313 311 310 310 313 312 312 312 312 311 311 311
308 310 312 313 315 317 317 318 318 318 318 316 317 316 316 314 315 314 314 313 313 313 313 308 308 312 306 310 309 312 311 310 312 312 311 309 311 311 311 311 311 311 311 310
306 308 310 313 314 315 317 319 318 318 317 313 314 315 315 316 315 315 316 315 314 314 313 311 312 315 309 310 310 309 309 311 310 310 310 310 310 310 310 310 310 310 309 308
305 307 309 311 313 314 315 316 316 316 316 314 314 313 313 313 315 313 314 314 314 313 311 310 312 312 310 307 306 309 308 309 310 310 309 310 310 309 309 309 309 308 308 308
306 306 307 309 311 313 313 312 313 314 314 313 307 311 311 313 313 314 313 313 313 312 311 309 310 311 309 307 310 307 309 311 311 310 310 309 309 309 308 308 307 307 307 306
306 306 306 307 310 311 311 311 311 311 313 311 307 309 310 312 313 313 312 312 312 312 310 309 309 310 309 306 309 308 310 310 310 310 309 308 308 307 307 307 305 304 304 304
306 305 306 307 308 310 310 311 311 312 312 311 305 307 308 310 310 309 311 311 311 311 309 309 309 309 309 309 307 308 309 309 308 308 309 308 307 306 305 303 302 302 302 301
305 305 305 306 308 308 309 310 310 311 310 308 306 307 309 308 308 308 308 308 309 309 309 308 308 308 309 307 307 308 308 308 307 308 308 307 305 301 300 300 300 301 301 300
305 305 306 306 306 306 308 310 310 310 310 309 306 307 307 307 307 306 305 305 306 308 307 308 307 307 308 307 307 308 308 306 306 307 305 302 299 299 300 301 301 300 299 298
305 306 304 305 306 306 306 303 304 305 304 306 306 307 306 306 306 306 304 303 303 304 300 305 304 301 301 304 304 305 305 305 303 300 299 299 299 299 300 300 299 299 299 298
305 305 304 305 304 302 300 302 301 303 301 303 304 304 305 305 305 303 303 303 302 303 302 303 303 300 302 302 302 301 300 299 298 299 299 299 298 299 299 299 300 299 298 293
303 303 304 302 301 300 300 299 300 301 299 302 302 302 304 303 304 302 302 303 303 300 302 300 297 300 302 303 302 301 299 299 299 300 300 298 297 297 299 299 298 296 291 288
301 301 301 299 298 298 295 294 294 299 302 302 303 300 301 302 301 301 303 301 300 301 301 298 296 301 302 302 302 299 298 298 299 300 299 296 296 296 297 296 292 288 287 287
300 300 300 298 294 295 295 297 298 299 301 302 299 298 299 299 300 300 300 300 301 299 299 298 301 301 301 300 300 300 299 298 299 299 299 296 295 295 295 293 290 287 287 287
299 298 294 295 296 295 295 296 296 300 301 300 299 298 297 298 296 300 299 298 299 298 296 301 301 300 300 300 300 300 299 297 297 299 298 297 295 295 294 292 289 288 287 287
299 296 297 298 298 297 298 298 299 300 300 292 297 291 292 296 296 295 294 298 298 300 301 301 301 300 300 300 300 299 298 296 297 298 298 296 294 294 293 293 291 289 287 287

GFSNW_850_thetae_009.txt.gz
Theta_e
314 314 317 318 313 308 313 316 314 316 314 319 319 321 324 319 319 321 323 320 319 319 319 322 324 323 322 321 320 322 319 314 317 317 315 313 314 314 312 315 317 312 312 316
314 314 317 318 313 308 312 314 317 316 316 321 321 320 322 322 323 323 323 320 321 323 322 325 321 322 320 321 320 321 319 318 321 322 318 317 318 315 313 312 313 315 316 316
314 314 317 318 316 308 310 315 313 315 315 317 319 319 321 323 321 321 321 323 322 322 321 320 321 322 319 319 319 319 318 317 318 320 320 317 319 318 314 315 316 315 315 317
313 314 316 317 318 308 310 314 311 313 313 313 316 317 320 322 323 321 320 323 323 322 322 320 321 320 318 318 317 315 314 318 316 315 315 317 318 319 315 315 314 316 316 315
313 314 315 316 318 307 312 314 311 313 310 312 313 313 316 318 316 321 322 322 318 320 321 319 321 319 319 320 316 316 312 315 314 312 312 312 313 314 316 317 317 315 316 315
313 313 314 316 318 308 313 313 313 312 309 309 312 313 315 316 314 313 316 316 314 315 311 310 313 314 313 314 315 314 312 311 311 313 313 314 314 312 310 310 310 312 312 311
313 313 314 315 317 309 311 313 314 311 310 310 311 312 312 315 313 314 311 312 313 311 310 311 314 312 312 311 310 310 311 311 310 312 313 316 313 312 312 312 312 311 313 313
312 313 313 315 317 311 310 312 314 312 309 308 310 310 308 308 308 307 308 308 308 310 311 312 314 314 313 312 310 309 309 311 313 316 314 314 315 314 312 315 316 313 314 314
312 313 313 314 317 317 311 315 315 313 309 310 310 308 308 308 306 306 306 308 309 311 310 314 315 316 315 314 314 308 308 308 313 309 315 320 315 314 313 311 316 312 314 313
311 312 313 315 316 318 315 317 317 317 311 311 310 308 309 308 307 306 306 308 309 311 311 315 311 316 312 315 315 312 310 310 313 314 314 313 311 312 313 316 311 311 311 311
310 312 313 314 315 317 318 318 319 319 313 312 313 312 311 310 311 312 308 312 310 308 313 314 313 313 311 312 310 309 310 309 311 311 313 316 311 313 314 310 310 310 310 310
310 311 313 314 314 315 317 318 318 319 317 313 313 312 313 314 315 312 307 312 309 311 309 307 306 310 306 309 315 308 314 311 312 310 311 309 311 311 312 311 311 311 311 310
309 310 312 314 314 315 317 318 318 318 317 315 315 314 313 314 315 312 314 312 312 313 312 306 306 311 305 310 309 310 310 308 311 311 309 310 311 311 311 311 311 311 310 310
308 307 310 312 313 315 316 318 318 318 317 313 313 314 315 315 314 315 316 315 314 313 314 310 310 313 307 308 309 308 308 309 309 310 309 309 309 310 310 310 310 310 309 309
307 307 308 311 312 313 315 317 318 317 316 314 313 312 312 313 315 314 315 314 314 313 311 310 313 311 311 305 305 309 307 309 310 310 309 308 308 309 309 308 308 308 308 308
305 306 308 310 312 313 315 314 315 315 313 313 310 311 311 313 314 312 312 314 315 313 311 309 310 311 308 307 306 306 308 310 310 309 309 309 309 308 307 307 307 306 306 305
305 307 308 309 311 313 312 311 311 313 313 311 308 308 310 312 313 312 312 313 312 312 310 309 309 309 308 305 307 306 308 309 309 309 309 308 308 307 307 306 305 304 303 303
305 307 308 309 309 310 310 310 311 312 312 310 305 307 308 310 310 310 311 311 311 310 309 309 309 309 308 308 306 307 307 308 308 308 308 308 307 306 305 302 300 299 300 300
306 306 306 308 308 309 308 309 311 312 310 306 306 307 308 308 308 308 309 309 309 309 309 308 308 308 307 306 306 308 308 308 307 307 308 307 306 302 300 300 300 299 299 299
305 306 306 306 307 308 308 310 310 310 310 309 305 307 307 307 307 306 306 305 307 308 307 308 308 308 308 307 308 308 308 308 306 306 306 305 300 299 299 299 299 300 300 298
306 305 304 305 307 308 306 304 305 305 301 306 305 306 305 306 306 306 304 303 302 305 303 307 305 299 299 303 304 305 306 307 307 303 300 299 300 299 299 299 299 299 299 298
305 305 305 306 305 303 301 304 301 303 301 303 304 305 306 305 304 303 303 303 302 303 301 304 301 296 302 302 303 304 303 302 299 300 301 301 300 298 297 298 298 299 299 298
304 304 305 303 301 301 301 301 301 301 299 303 303 303 304 304 303 302 302 303 302 301 302 301 296 299 301 302 300 299 298 299 300 300 300 300 299 297 296 296 298 298 298 296
301 300 301 301 300 296 296 293 295 298 301 302 303 301 302 302 302 302 304 301 300 301 297 295 292 300 301 301 300 299 299 298 298 299 300 300 300 298 296 295 296 296 294 291
300 300 302 298 293 294 294 295 298 299 302 303 300 299 300 298 300 299 301 301 302 299 295 292 300 301 301 300 300 300 300 299 299 298 298 299 299 298 297 295 294 294 291 288
299 297 292 294 294 294 293 295 297 300 301 302 300 296 297 299 299 301 301 299 296 294 290 301 301 300 300 299 299 299 299 299 299 298 296 297 298 298 296 295 294 293 290 287
298 297 296 296 296 296 296 296 299 301 301 297 296 292 295 296 296 295 294 296 293 298 301 301 300 300 300 299 299 299 299 299 299 298 298 297 297 298 295 294 293 292 290 287

GFSNW_850_thetae_012.txt.gz
Theta_e
313 313 314 315 316 312 308 314 312 314 312 316 316 315 320 319 320 321 322 320 319 318 320 321 321 321 321 319 318 317 315 312 314 315 314 311 311 312 312 317 316 311 312 315
312 313 314 315 315 314 308 314 314 313 314 321 321 320 321 321 321 321 322 319 319 319 321 323 323 322 319 320 319 318 316 316 319 321 318 316 316 313 311 311 311 312 315 316
312 312 313 315 315 316 307 313 313 314 314 315 317 321 322 323 321 321 321 321 320 320 321 321 321 321 319 319 319 319 318 316 316 321 319 316 318 315 312 314 314 314 313 316
311 312 313 314 315 316 308 313 310 314 316 315 315 318 321 323 324 321 321 322 321 321 321 320 321 318 317 316 318 315 314 318 316 313 316 316 317 317 313 314 314 317 317 314
312 312 313 314 315 315 309 313 310 311 310 311 315 314 319 321 317 321 323 322 319 318 322 320 320 318 319 318 315 314 312 315 313 312 312 313 316 317 313 313 313 314 314 314
311 312 313 313 315 314 311 312 313 311 309 309 313 315 317 317 316 316 313 318 317 314 313 311 314 313 312 314 314 313 311 311 312 315 313 313 313 311 314 314 313 314 316 313
313 312 313 313 315 315 309 311 313 310 310 310 311 313 313 315 313 317 310 314 316 312 311 313 314 312 312 311 309 309 311 310 310 310 313 312 312 311 309 310 311 310 312 312
312 312 313 313 315 316 309 311 313 311 309 308 310 310 309 307 307 308 308 309 312 311 310 314 319 316 318 312 308 308 308 310 312 314 312 312 315 311 312 314 315 313 313 312
312 311 312 313 315 316 309 313 313 312 308 309 310 307 308 308 306 306 306 308 308 310 312 314 318 322 320 314 313 308 308 309 312 310 316 317 314 313 312 312 317 312 312 312
311 311 312 313 314 316 314 314 316 315 310 310 309 308 309 308 306 305 305 308 310 310 312 315 315 316 312 315 314 312 310 309 312 314 315 313 311 312 312 316 314 312 312 312
311 310 311 313 314 316 317 316 317 317 312 312 312 310 309 309 309 308 306 310 310 309 314 314 312 312 311 312 311 310 310 310 311 311 314 316 310 312 314 310 310 311 311 310
310 310 311 313 314 316 317 317 317 317 313 312 311 312 312 313 314 310 307 311 309 311 310 308 307 310 307 310 315 307 313 310 311 311 312 309 310 311 312 311 311 310 310 310
310 310 310 313 314 314 316 317 317 317 314 313 313 313 312 313 313 311 314 312 312 312 311 306 306 311 305 311 310 310 309 307 311 310 309 309 310 310 311 311 311 310 310 310
309 309 309 312 313 313 316 317 317 317 316 312 312 314 314 313 314 315 316 315 314 313 313 309 308 311 305 307 308 309 307 307 308 309 308 309 309 310 311 310 310 309 309 309
308 308 309 311 312 314 316 317 317 317 316 314 312 312 313 314 314 315 315 314 314 314 310 308 310 307 307 303 305 308 306 308 310 310 309 308 308 310 309 309 308 308 308 307
308 307 308 310 312 313 315 316 316 316 315 314 311 311 312 313 312 313 313 313 314 313 311 307 309 310 308 304 307 305 309 310 309 308 309 309 309 308 308 307 307 306 305 303
307 306 309 309 311 313 313 312 314 313 312 312 308 308 311 312 312 312 313 313 312 312 309 308 308 309 308 305 307 306 307 309 309 309 308 307 307 307 306 306 305 302 301 300
305 308 308 309 310 312 310 310 313 313 311 310 306 307 309 310 310 310 311 311 311 310 309 309 308 308 308 308 305 306 308 308 308 308 308 308 307 306 305 302 300 300 300 299
306 307 309 310 310 309 309 310 311 311 310 305 305 307 307 309 308 308 308 309 310 309 309 308 308 309 307 307 305 306 307 307 307 307 307 306 306 302 300 300 300 299 299 298
307 307 307 307 308 308 309 309 310 311 310 309 303 306 307 307 307 306 306 305 307 308 308 307 307 306 307 308 308 308 308 307 307 306 306 305 300 300 300 299 299 298 298 298
307 306 304 306 308 308 306 305 303 303 302 305 304 305 306 306 306 306 304 302 300 300 302 307 302 301 299 305 307 307 308 307 306 305 300 300 300 300 299 298 298 298 298 298
306 305 306 307 305 303 300 304 298 303 301 302 305 305 305 304 305 303 301 301 297 304 302 305 299 297 300 301 302 305 306 306 305 300 301 300 299 299 299 298 297 296 297 298
305 306 305 304 301 301 304 304 302 296 296 303 303 303 304 304 303 301 298 301 301 300 302 303 297 297 301 300 301 303 304 301 300 301 300 300 300 300 299 298 297 296 296 297
302 301 301 303 301 301 299 294 295 299 301 303 303 301 300 303 302 302 303 301 300 302 301 296 291 300 302 300 298 298 298 299 300 300 300 299 299 300 299 298 297 296 295 295
300 301 303 299 291 293 293 295 297 300 303 303 301 300 301 299 300 298 297 301 301 301 295 293 297 301 301 299 298 299 299 299 298 298 298 297 297 298 298 298 297 296 294 293
299 297 294 292 291 293 293 296 298 302 303 303 301 295 298 299 298 301 298 298 298 294 289 298 300 301 300 299 299 299 299 299 299 299 299 297 296 296 297 297 297 295 294 292
298 296 295 295 294 293 295 297 300 302 302 296 295 298 299 297 299 299 292 294 291 294 298 301 301 300 299 299 299 298 299 299 299 298 298 298 297 296 296 297 295 293 292 291

GFSNW_850_thetae_015.txt.gz
Theta_e
312 312 313 312 313 315 310 311 313 314 311 313 312 314 314 314 319 316 317 317 316 314 313 315 318 319 319 319 318 314 312 312 318 314 313 312 313 315 314 319 317 311 314 319
312 311 312 313 314 315 309 312 314 312 312 317 314 314 315 314 320 318 321 320 318 314 314 320 320 320 317 319 319 316 314 315 319 320 318 315 314 310 311 311 311 313 318 318
311 311 311 313 314 315 311 312 317 313 312 313 316 320 320 321 320 321 321 318 317 318 320 320 320 322 320 319 318 318 316 314 317 322 319 315 317 313 310 315 315 314 313 315
311 311 311 312 314 314 312 311 310 315 315 315 315 319 320 320 323 320 321 320 319 319 321 321 321 320 317 317 319 316 316 319 315 313 316 316 315 315 311 314 316 319 317 314
311 310 310 311 314 314 313 311 308 310 310 311 316 317 321 321 320 320 322 321 318 320 319 319 320 318 318 319 315 315 312 317 312 313 313 315 317 315 314 313 312 313 313 314
311 310 310 311 313 314 311 311 311 310 310 310 315 315 318 319 317 318 313 317 317 321 314 312 318 318 316 316 314 313 314 311 314 316 312 312 316 312 314 314 311 314 316 316
312 311 310 311 313 314 313 310 311 310 312 310 313 313 315 316 315 319 311 314 316 314 312 313 314 314 312 314 309 309 314 311 311 311 311 314 314 310 312 314 310 310 310 309
312 310 310 310 312 314 314 309 311 311 309 309 310 311 309 307 310 309 310 309 311 311 310 319 321 320 316 312 308 308 308 311 312 314 311 312 314 311 310 313 313 308 312 311
312 311 311 310 313 314 315 309 311 312 307 308 309 308 308 309 306 309 307 311 312 312 313 315 321 321 320 316 313 308 309 311 313 311 316 315 313 312 311 312 316 312 312 311
312 311 309 310 312 314 315 311 312 313 308 309 308 307 309 308 306 308 307 308 310 313 314 316 316 317 314 316 314 313 311 310 311 314 314 313 311 311 311 316 315 311 313 312
312 311 310 310 311 314 314 315 314 315 310 311 310 309 308 308 308 308 306 311 310 310 316 317 314 315 311 312 310 310 312 313 312 311 314 315 310 312 314 310 311 312 311 311
312 310 309 310 311 314 314 315 315 316 311 312 310 310 310 311 312 309 306 310 308 310 310 308 308 310 307 311 315 307 312 310 312 311 312 308 309 310 310 312 310 310 310 309
312 310 309 309 312 314 314 316 316 314 312 312 312 312 312 312 311 309 312 311 311 312 311 305 306 312 306 312 311 310 308 307 310 309 309 308 309 310 311 311 311 310 310 309
312 309 309 309 312 314 315 316 316 316 314 310 311 313 313 313 313 314 315 315 314 312 312 308 308 310 304 307 308 309 307 307 308 308 307 308 309 310 310 310 310 310 309 309
312 309 308 308 312 313 314 316 316 316 315 313 312 312 313 314 314 315 314 314 314 313 310 308 312 306 307 302 305 307 305 307 309 310 308 309 309 309 310 309 309 308 308 307
311 308 308 309 312 313 314 315 316 317 315 314 312 311 312 312 312 313 313 313 314 313 310 306 308 309 307 305 308 306 308 309 310 308 309 309 309 309 309 308 307 306 305 303
309 308 308 310 312 313 314 313 315 315 314 312 308 309 311 311 312 312 313 313 313 313 309 307 307 308 307 304 308 306 309 309 309 309 309 306 307 307 307 306 305 303 301 300
307 307 308 310 312 313 311 313 313 312 311 310 306 307 309 311 311 311 311 312 311 310 309 308 306 308 305 307 304 305 307 307 307 307 308 309 308 306 305 305 301 300 299 299
307 307 308 311 311 310 310 312 313 311 310 306 305 308 311 309 308 309 309 310 310 309 309 309 309 308 305 306 304 305 306 308 306 306 307 307 306 305 303 300 299 299 299 298
308 310 309 308 309 309 309 311 311 311 310 308 304 306 308 308 307 305 307 306 307 309 308 307 308 308 307 307 308 309 308 308 307 306 304 305 304 300 300 300 299 299 298 298
309 307 305 307 309 308 307 305 303 303 302 305 304 305 305 306 306 306 304 303 301 305 305 308 305 303 302 306 306 307 307 307 307 307 306 304 300 300 299 299 298 297 297 297
307 306 307 308 306 304 300 299 299 303 302 303 305 304 305 304 305 303 300 298 294 299 301 307 303 299 300 303 306 306 306 306 305 302 300 300 299 299 299 298 297 297 296 297
306 307 306 304 301 302 300 304 302 295 295 303 303 302 303 303 303 297 296 295 296 298 302 302 299 296 300 301 303 305 305 305 300 300 299 299 299 299 299 298 298 297 296 296
303 301 303 303 302 300 298 296 296 299 301 303 302 300 301 302 295 299 297 298 299 299 297 298 293 299 300 299 301 304 304 302 300 300 299 299 299 299 299 298 298 297 296 295
300 301 304 301 293 292 293 295 298 300 303 303 301 300 300 298 300 298 298 301 301 301 296 292 296 300 299 298 300 302 300 300 300 299 299 298 297 297 297 297 297 297 296 295
299 297 295 292 291 293 294 297 300 302 303 304 302 294 294 298 296 301 294 298 297 295 291 297 299 301 298 297 298 298 298 298 298 298 298 297 297 296 296 296 296 296 295 294
298 294 295 294 292 293 294 297 301 303 302 293 293 297 298 296 297 300 292 294 292 293 297 298 301 299 298 298 298 298 298 298 298 298 298 297 297 296 296 295 295 295 293 292

GFSNW_850_thetae_018.txt.gz
Theta_e
313 312 312 312 313 313 315 309 314 314 311 310 309 311 312 312 313 312 312 313 311 312 313 314 317 316 318 315 316 319 319 319 322 323 315 319 323 324 326 327 324 321 322 324
313 312 311 312 313 313 311 311 314 313 311 314 313 311 313 312 313 314 313 317 313 312 312 313 317 317 315 318 319 319 318 320 323 322 320 316 321 324 325 324 319 323 326 324
313 312 311 311 312 313 314 312 316 312 312 313 315 314 314 315 314 317 317 318 317 312 312 315 315 320 318 319 319 318 317 320 321 324 322 321 322 323 321 324 325 324 322 323
313 312 311 311 312 313 314 309 315 314 314 313 314 315 317 318 321 319 320 320 318 315 313 318 320 322 321 320 319 319 319 322 320 320 319 320 320 321 320 322 324 324 324 322
313 312 311 311 311 313 313 310 312 311 315 314 316 314 317 319 318 319 319 321 319 318 317 320 321 322 321 322 321 321 319 322 318 318 317 319 320 320 321 322 324 323 322 322
312 312 311 310 311 312 313 312 309 310 313 313 317 318 318 321 318 318 315 320 320 320 319 319 320 320 320 320 321 322 321 321 320 323 316 318 321 321 319 319 319 320 321 322
312 311 311 310 311 312 313 310 310 311 314 313 315 314 317 319 319 319 313 319 319 315 313 316 318 318 316 313 312 319 321 319 318 321 316 325 321 314 319 320 319 318 319 317
312 312 311 309 310 312 313 314 310 311 314 312 311 312 313 312 311 310 312 308 311 311 313 321 320 319 318 315 311 312 316 316 321 319 319 319 315 314 315 319 320 316 317 315
312 312 311 310 310 311 312 313 312 310 311 312 309 309 312 314 313 312 309 310 310 314 316 322 323 323 321 317 318 310 312 319 322 319 319 322 317 314 312 315 319 314 315 315
310 312 311 310 310 312 312 314 312 311 310 309 308 312 312 310 311 311 308 310 314 315 318 318 321 322 317 320 320 317 316 319 324 322 322 317 314 313 313 318 320 314 314 314
311 311 311 310 310 312 312 313 311 311 311 310 309 309 307 308 311 316 310 313 313 314 320 320 317 319 319 317 317 320 319 321 321 320 320 321 312 312 317 315 313 314 313 313
311 311 310 309 309 311 312 313 314 313 314 311 310 309 309 310 309 310 310 314 311 315 317 315 314 315 312 316 317 310 319 319 317 317 318 312 310 312 311 313 312 311 311 310
310 311 310 309 309 311 312 313 315 314 312 311 311 311 311 311 310 311 313 311 313 312 314 313 314 318 313 318 317 314 311 310 315 313 311 310 309 309 310 311 311 311 310 309
310 311 310 309 309 311 312 313 315 314 312 314 312 312 313 312 311 309 313 314 312 312 311 313 315 316 308 315 313 315 313 311 313 312 310 309 309 310 310 310 310 309 309 309
310 310 309 309 309 311 312 313 315 315 314 315 312 312 313 313 313 314 314 313 313 313 315 316 317 309 311 308 311 314 310 313 316 318 313 314 312 309 309 310 309 309 309 308
310 310 309 308 310 312 313 313 315 315 314 313 315 311 311 312 312 312 312 313 314 313 313 312 310 308 312 318 319 313 310 309 310 313 311 310 309 309 309 309 309 308 307 305
310 310 308 308 311 312 313 314 315 316 314 312 309 311 311 311 312 312 313 313 313 313 310 311 312 311 310 313 317 312 309 309 310 310 309 306 307 308 308 308 307 306 303 302
310 308 308 309 310 312 312 312 313 314 312 311 307 308 310 311 311 312 312 312 312 310 311 309 311 309 309 314 312 307 308 308 308 307 309 308 308 308 307 306 305 303 301 300
308 307 309 310 310 311 311 312 311 310 310 307 306 310 313 310 309 309 309 310 313 309 312 312 311 313 315 314 311 307 306 309 307 307 308 308 308 306 305 304 301 300 300 299
307 307 309 309 310 311 312 311 311 312 310 307 307 307 310 308 307 307 308 307 310 312 309 308 310 312 311 310 310 309 307 309 308 306 303 305 305 305 304 300 300 300 299 298
308 308 307 308 310 309 307 306 308 305 306 305 305 306 308 306 308 307 305 306 305 312 309 311 311 309 307 306 307 308 308 308 308 309 309 307 306 303 300 300 299 298 298 297
308 307 308 309 306 304 304 306 302 305 307 304 306 305 305 304 305 305 303 305 303 309 304 308 308 306 299 302 304 306 307 307 307 307 306 304 300 300 299 298 298 297 297 297
307 308 306 305 302 304 306 306 305 302 301 303 302 304 303 303 303 301 302 304 306 301 305 306 306 299 299 302 304 305 306 306 306 305 301 300 299 298 298 298 298 297 297 297
303 301 305 305 305 305 303 304 303 300 302 303 303 301 303 301 303 302 303 300 301 303 303 304 301 298 299 301 303 305 304 300 300 299 299 299 299 299 298 298 298 297 297 296
301 302 306 304 296 292 292 295 298 301 303 303 302 301 301 300 302 301 301 302 302 302 303 301 297 298 299 300 303 304 301 299 299 299 299 298 298 298 298 297 297 297 296 295
299 298 297 294 296 295 294 296 300 303 303 304 302 300 302 300 302 301 302 302 302 303 301 297 298 298 299 300 303 304 301 299 299 298 297 297 297 296 296 296 295 295 295 294
298 296 294 294 293 295 296 299 302 303 302 302 301 305 304 299 301 302 299 301 301 297 296 297 299 298 298 301 302 299 298 297 297 298 298 297 297 296 295 295 295 295 294 293

GFSNW_850_thetae_021.txt.gz
Theta_e
312 313 313 312 312 314 314 312 311 313 311 311 310 310 309 311 312 312 312 314 314 313 313 313 315 314 314 313 315 318 319 321 320 322 317 323 325 326 326 328 327 325 325 325
311 314 313 312 312 314 314 310 312 313 311 313 311 310 310 310 313 314 313 315 315 313 313 314 316 316 314 316 317 318 320 321 325 321 319 320 325 325 327 326 324 327 326 326
309 314 313 312 311 313 313 311 315 312 310 311 314 312 313 313 312 313 314 315 315 313 313 314 316 318 317 317 316 318 319 321 323 325 325 323 326 326 325 327 328 327 326 324
306 314 313 311 311 313 312 310 315 314 314 313 313 314 315 316 317 315 314 318 317 315 313 314 316 317 318 317 319 318 321 322 321 321 322 324 325 325 326 327 327 327 326 324
306 311 312 311 311 312 312 310 311 314 315 313 313 313 315 316 316 319 318 318 317 316 313 314 318 318 320 321 321 320 321 322 321 322 321 321 322 322 324 325 325 324 324 325
305 312 312 311 311 312 312 312 311 312 315 317 317 318 315 315 316 317 318 317 319 318 314 314 320 320 319 321 322 321 321 322 322 324 320 321 323 322 322 322 322 322 325 324
304 307 311 311 311 311 312 313 312 312 313 313 315 317 316 317 319 319 318 318 320 319 316 319 319 318 320 321 321 320 322 322 323 325 320 327 323 318 320 321 322 322 323 322
302 310 312 311 311 311 311 312 310 312 314 313 314 314 316 313 313 313 315 313 316 315 318 320 320 320 320 317 313 320 321 322 323 323 323 323 322 316 318 321 322 321 321 320
302 311 312 311 311 310 311 312 313 311 313 313 312 314 314 317 315 313 311 310 311 313 320 322 322 323 321 321 318 311 320 321 323 322 323 325 319 316 315 319 322 321 321 320
302 305 308 311 311 310 311 312 312 311 312 311 310 313 316 314 314 313 312 312 317 315 321 324 324 324 319 323 322 316 320 321 324 325 325 325 316 315 315 319 322 315 317 318
302 307 311 311 310 310 311 311 312 312 313 313 310 310 309 310 315 318 311 316 315 318 321 322 321 322 319 323 321 318 319 322 323 324 326 326 315 314 318 318 315 315 316 316
302 305 309 310 310 310 311 311 312 311 311 314 311 310 309 309 312 314 311 313 315 318 319 319 318 317 316 320 322 316 323 321 322 323 323 314 313 314 313 316 316 315 314 313
302 305 310 310 309 310 311 312 313 312 312 313 312 312 311 310 310 312 314 314 314 315 315 315 317 319 317 321 321 319 315 312 318 315 314 314 312 311 313 315 314 313 312 311
303 305 310 310 309 310 310 311 312 312 313 316 315 312 312 312 310 311 312 318 318 316 314 316 318 320 312 318 317 317 314 313 316 315 312 312 311 312 312 311 311 310 310 310
303 307 310 310 309 309 311 312 312 313 314 317 313 312 312 312 312 310 312 312 313 313 315 318 320 313 314 313 314 317 312 315 316 318 315 316 314 312 310 310 309 309 309 308
303 308 310 310 309 309 311 311 312 313 313 313 314 311 311 311 311 312 311 312 313 315 318 317 313 311 315 321 321 317 314 313 313 315 314 313 312 310 310 310 309 308 308 307
304 308 309 309 308 309 312 313 314 314 314 312 312 312 311 311 312 312 313 313 313 316 314 316 316 314 313 317 321 317 313 312 311 311 311 311 310 310 309 308 308 307 306 304
305 309 309 308 308 310 311 312 312 313 313 312 309 310 311 311 314 315 312 315 315 313 314 312 316 312 313 318 317 313 312 311 310 309 309 311 310 308 307 308 307 305 302 301
308 308 308 308 309 311 311 312 312 312 311 308 308 311 313 310 310 311 311 313 318 312 316 316 314 318 319 319 316 310 311 310 309 307 308 308 307 307 307 306 304 302 300 300
308 307 309 309 310 311 311 309 309 310 310 308 310 310 311 309 309 308 310 308 312 313 311 309 312 316 316 314 313 312 310 309 309 306 304 305 306 306 305 304 301 300 300 299
307 308 307 309 310 310 309 308 310 309 309 307 307 310 310 307 310 309 306 309 309 315 312 313 315 314 312 306 309 309 308 309 308 309 310 308 308 305 303 300 300 299 299 298
308 307 308 308 308 305 308 309 305 307 310 307 307 308 309 305 306 306 304 308 307 312 307 311 310 310 302 304 306 307 306 307 307 308 307 306 305 304 300 300 299 298 298 297
308 309 308 306 304 308 309 307 306 306 306 305 304 306 305 304 304 304 306 308 310 304 307 309 309 302 300 303 304 304 304 305 306 306 305 305 301 299 299 298 298 297 297 297
305 305 305 307 306 307 308 308 308 305 304 303 304 304 306 304 306 306 308 304 303 306 307 307 305 301 300 302 302 303 304 305 305 304 300 299 299 298 298 298 298 297 297 297
300 303 308 305 300 296 296 298 300 302 304 304 304 304 303 304 304 304 303 303 305 306 307 306 301 299 300 302 301 302 303 303 300 299 299 298 298 298 298 298 297 297 297 296
299 299 300 297 300 298 296 299 301 304 304 305 305 304 305 302 304 303 305 305 307 308 306 300 298 298 299 302 301 300 299 299 299 299 298 298 298 297 297 296 296 296 296 296
299 298 297 297 299 300 299 300 302 304 303 307 306 307 307 302 303 305 304 305 305 301 298 298 298 298 299 301 300 299 299 299 298 298 297 297 296 295 295 296 296 295 295 294

GFSNW_850_thetae_024.txt.gz
Theta_e
304 302 306 313 314 313 314 314 313 312 313 312 311 312 311 309 311 311 312 312 314 314 313 312 313 315 314 313 312 313 311 314 318 319 318 320 324 325 325 325 328 325 322 321
304 303 306 313 313 312 314 312 313 312 312 313 312 311 311 309 311 312 312 313 313 314 315 313 313 314 314 314 314 316 316 319 322 321 323 323 326 325 324 325 324 326 324 320
302 304 304 313 313 312 313 311 314 312 311 311 312 312 312 311 310 311 313 314 314 315 315 312 315 315 317 315 313 316 319 319 319 327 326 324 326 325 324 325 326 325 324 319
301 303 304 307 312 312 313 311 314 312 313 311 312 313 313 313 313 311 312 314 314 316 314 312 314 316 318 318 314 317 319 324 322 323 324 324 324 325 325 326 325 326 325 320
301 302 306 313 312 312 313 309 311 313 315 312 312 313 314 314 314 315 317 315 316 316 314 313 313 317 317 317 318 316 317 322 321 321 324 324 325 325 325 325 324 325 324 323
301 302 304 313 311 312 312 311 310 311 313 315 315 315 314 314 314 313 314 315 316 318 317 313 317 315 316 319 318 319 320 321 323 322 320 321 322 321 324 324 323 324 325 323
300 301 305 306 311 312 312 313 311 311 313 313 315 316 317 316 315 317 315 316 316 318 318 316 318 318 318 319 319 318 319 321 323 325 320 323 321 317 319 320 320 321 320 320
300 304 305 309 311 311 312 312 312 312 314 314 314 314 315 314 314 317 316 318 317 318 317 320 321 320 320 317 313 317 319 322 323 323 321 322 320 316 318 319 320 318 319 319
300 301 302 306 311 311 311 311 312 311 313 313 312 313 315 315 315 313 312 312 313 314 318 320 319 322 321 320 318 314 320 321 321 317 321 324 318 316 314 317 320 315 317 317
300 301 302 307 311 311 311 311 311 312 311 312 311 312 313 315 314 314 312 313 315 316 320 322 319 321 320 321 321 319 322 322 323 322 323 321 316 314 315 319 320 314 317 316
299 301 302 306 310 311 311 311 311 311 312 312 313 312 311 311 315 316 312 316 316 317 321 322 321 322 319 321 318 319 321 322 323 322 324 323 314 314 317 316 315 316 316 315
299 300 302 308 311 311 310 310 310 311 311 314 313 312 311 310 312 314 311 314 316 318 318 318 318 318 317 320 323 317 322 320 322 322 323 315 313 314 314 316 315 315 314 313
299 300 302 308 310 310 310 310 311 312 311 311 312 313 313 309 309 314 313 314 316 316 316 316 316 318 316 317 318 317 317 314 316 316 313 313 313 312 314 316 315 314 313 312
298 300 303 309 310 310 310 310 311 312 312 314 314 313 312 312 311 311 314 316 316 315 316 316 317 320 312 319 316 316 313 311 314 313 312 312 312 312 314 314 313 312 311 310
298 300 304 309 310 310 310 310 311 312 313 315 313 312 312 312 311 310 311 314 318 316 315 316 318 314 313 312 312 314 311 313 314 316 313 314 312 312 312 311 310 310 309 309
298 301 304 309 310 309 310 311 311 311 313 313 314 312 312 311 311 310 311 311 313 315 318 318 314 312 314 314 317 316 313 315 315 313 314 314 312 311 311 310 309 309 308 307
298 302 305 309 310 309 310 312 313 313 312 312 311 312 311 312 313 313 312 312 313 316 315 316 315 313 312 316 320 316 313 313 313 313 313 310 310 310 309 309 308 308 307 305
299 304 307 309 309 309 309 311 312 313 313 312 309 310 311 312 314 314 314 315 315 314 314 313 314 311 312 316 315 314 312 312 312 312 312 311 310 310 309 308 308 306 304 302
302 305 308 308 308 308 310 311 312 312 313 309 307 310 312 311 311 312 312 314 317 313 315 314 313 315 313 316 315 312 311 311 310 310 310 310 309 308 307 306 304 303 301 301
304 306 308 309 309 310 311 311 311 311 310 310 309 311 311 310 310 308 311 310 311 312 311 309 312 312 316 315 314 314 312 311 310 309 307 307 306 307 305 304 303 302 300 299
305 306 308 309 310 310 310 308 308 308 307 307 309 310 309 308 310 309 307 308 306 313 310 312 313 312 310 308 311 311 311 311 310 309 310 308 308 306 303 302 301 300 299 298
306 307 306 308 309 306 306 306 304 307 308 307 308 309 309 306 307 306 305 308 305 311 306 309 310 306 303 305 307 308 309 309 308 309 309 307 306 304 303 300 299 298 298 297
306 307 306 307 304 307 307 308 307 306 305 306 306 305 305 305 305 303 303 304 305 303 307 308 304 301 302 304 306 306 306 307 306 306 306 306 304 301 300 299 298 297 297 297
303 303 305 307 306 304 304 304 304 304 305 304 305 304 305 305 303 304 300 302 301 303 304 303 301 301 302 304 304 304 304 305 305 305 304 302 300 298 298 297 297 297 297 296
300 303 308 305 300 297 297 301 302 302 304 305 304 303 303 302 303 301 301 303 302 302 303 301 300 300 302 302 301 302 302 302 302 300 299 299 298 298 297 297 297 297 296 296
299 300 301 298 300 297 297 300 302 304 305 306 305 301 298 301 300 300 298 299 300 301 298 299 299 300 301 299 300 300 300 299 299 298 298 298 298 298 297 297 296 296 296 296
299 298 298 299 301 300 299 301 303 304 305 304 301 301 300 301 301 299 299 299 299 298 298 298 299 301 300 300 300 299 298 298 298 298 298 297 297 296 296 296 296 295 295 294

GFSNW_850_thetae_027.txt.gz
Theta_e
300 302 304 304 309 311 313 314 313 313 311 311 310 311 310 310 311 311 312 311 313 314 313 313 311 313 313 312 312 312 311 314 315 316 317 317 318 319 318 317 324 323 319 318
301 302 302 304 305 310 313 313 313 312 312 312 311 311 311 310 311 311 311 312 312 312 313 316 311 311 313 313 312 313 312 314 320 320 319 319 319 319 319 320 325 326 321 318
301 301 302 303 304 305 312 312 313 312 312 311 312 312 312 312 309 310 310 312 312 315 314 313 314 311 313 312 313 313 312 316 317 325 325 319 319 322 324 324 326 325 321 319
300 301 301 303 306 308 313 312 313 312 312 312 312 312 312 313 311 309 311 311 314 314 315 314 313 314 315 314 314 315 317 318 320 320 318 322 323 325 324 326 326 326 319 320
300 301 301 303 309 313 312 311 312 311 311 311 312 312 314 314 313 312 313 313 314 313 315 313 310 315 316 317 315 316 316 319 320 324 324 323 324 324 324 324 324 324 324 324
299 301 301 304 304 311 311 311 312 313 313 312 313 313 313 313 313 312 313 313 315 315 313 313 313 315 315 316 316 314 317 319 324 321 322 323 324 323 323 323 322 323 325 321
299 300 301 302 307 309 312 311 312 311 314 314 314 314 313 314 314 314 314 313 315 315 316 316 314 315 316 319 318 316 317 319 322 323 318 322 319 316 320 324 322 320 322 320
299 300 301 302 307 311 312 312 312 311 313 313 313 313 313 314 313 313 313 315 314 315 316 317 318 319 320 317 313 318 316 319 322 320 319 319 319 315 316 318 319 317 320 317
299 300 300 304 307 310 311 312 313 312 313 313 312 311 313 313 313 313 313 315 316 315 316 318 318 322 321 321 319 316 318 319 320 312 318 322 317 314 313 315 318 314 314 314
299 300 300 303 307 310 312 312 312 311 311 312 312 311 312 312 315 314 312 312 314 315 318 320 317 318 319 318 320 321 320 321 322 319 321 318 316 313 314 319 317 313 314 314
298 299 300 303 305 309 312 311 312 311 311 311 312 312 311 311 313 315 313 315 315 317 319 319 317 319 319 319 315 316 320 322 322 319 322 319 314 313 316 313 314 314 312 313
298 298 300 302 305 310 311 311 311 311 311 312 313 312 312 312 310 313 313 313 314 317 318 318 316 317 318 320 322 314 319 318 322 320 319 314 313 314 315 315 315 312 312 311
298 298 299 302 305 311 311 311 311 310 311 311 311 312 313 312 309 311 313 313 315 315 317 314 314 316 313 318 318 315 316 315 317 317 315 312 312 313 315 315 315 314 313 312
298 298 299 302 306 310 310 310 310 309 311 312 312 313 313 311 310 310 314 315 316 315 317 316 316 317 311 317 314 315 313 312 314 312 311 311 312 312 314 313 313 312 311 311
297 298 299 303 307 310 310 310 310 310 312 314 313 312 312 312 311 310 310 313 316 316 316 316 318 315 315 312 311 312 309 312 315 316 312 312 312 313 313 313 312 311 310 308
297 297 298 303 307 310 310 310 310 309 312 312 313 312 311 311 311 310 310 312 314 315 316 317 315 313 313 313 314 312 313 313 315 313 314 313 312 312 312 312 310 310 308 307
297 297 299 304 308 309 310 311 311 310 310 312 309 311 311 312 312 312 311 311 313 315 315 314 314 311 312 314 318 315 312 313 314 314 313 310 311 310 311 310 309 308 307 306
297 297 301 306 309 309 310 311 312 311 311 312 308 310 310 312 313 312 314 314 314 314 314 312 313 310 311 315 313 311 312 312 311 312 313 312 311 310 309 309 307 306 305 305
297 299 305 307 309 310 310 310 311 311 312 309 307 310 312 311 311 312 313 314 314 312 313 313 312 313 313 313 313 311 311 312 310 311 311 310 309 308 308 307 306 304 302 301
300 302 306 307 308 309 309 309 311 311 311 310 309 311 311 310 310 308 310 309 310 311 310 309 311 312 313 314 313 313 311 312 311 309 306 308 307 307 306 306 304 302 301 299
303 303 308 309 309 309 309 308 308 308 306 308 309 309 309 309 310 309 307 306 305 312 309 311 310 312 309 307 312 312 311 311 310 311 311 309 309 307 305 302 301 300 299 298
303 305 306 308 308 307 307 307 305 308 310 307 309 309 310 308 309 307 306 307 304 311 305 308 310 306 304 305 308 310 310 310 309 309 309 308 307 305 303 301 300 299 298 297
304 307 306 306 304 306 307 309 307 306 305 307 306 305 306 305 305 303 302 301 304 301 305 306 303 300 302 305 307 307 307 307 308 307 307 306 305 303 301 299 298 297 297 297
303 300 304 305 304 305 305 306 302 304 306 304 306 304 305 304 304 302 298 301 300 301 303 301 296 300 303 305 306 306 305 306 306 305 305 303 301 299 299 298 297 297 296 296
300 300 306 304 297 297 299 302 303 304 305 306 304 303 302 302 303 301 300 302 301 301 301 298 299 302 303 303 304 304 304 304 303 303 302 300 298 297 297 297 296 296 296 295
300 299 300 299 299 296 298 300 302 304 305 306 304 300 294 300 298 299 294 297 299 300 296 300 300 302 302 301 302 302 302 303 302 300 299 298 297 297 297 296 296 295 295 295
299 297 297 298 299 296 298 301 303 304 305 301 297 297 298 294 293 295 294 296 297 299 299 299 300 301 300 300 300 300 301 299 298 297 297 297 297 296 296 296 295 295 295 294

GFSNW_850_thetae_030.txt.gz
Theta_e
297 299 302 302 305 305 307 308 309 310 310 311 309 310 310 310 310 311 311 311 313 314 314 314 309 310 310 310 310 310 310 313 313 312 312 310 310 311 312 313 312 315 318 318
297 299 301 302 303 304 305 311 310 310 309 309 310 310 310 311 311 311 311 312 311 312 313 315 310 310 311 311 311 312 311 314 315 318 313 315 312 314 312 313 317 315 318 317
298 300 301 301 302 304 303 309 312 311 311 309 311 311 311 312 310 311 310 311 311 312 313 312 314 312 311 312 312 312 311 313 315 320 321 319 319 315 316 314 316 314 318 319
299 300 301 301 303 305 305 309 311 311 311 311 311 311 313 313 313 310 310 310 311 313 315 313 313 313 313 313 313 313 312 316 313 313 314 316 319 319 319 317 316 316 315 318
298 299 301 301 303 304 307 311 312 310 310 311 312 312 313 313 312 311 311 311 312 312 315 313 311 312 313 316 313 314 314 315 313 318 322 319 322 320 320 319 318 314 323 324
299 299 301 301 303 305 307 311 311 312 311 312 312 313 312 313 313 312 312 311 312 314 313 312 312 312 312 315 317 315 316 316 317 324 321 322 324 317 323 317 321 325 327 321
298 299 300 301 302 305 306 311 312 313 314 312 313 312 312 312 312 314 312 312 314 313 314 314 312 312 313 314 316 315 315 316 321 323 317 322 319 314 321 323 322 321 320 317
297 298 300 301 302 306 309 311 312 311 314 314 313 313 313 312 313 313 313 312 313 313 313 315 317 315 316 315 313 317 318 316 323 321 318 318 317 314 317 322 322 318 320 314
297 298 299 300 303 306 311 311 311 312 313 313 313 313 312 313 312 311 312 313 314 313 315 317 316 318 320 319 318 316 316 316 322 313 317 322 317 314 312 314 318 314 314 312
297 298 299 300 302 305 310 311 311 312 312 312 312 312 313 311 312 312 312 312 313 314 317 319 316 320 317 320 320 320 320 319 321 317 319 317 315 313 313 319 315 313 313 313
297 298 299 300 302 305 310 311 312 312 311 312 312 312 310 311 311 312 312 315 315 316 317 319 315 315 319 315 314 320 319 319 320 320 319 317 313 312 316 311 313 312 311 312
296 297 298 299 303 305 310 312 312 311 312 312 312 311 312 312 312 311 312 313 315 316 317 315 316 318 317 319 317 312 320 316 320 316 317 313 313 313 314 314 314 311 311 311
295 297 298 299 303 307 310 311 311 310 311 311 312 311 311 312 313 311 312 312 314 315 316 313 313 316 311 317 316 314 314 313 317 318 316 314 313 313 315 314 314 312 311 311
294 297 298 299 303 307 309 311 311 311 310 311 312 311 313 313 312 309 310 314 315 315 316 315 315 316 310 314 313 314 313 313 313 313 311 311 312 312 314 314 313 312 310 311
296 297 297 298 303 306 310 310 310 310 311 313 313 312 312 312 312 311 310 312 314 315 315 316 317 314 313 311 310 311 309 313 317 317 313 313 311 312 313 313 311 311 312 309
297 297 297 297 303 308 310 309 310 310 310 310 313 312 311 311 311 310 310 311 313 314 316 316 315 313 314 315 317 313 314 314 317 314 314 312 312 312 312 312 311 310 310 309
297 296 296 298 304 305 309 310 310 310 309 312 309 311 311 311 311 310 309 311 313 314 315 315 314 312 312 313 317 314 312 312 313 314 312 309 310 310 311 311 309 308 307 306
296 296 298 301 305 307 310 311 312 310 310 311 308 309 310 312 313 312 313 312 313 313 314 312 313 310 310 313 312 312 310 311 311 312 312 312 311 310 309 309 308 306 305 305
296 297 299 304 307 309 310 310 311 309 311 310 307 310 312 311 311 312 313 314 313 312 311 311 311 312 313 313 312 310 310 311 310 310 311 310 310 309 308 308 306 305 305 304
300 301 303 305 309 310 310 310 311 311 311 311 309 310 311 310 310 308 310 309 310 311 310 309 311 311 313 314 314 312 311 311 311 308 305 307 307 307 307 306 306 305 303 301
302 302 304 307 310 310 309 309 308 307 307 308 310 310 309 309 310 309 307 306 305 312 310 311 310 310 307 308 311 313 311 311 311 312 311 310 310 308 306 305 303 302 300 299
298 299 301 307 309 308 307 307 305 307 309 307 309 309 310 308 309 309 307 307 306 312 304 309 310 304 303 306 308 311 310 310 310 310 310 309 308 307 306 303 301 300 298 297
300 301 302 304 304 308 308 309 307 308 305 307 306 305 307 307 307 303 304 309 309 301 305 307 304 300 303 304 307 308 307 308 309 308 308 308 307 305 303 301 299 298 297 297
300 300 304 304 306 306 305 305 304 305 307 306 307 304 305 304 303 303 297 302 300 298 302 304 297 301 303 305 306 307 306 307 307 306 306 305 304 302 300 299 298 297 297 296
299 299 305 304 299 298 298 300 303 303 306 307 304 303 303 302 303 301 301 302 300 301 304 297 299 302 304 304 305 305 305 305 305 305 305 303 301 299 298 297 297 296 296 296
299 299 300 299 299 298 298 301 302 303 306 307 305 301 303 304 302 297 298 298 300 302 297 300 301 302 303 303 303 303 302 302 302 302 301 300 298 297 296 296 296 295 295 295
298 296 297 297 298 296 299 301 303 305 305 304 295 301 299 293 292 294 293 297 297 296 300 300 302 302 301 301 301 301 301 302 301 300 299 298 297 296 296 295 295 294 294 294

GFSNW_850_thetae_033.txt.gz
Theta_e
297 299 300 300 302 305 304 305 306 309 310 305 308 310 309 309 311 311 311 311 311 312 312 313 309 309 308 308 308 309 308 311 312 310 310 310 311 311 311 311 308 310 315 314
297 299 300 301 302 303 303 303 308 310 307 308 307 310 310 311 310 311 310 311 311 312 313 316 311 309 309 309 308 310 310 312 313 314 312 311 313 312 311 310 310 310 309 309
297 299 299 301 301 303 303 303 306 309 306 308 309 311 311 311 310 311 311 311 311 312 313 312 313 312 310 309 309 311 311 313 313 315 316 313 315 313 311 311 312 312 312 311
297 298 299 301 302 302 305 304 306 306 307 308 309 309 310 311 312 311 311 311 311 312 314 313 313 311 311 311 311 313 312 313 313 313 313 314 315 313 312 312 311 313 312 313
296 298 299 301 302 304 306 307 310 309 309 310 311 309 311 312 312 311 312 312 310 311 314 312 311 311 311 312 314 314 313 314 313 314 315 315 317 315 313 314 311 313 316 315
297 298 299 301 301 303 306 308 306 311 311 311 312 312 312 312 312 311 311 310 311 313 312 311 311 311 311 311 313 314 313 313 316 320 317 319 320 319 314 315 314 313 317 316
296 297 299 300 302 302 304 305 306 311 312 312 312 313 311 312 313 313 312 312 312 312 312 313 312 312 311 311 312 314 315 316 316 321 318 323 319 317 316 317 317 316 316 316
296 297 298 299 301 302 305 308 310 311 313 311 311 312 312 312 311 312 312 312 311 312 313 314 315 312 313 313 313 315 315 317 321 323 317 318 315 317 316 316 316 315 316 316
295 296 298 299 301 302 306 309 311 312 310 313 313 312 313 313 313 311 312 312 312 311 314 315 315 314 313 318 317 312 315 317 319 318 317 321 317 313 312 312 321 316 316 315
295 296 298 299 300 302 307 311 312 312 312 312 312 311 313 311 311 311 311 311 313 312 314 317 315 315 316 318 317 319 319 318 320 316 319 316 314 312 311 317 314 312 312 313
295 294 298 299 300 302 306 310 311 312 312 312 312 311 311 311 310 311 310 312 314 314 315 317 312 313 316 314 315 318 319 316 318 319 319 316 311 311 315 311 312 311 311 312
295 290 297 298 299 302 306 311 310 311 311 312 312 312 311 311 311 311 311 312 313 315 314 314 314 314 313 315 316 311 317 315 316 316 316 312 312 312 313 313 312 311 310 310
290 293 297 298 298 302 305 310 311 311 311 311 311 311 311 311 312 312 310 312 312 315 315 312 314 315 311 315 316 313 313 311 316 317 314 313 312 313 314 313 312 310 310 310
295 297 297 298 298 303 305 311 311 311 310 310 311 311 311 312 312 312 312 311 313 314 315 314 313 314 309 312 312 313 312 312 313 313 311 311 312 312 313 313 312 310 309 309
296 297 297 296 297 304 308 311 311 310 311 313 311 312 312 312 312 311 310 310 311 314 315 315 315 313 312 309 308 310 309 313 316 317 313 313 311 312 313 313 311 310 311 309
295 296 297 297 298 304 310 310 310 310 310 311 312 312 311 311 311 310 310 310 311 314 315 315 315 313 314 316 317 314 313 313 316 315 313 312 312 312 312 312 311 310 311 311
294 295 296 297 299 303 307 309 310 310 310 311 310 311 311 311 310 310 309 311 312 314 314 314 314 313 313 313 316 314 312 312 312 313 314 310 310 311 311 312 310 309 309 308
295 295 296 298 302 305 309 311 310 310 310 311 308 309 310 311 312 312 312 312 312 313 314 312 313 310 310 314 311 313 311 310 311 311 312 312 312 311 309 310 309 307 306 305
296 297 299 302 304 307 310 311 310 309 310 310 307 309 310 311 312 312 312 313 312 311 311 312 311 312 312 312 311 310 310 310 310 310 311 310 310 309 308 308 307 306 304 303
300 301 303 305 308 310 310 310 310 309 310 310 309 310 311 310 310 308 310 308 310 311 310 308 310 310 312 313 314 313 311 311 311 309 306 307 307 308 307 307 306 305 303 303
300 302 303 305 309 310 309 308 308 308 307 309 309 310 309 309 310 309 307 306 305 309 307 311 308 310 306 308 312 312 310 311 310 311 311 310 311 309 307 305 305 304 303 302
297 297 300 305 307 307 307 307 305 307 307 307 309 309 309 308 309 310 307 306 305 310 303 308 310 303 305 305 308 311 310 310 310 310 311 310 309 308 307 305 304 302 301 300
299 299 300 300 304 307 309 309 308 308 303 307 307 306 308 308 308 304 305 309 310 301 305 305 302 300 304 305 306 308 308 308 309 309 308 308 308 307 306 304 302 300 299 298
300 299 302 303 305 306 305 305 305 305 306 307 308 304 304 305 305 303 306 303 300 300 301 301 296 301 303 304 306 307 306 307 308 307 307 307 306 304 303 301 299 298 297 296
300 299 303 304 299 300 299 300 300 303 305 308 305 303 304 302 303 300 300 302 301 302 303 296 299 302 303 304 305 305 306 306 305 305 305 305 304 302 300 299 297 297 296 296
299 299 299 299 299 299 299 300 301 303 306 308 306 302 304 305 303 297 298 299 302 303 294 300 301 303 303 304 304 304 304 304 304 303 304 303 301 299 298 297 296 296 296 295
298 296 297 297 298 298 299 300 302 304 305 305 301 304 307 294 297 294 293 298 299 295 299 301 302 303 302 302 302 302 302 302 302 302 301 300 299 297 296 296 295 295 295 294

GFSNW_850_thetae_036.txt.gz
Theta_e
297 297 299 300 301 302 303 304 306 308 309 306 304 310 310 310 310 310 310 309 310 310 311 311 311 308 308 307 307 309 308 310 310 308 309 310 310 311 311 313 309 309 307 309
297 297 298 300 302 301 303 304 306 307 307 306 307 309 310 309 310 310 309 310 310 310 312 314 312 310 308 307 307 308 308 311 309 307 312 310 311 311 311 311 312 310 307 308
297 296 298 299 302 302 302 303 307 307 305 306 309 310 310 310 310 309 310 310 310 311 313 312 312 312 311 308 308 309 309 312 311 313 313 313 313 312 310 311 313 311 309 308
296 297 297 300 302 302 304 304 304 305 306 305 310 310 310 310 311 310 310 311 310 311 314 311 313 312 310 310 310 311 311 314 313 313 313 313 313 314 312 312 311 310 310 310
296 297 297 300 301 302 305 306 307 307 306 308 309 310 308 310 311 310 311 311 310 309 313 313 312 311 311 311 311 311 312 315 314 314 314 315 315 314 314 312 312 310 310 310
296 296 297 299 301 302 303 305 306 305 306 309 310 310 310 310 310 311 310 310 311 311 311 311 311 311 310 310 312 314 314 313 315 317 316 317 321 316 316 313 312 311 311 311
296 296 297 298 300 301 302 304 305 306 311 309 310 311 310 311 311 311 312 311 311 312 312 312 311 311 312 312 312 312 314 315 314 317 319 323 318 316 315 314 313 311 311 311
295 296 296 298 300 301 302 304 306 308 312 310 310 311 310 311 312 313 312 312 312 312 312 314 315 313 311 312 311 311 311 315 319 322 321 318 316 316 315 313 315 313 314 313
295 296 296 298 300 301 303 307 306 309 310 311 311 311 312 313 312 312 312 312 312 311 312 314 315 312 311 316 316 311 312 314 318 319 321 321 316 311 314 314 322 316 314 314
295 295 290 298 299 301 303 307 309 311 311 311 312 312 313 312 311 311 310 311 312 312 313 316 315 313 314 318 316 319 318 318 319 320 320 317 314 312 314 317 314 313 314 314
295 295 290 297 299 300 303 308 310 311 311 312 312 312 311 310 310 311 309 311 311 312 314 316 314 310 313 313 313 317 317 318 318 317 318 316 311 311 314 310 311 312 312 313
295 293 296 298 298 300 303 307 310 311 311 311 312 312 312 312 311 310 310 311 311 313 313 313 314 311 310 312 315 311 316 314 315 315 314 311 313 312 313 312 311 310 310 310
290 296 296 297 297 298 302 306 309 310 311 311 311 311 312 312 311 311 311 311 311 313 315 312 313 316 309 313 313 312 312 310 314 315 314 312 312 312 312 312 310 310 309 309
291 296 296 297 297 298 303 306 310 310 310 309 310 311 311 311 311 311 311 312 311 311 313 314 314 312 309 311 311 312 311 311 313 313 311 311 313 311 312 311 310 309 308 308
293 294 295 297 297 300 305 309 310 311 311 312 311 311 312 312 312 312 311 311 310 311 314 315 316 313 310 308 308 309 308 313 314 315 314 313 311 311 310 311 310 309 310 307
294 294 293 294 297 300 306 310 310 310 310 310 311 310 311 311 311 311 310 310 310 311 315 315 315 314 313 313 317 313 312 313 314 313 313 311 311 310 310 310 310 309 310 309
294 295 296 294 297 300 302 307 310 310 310 310 309 311 311 311 310 310 310 310 311 312 314 314 314 313 313 314 314 313 313 311 311 312 312 310 311 310 309 310 309 309 309 309
294 295 296 296 298 303 307 309 309 310 310 310 308 309 310 311 312 312 311 311 312 313 314 312 313 311 311 314 312 314 313 311 310 311 312 312 312 312 309 309 310 309 308 307
297 299 299 300 303 307 309 310 309 310 310 309 307 309 311 310 311 311 312 312 313 311 311 312 311 313 313 313 311 312 311 310 309 309 310 310 311 310 309 308 308 308 305 304
300 301 302 305 306 309 309 309 309 309 309 310 309 309 311 310 310 309 310 308 310 311 310 308 310 312 311 312 313 313 311 311 310 309 307 308 308 309 309 307 307 306 304 303
299 300 302 303 307 308 308 308 307 308 307 308 307 310 309 309 310 310 307 306 305 310 306 310 310 309 304 307 312 312 310 310 310 310 311 311 311 309 308 306 305 304 303 302
297 297 299 304 306 307 307 307 305 307 309 308 309 308 309 309 310 309 307 308 306 308 301 308 309 304 304 305 308 311 310 309 309 310 310 310 310 308 307 305 303 303 302 301
297 299 299 300 302 305 308 308 308 308 302 307 307 305 308 308 308 304 306 309 310 300 305 306 302 300 303 304 306 308 308 308 308 309 308 309 308 307 306 304 303 302 301 300
298 299 301 302 305 305 304 303 303 302 303 307 308 304 305 306 305 304 309 303 301 301 304 301 296 300 302 304 305 307 306 307 308 308 307 307 307 305 304 304 302 301 299 298
299 298 302 303 300 300 299 300 300 302 304 306 305 304 304 303 304 301 301 303 304 302 303 297 298 301 303 304 305 306 305 306 306 306 306 305 305 304 303 301 300 298 297 297
300 298 299 299 298 299 299 300 301 302 304 306 305 302 304 306 300 300 298 299 302 304 294 299 300 302 303 304 304 304 304 304 304 304 304 304 303 302 300 298 297 297 296 296
298 296 296 296 296 297 298 299 302 303 304 304 302 305 308 295 293 295 296 299 300 296 299 300 301 302 302 303 303 303 303 303 303 303 303 302 301 299 297 297 296 295 295 295

GFSNW_850_thetae_039.txt.gz
Theta_e
297 297 297 298 300 301 302 303 305 305 308 304 301 308 308 310 309 309 309 309 309 309 309 310 310 310 307 306 306 309 308 309 307 307 307 308 309 311 310 312 313 312 312 311
296 296 297 297 300 302 303 302 301 308 307 305 306 309 309 310 310 309 309 309 310 310 311 312 310 310 308 307 306 307 308 310 310 306 309 309 311 311 310 311 311 313 312 310
296 295 297 297 300 302 303 302 305 304 306 305 306 309 309 311 310 309 308 309 310 311 312 311 311 311 310 307 307 308 308 310 307 310 310 311 312 312 310 311 313 312 312 310
295 296 296 297 300 302 304 304 303 305 306 306 308 309 310 311 310 309 309 309 309 311 312 311 312 310 310 308 308 309 309 313 311 311 311 312 313 313 312 312 311 313 311 310
296 296 295 297 299 302 303 304 304 305 306 307 309 310 310 310 309 309 310 310 310 310 311 310 312 310 310 311 310 310 311 314 314 314 314 314 315 315 314 315 312 311 311 311
296 296 296 297 299 301 301 302 304 303 307 308 310 310 308 309 309 309 309 309 310 310 310 309 310 310 310 311 312 312 313 313 315 315 315 316 321 318 315 314 312 312 313 312
296 295 296 297 299 301 301 302 304 304 309 309 309 309 310 309 308 311 310 310 310 311 311 311 312 311 311 311 311 311 313 313 315 316 317 321 318 315 316 315 314 312 311 310
296 295 296 293 299 300 301 302 303 306 310 308 309 310 308 310 311 310 310 311 311 310 312 312 313 313 313 312 311 311 311 313 318 320 320 317 316 313 316 316 317 313 312 311
295 296 295 289 298 300 301 304 305 306 310 310 309 309 309 309 311 311 311 312 312 312 312 313 316 308 311 312 313 309 311 311 315 317 321 321 316 312 312 312 321 313 311 312
295 295 292 296 297 299 301 305 306 306 310 310 310 309 310 312 311 311 311 311 311 311 312 315 314 311 312 314 315 318 316 314 315 317 320 315 314 310 313 317 318 310 313 313
295 291 295 296 297 298 300 306 306 308 310 311 312 312 312 311 311 312 309 310 310 312 313 314 313 311 310 313 311 316 318 319 318 317 318 317 312 310 313 310 312 312 312 313
293 290 296 297 297 298 300 303 309 310 311 311 312 312 312 312 312 310 309 310 310 311 313 310 311 309 308 310 313 309 315 313 313 313 314 311 313 312 312 312 310 311 310 311
289 289 292 296 297 298 299 303 308 309 310 311 310 311 311 312 312 311 311 310 310 310 313 312 314 315 307 311 311 311 311 309 313 314 313 311 314 313 311 311 310 309 309 309
294 295 295 294 295 297 300 303 307 308 310 308 310 311 311 311 311 311 311 311 311 311 311 314 314 313 309 310 310 311 310 310 312 313 312 312 312 311 310 309 307 308 307 308
294 294 294 294 293 296 302 305 308 309 310 311 311 311 311 312 312 312 311 311 311 311 312 315 314 313 309 306 306 308 308 311 314 315 313 312 310 311 310 309 307 307 308 306
294 295 294 295 296 297 304 308 309 309 310 310 311 310 311 311 311 311 311 309 310 311 314 315 314 314 313 315 313 312 311 313 314 313 312 311 309 310 310 309 308 307 307 306
294 295 295 296 296 297 300 306 308 309 310 310 309 309 311 311 310 310 310 310 310 311 314 314 314 313 313 312 314 312 314 313 312 312 312 310 310 310 310 309 307 309 308 306
295 296 296 296 297 299 305 309 309 308 309 310 308 309 310 310 311 311 310 310 311 312 313 313 313 311 311 315 312 314 313 312 310 311 311 311 311 310 310 308 308 308 309 305
298 299 299 299 302 306 308 309 309 309 309 309 307 309 311 310 311 311 311 311 313 311 311 312 311 313 314 313 311 313 314 312 310 309 309 309 311 308 309 308 307 309 305 305
300 301 303 304 305 307 309 308 309 309 310 310 309 309 310 310 310 309 309 308 310 311 310 308 310 313 312 311 312 312 312 310 309 309 306 307 307 308 308 308 308 309 306 304
299 300 301 303 306 308 308 307 307 307 307 307 306 308 308 309 310 310 307 306 305 310 307 309 310 309 305 307 309 311 310 310 309 309 310 310 310 309 306 306 306 305 303 302
296 297 299 303 306 306 306 306 305 306 308 307 308 308 309 308 309 307 306 308 305 309 301 307 308 304 304 305 307 309 309 309 309 309 310 310 309 308 307 305 304 303 302 300
297 299 299 300 301 304 308 308 308 307 304 305 307 306 308 308 308 305 306 309 309 300 305 307 303 301 303 304 306 308 307 307 308 309 308 308 308 307 307 304 302 301 301 300
298 299 300 302 305 304 304 300 296 300 302 305 307 305 304 306 304 304 309 304 302 305 305 301 296 299 302 304 306 307 307 307 308 308 308 308 307 305 304 303 302 301 300 299
299 298 300 301 299 300 299 299 300 301 303 305 305 304 304 303 305 301 302 304 305 302 302 297 299 300 302 303 305 305 306 306 307 307 307 306 305 304 303 302 301 300 299 298
299 298 297 298 298 299 300 300 300 301 304 305 304 303 304 305 303 303 302 299 302 302 294 299 300 301 302 303 304 304 304 305 306 305 305 305 304 303 302 300 300 298 297 297
298 297 296 296 296 296 298 298 300 302 303 304 302 306 305 296 299 299 296 299 300 299 299 299 301 302 303 303 303 303 303 303 303 303 303 304 303 302 300 299 297 297 295 295

GFSNW_850_thetae_042.txt.gz
Theta_e
297 297 297 297 299 300 302 302 304 303 305 305 302 310 308 309 309 310 310 310 311 310 311 311 312 312 311 308 310 312 310 310 311 310 310 309 310 311 310 314 314 313 314 315
296 297 297 297 298 301 302 303 300 306 306 308 308 308 310 310 311 310 310 311 311 311 311 313 311 311 309 308 309 310 310 310 313 314 312 309 310 311 311 312 312 314 316 315
297 297 297 296 298 301 303 301 305 304 305 306 309 310 311 312 310 310 310 311 311 312 312 312 312 312 310 308 309 309 309 312 313 316 313 313 314 313 312 311 314 314 315 313
296 296 296 294 298 302 303 300 303 305 308 307 309 310 310 311 311 310 310 311 311 312 313 312 312 311 311 309 308 309 309 314 311 312 312 312 314 314 313 313 312 314 314 314
297 296 296 294 298 302 302 300 301 304 307 307 309 310 311 311 311 311 311 311 311 310 312 312 312 311 311 312 311 310 310 313 313 314 313 314 316 316 317 317 317 314 314 314
296 295 296 293 297 301 301 302 302 303 307 308 310 310 311 311 311 310 310 311 311 311 311 311 310 310 311 311 313 311 312 311 314 315 315 316 322 320 318 317 313 314 316 313
295 294 296 290 296 299 301 301 302 304 309 308 310 310 310 310 310 312 310 310 311 311 311 311 311 310 310 311 311 312 313 313 315 317 316 322 318 317 316 317 316 313 314 313
295 296 293 293 296 298 300 301 302 304 309 309 309 309 310 310 310 310 311 310 311 311 311 313 314 314 313 312 312 311 311 313 316 318 318 317 318 316 316 318 318 317 316 315
295 295 291 296 297 298 299 304 304 303 306 309 308 310 310 312 312 312 312 312 311 311 312 313 317 316 314 314 315 311 311 311 314 316 317 320 319 315 313 315 323 313 314 315
295 293 294 297 298 299 300 304 304 305 308 309 309 310 311 311 312 313 312 312 312 311 312 314 314 314 312 315 316 316 315 314 314 314 317 318 317 312 314 320 321 312 313 315
294 291 290 295 297 299 300 303 305 305 308 310 311 310 311 312 312 313 311 311 310 312 313 314 315 315 314 315 315 317 317 317 315 315 319 320 314 315 318 314 313 312 311 313
289 289 293 295 294 297 300 302 305 306 307 311 311 311 311 311 311 311 310 311 310 311 311 311 314 314 313 315 317 313 317 317 318 317 318 316 313 315 314 311 311 311 309 311
294 294 295 295 293 294 298 302 305 308 309 310 310 311 312 311 311 311 311 309 310 310 311 313 314 315 313 318 317 316 315 313 317 317 318 316 315 312 311 310 309 307 308 309
294 294 295 294 293 292 296 302 305 307 309 311 310 310 311 311 311 312 311 311 310 311 311 312 314 315 311 316 314 315 315 314 317 317 317 316 313 310 310 309 308 306 306 307
294 295 295 295 294 294 298 304 307 307 308 310 311 310 311 311 312 311 311 311 311 311 311 312 315 314 312 311 311 315 313 317 318 319 316 315 312 309 309 308 306 305 305 305
293 294 295 295 295 296 303 307 308 309 308 309 311 310 311 311 311 310 309 311 311 311 311 313 313 313 314 317 318 317 313 313 314 316 312 311 309 309 308 308 306 305 305 303
294 295 295 296 296 297 302 306 308 308 308 310 311 310 310 311 311 310 309 310 310 311 311 314 315 314 313 316 316 315 314 314 313 313 312 311 310 308 307 309 306 305 307 304
296 297 298 298 296 299 304 307 308 308 309 310 310 311 310 310 310 310 309 309 309 310 312 313 313 312 312 315 316 315 314 313 312 312 311 311 310 308 309 309 303 304 306 306
299 300 299 298 300 304 307 308 309 308 310 310 308 312 312 310 310 311 310 311 313 311 312 312 311 314 315 316 315 313 313 312 311 308 309 309 309 309 307 310 304 305 305 305
299 301 303 304 304 306 308 309 309 309 309 309 310 309 311 310 311 311 310 309 311 312 311 308 311 314 314 311 311 311 312 310 309 308 306 306 307 309 308 309 308 304 307 306
299 300 301 303 306 308 308 307 307 307 307 308 307 308 310 309 311 311 307 309 307 313 309 310 313 313 310 307 307 310 312 310 309 310 314 313 312 311 310 309 309 305 305 304
296 297 300 304 306 305 306 306 305 307 309 307 308 308 309 308 309 309 307 309 307 311 303 308 310 310 304 304 306 308 309 309 309 309 311 310 309 310 308 310 307 305 304 302
296 299 300 301 302 305 308 309 308 308 306 304 307 308 308 308 308 306 308 309 310 302 308 309 309 305 302 303 305 308 307 307 308 309 309 309 308 309 309 308 305 303 302 300
298 299 300 302 305 305 304 303 301 300 301 303 305 305 306 306 307 306 310 306 303 309 308 310 306 299 301 303 304 306 306 307 307 308 308 307 307 307 306 306 303 302 301 299
299 299 300 301 299 300 299 299 299 301 302 304 305 304 305 305 306 303 304 307 309 307 309 307 300 300 302 303 304 305 305 306 306 306 306 306 306 305 303 302 301 300 300 299
299 298 299 298 299 300 299 299 300 301 302 304 304 304 307 309 307 306 309 306 308 310 304 300 300 301 302 303 304 305 305 304 305 305 305 305 304 303 302 301 300 299 299 298
298 298 296 296 296 296 297 298 299 300 301 304 302 306 310 301 306 307 303 305 307 300 298 299 300 301 302 303 303 304 304 304 304 303 302 302 302 301 300 299 298 298 297 297

GFSNW_850_thetae_045.txt.gz
Theta_e
296 297 298 298 297 299 302 302 305 305 303 305 305 309 310 310 310 311 311 311 311 311 311 312 313 313 313 311 312 312 311 312 313 312 311 310 311 312 311 313 315 314 315 316
297 296 296 298 296 301 302 302 301 305 304 310 309 309 310 311 310 311 312 312 312 312 312 313 313 313 311 310 312 313 311 312 314 316 312 311 311 311 311 312 313 315 316 316
297 296 297 296 297 302 302 301 306 304 305 307 309 310 311 312 311 311 312 313 312 313 313 313 313 313 311 310 310 309 310 312 314 318 316 313 314 313 313 312 315 315 316 315
296 296 296 295 298 302 302 300 303 303 309 309 310 311 311 312 312 311 312 312 313 313 314 314 314 313 312 311 310 310 310 313 313 313 312 312 314 315 315 315 314 314 314 315
296 295 297 293 296 301 302 301 302 303 308 308 310 310 313 312 311 311 312 313 312 312 313 313 314 313 312 313 311 311 310 313 312 313 313 314 317 316 317 318 318 317 317 316
296 296 296 293 296 300 301 301 302 303 308 309 310 310 311 311 312 311 311 312 312 312 312 311 311 312 312 313 313 312 312 312 314 315 315 316 321 320 319 318 317 317 317 316
296 296 293 296 297 298 300 301 302 304 309 309 310 309 311 311 312 312 311 311 312 312 312 311 312 311 311 311 312 312 313 313 313 315 316 322 318 318 317 318 317 318 317 316
296 296 292 297 297 299 300 301 302 304 308 309 309 310 311 311 311 313 312 311 312 312 312 313 314 314 314 313 312 312 312 314 315 316 317 316 317 318 316 318 319 315 317 318
296 295 291 296 298 299 301 302 303 304 305 310 309 309 311 312 312 312 312 312 312 312 312 313 315 316 314 315 314 312 312 312 315 315 316 317 319 316 314 317 323 316 314 317
294 293 291 290 293 297 300 302 304 304 305 310 310 311 311 311 312 313 312 312 313 311 312 314 315 314 313 315 316 314 313 313 313 312 315 315 316 315 316 321 321 314 313 313
294 293 293 295 296 293 299 302 304 303 305 309 309 311 312 311 312 313 312 312 311 312 314 314 314 314 314 314 315 316 316 315 315 317 317 317 316 317 320 317 315 313 313 312
294 294 295 295 295 294 296 302 305 305 304 310 311 311 311 312 312 313 312 313 311 312 312 312 313 314 315 314 316 315 317 317 319 316 317 316 316 316 316 314 313 313 311 312
294 295 296 295 295 294 296 299 305 306 308 311 311 312 312 311 311 311 313 311 311 311 311 312 313 316 315 316 316 316 316 315 317 318 319 318 317 317 313 310 311 309 308 309
294 294 295 296 296 295 294 298 304 305 307 310 312 310 311 311 311 311 311 312 311 311 310 312 313 314 314 315 316 317 316 316 318 318 318 318 314 312 311 308 307 305 305 306
293 294 294 295 295 295 295 300 305 307 306 309 311 310 310 311 311 312 311 311 311 310 311 311 313 314 313 315 314 316 316 317 319 319 317 317 314 310 309 307 305 303 303 304
293 293 295 295 296 296 301 307 307 307 307 308 312 311 311 311 311 311 311 311 311 311 310 311 312 314 315 317 317 316 316 316 316 317 313 312 310 309 307 305 303 302 301 301
289 295 296 296 296 296 300 305 305 306 308 308 311 312 310 310 311 310 309 308 309 310 311 311 313 314 314 315 316 315 316 316 315 314 312 312 310 310 306 306 305 302 299 301
295 298 298 298 297 298 302 306 307 307 307 309 311 311 310 310 310 310 310 309 308 309 311 312 314 313 314 315 315 315 315 315 314 312 311 311 311 308 307 306 306 300 298 301
298 299 299 298 300 302 306 308 308 309 309 310 309 312 314 310 310 311 309 309 310 310 311 313 312 314 315 315 316 316 315 313 313 310 309 309 309 308 308 304 306 301 298 301
299 300 303 303 304 305 307 309 308 308 309 309 311 310 312 310 311 312 311 309 312 311 311 308 311 314 313 315 314 312 312 312 310 309 306 306 307 307 306 306 307 304 302 300
299 300 301 303 305 307 308 308 308 308 308 309 309 308 311 309 311 312 308 309 307 313 310 310 314 314 313 307 307 308 310 311 311 309 309 310 310 310 310 308 309 307 303 303
296 298 302 305 306 305 306 308 306 307 309 308 309 309 309 309 309 309 308 310 309 312 306 309 311 312 305 304 304 306 308 309 308 309 310 312 310 311 310 310 307 305 304 303
297 299 300 301 302 306 308 309 308 309 306 305 306 309 308 308 308 307 309 309 311 305 308 310 311 307 302 302 304 306 306 307 308 308 308 308 308 309 311 309 306 306 303 301
298 299 302 302 306 306 304 305 304 302 302 303 305 306 306 307 309 309 311 308 305 310 310 311 310 302 300 302 304 306 306 306 307 307 307 307 307 307 307 308 306 305 302 301
299 298 302 302 301 300 299 299 300 301 301 303 305 305 305 308 308 307 308 309 311 310 312 312 303 299 301 302 303 304 305 306 306 306 305 305 305 305 305 305 304 303 301 300
298 298 300 299 299 301 300 299 301 301 301 303 304 305 308 310 309 308 310 309 310 313 308 301 299 299 300 301 302 303 304 305 305 305 304 303 302 302 303 302 301 300 300 299
297 299 297 297 298 299 299 298 300 299 301 305 302 306 310 304 309 309 308 308 306 299 298 297 297 299 300 300 301 302 303 303 303 303 303 303 302 302 301 300 299 299 298 298

GFSNW_850_thetae_048.txt.gz
Theta_e
296 296 298 298 297 301 302 302 303 304 303 304 303 309 308 308 310 311 311 311 311 311 311 312 311 312 313 311 312 312 311 312 314 311 310 310 312 311 310 307 307 309 309 313
297 296 296 297 296 301 302 302 302 304 304 305 305 308 310 308 311 312 312 312 311 311 311 312 313 312 311 312 312 312 311 312 311 313 311 311 310 311 311 310 310 310 313 312
297 295 296 293 297 301 302 302 305 304 303 305 308 309 309 312 311 313 313 312 312 311 313 313 314 312 311 311 312 310 310 312 310 312 314 313 310 311 310 311 313 312 313 312
295 295 296 293 296 302 302 302 303 304 308 308 309 310 310 311 312 312 312 313 313 312 313 313 313 312 312 311 310 310 311 311 311 312 312 311 311 312 312 313 312 313 312 314
295 295 294 296 297 301 302 302 301 302 307 308 310 311 311 312 312 312 312 314 313 313 313 314 313 312 312 312 310 311 310 311 312 309 311 311 312 312 313 314 315 316 317 318
296 297 293 297 297 300 301 301 302 303 308 309 311 311 311 312 311 312 312 312 312 313 312 311 312 312 312 312 311 311 312 311 312 314 313 314 317 316 316 319 318 318 319 317
296 297 293 296 298 299 301 302 302 304 308 309 310 309 311 312 312 312 311 311 312 312 311 311 311 311 312 312 312 311 312 312 312 311 312 319 315 317 317 317 318 317 317 317
295 295 293 291 294 297 300 301 302 303 307 308 310 310 311 312 312 312 311 312 312 312 312 313 313 314 313 312 312 312 312 314 316 315 314 314 316 317 316 317 319 316 315 316
294 292 290 291 296 293 299 303 302 303 305 308 309 310 310 312 312 312 313 312 312 312 312 313 313 314 314 315 313 311 312 312 314 313 314 315 316 314 314 315 321 316 314 315
294 295 294 294 296 295 296 302 303 304 305 307 309 309 310 311 312 313 313 312 312 312 312 314 313 313 312 314 316 315 314 314 315 314 314 313 312 315 315 322 319 315 314 313
294 295 295 295 295 296 295 301 302 302 303 307 309 311 312 310 312 313 312 312 311 311 314 313 314 313 312 313 313 312 312 313 313 313 314 314 315 315 319 316 315 316 313 313
294 294 294 295 295 296 295 299 301 302 302 308 310 311 311 311 312 313 311 313 311 312 312 312 314 313 312 314 314 313 316 312 313 313 313 312 316 315 316 315 313 313 312 312
294 294 294 295 295 296 296 297 300 303 305 310 311 311 311 311 311 311 313 312 312 312 312 312 312 313 313 315 314 315 314 312 315 315 316 314 315 315 313 312 310 309 309 310
294 294 294 294 295 295 296 296 300 301 305 308 312 311 311 311 311 311 311 312 311 312 311 311 312 313 313 313 313 315 314 315 315 314 313 315 313 312 310 310 308 306 307 308
294 294 293 293 295 296 296 295 300 303 304 308 310 310 311 310 311 311 311 311 311 311 311 311 311 312 312 313 312 312 313 314 315 317 315 315 312 311 309 308 306 305 306 308
294 293 294 295 296 296 298 304 306 305 306 306 311 312 310 310 310 311 311 311 311 310 311 311 311 311 313 316 315 313 315 315 316 315 314 313 311 310 307 306 305 304 304 305
293 293 296 297 296 296 298 303 303 305 306 307 309 311 310 311 310 310 310 309 309 311 310 310 312 313 313 314 314 313 314 315 316 315 314 312 311 309 307 307 305 303 302 301
290 296 298 297 297 297 300 304 304 306 307 308 309 309 310 310 310 310 309 308 309 309 310 311 313 313 313 315 312 314 314 315 315 314 313 312 312 310 307 307 305 304 300 298
296 298 299 298 298 300 304 306 307 308 307 309 308 309 310 310 310 311 309 308 308 308 310 311 312 313 313 313 313 314 315 314 313 312 311 310 309 307 306 304 302 303 299 299
298 299 301 302 303 304 306 305 307 308 309 309 309 310 311 310 311 311 311 310 310 309 310 309 311 312 312 312 313 313 312 311 311 310 308 307 306 306 305 303 302 303 302 299
299 300 301 303 305 306 307 308 308 308 307 308 309 308 309 310 310 311 308 308 305 310 308 309 312 313 309 306 306 306 307 309 310 310 310 309 308 307 305 304 303 305 304 301
296 298 301 304 305 305 306 306 305 306 308 308 308 308 308 309 309 308 308 308 306 311 306 308 310 309 304 302 303 305 306 307 308 308 309 309 308 309 308 307 306 305 305 302
297 299 300 302 303 306 307 309 307 307 305 304 305 307 308 308 308 307 307 309 309 304 308 310 307 303 300 301 302 305 305 306 307 307 308 312 309 309 308 308 307 306 304 301
298 299 302 302 305 305 304 305 304 302 302 303 304 306 306 307 307 308 309 307 304 309 310 310 304 299 299 301 302 303 305 306 306 307 307 308 307 307 308 308 306 304 303 300
298 298 302 302 301 300 300 300 301 301 301 303 305 304 304 305 306 306 304 308 310 309 308 305 300 298 299 299 301 302 303 304 304 305 306 305 305 306 306 305 304 303 303 302
297 298 299 299 299 300 300 300 301 301 301 302 303 304 306 306 307 307 309 308 309 307 300 299 297 297 298 299 300 301 302 302 303 303 303 303 304 304 303 302 302 302 302 301
297 296 297 298 298 299 299 299 299 299 301 303 302 306 308 302 306 308 306 307 301 297 297 296 295 296 296 297 299 300 301 301 301 301 301 301 301 301 302 301 299 300 300 299

GFSNW_850_thetae_051.txt.gz
Theta_e
297 297 298 294 297 302 302 302 303 303 303 301 302 307 308 303 307 310 312 310 309 309 312 311 312 311 311 310 310 311 311 312 310 308 308 309 309 310 309 301 302 302 308 310
296 296 295 294 298 302 302 302 303 303 304 302 303 307 306 305 311 313 312 311 310 310 311 311 311 311 310 310 311 311 310 311 310 313 311 311 310 311 309 307 305 302 307 309
297 296 293 296 299 302 302 302 302 303 303 304 307 308 308 309 310 312 312 311 310 311 312 311 313 311 311 311 312 311 310 311 305 308 310 310 308 309 308 310 308 309 308 309
297 296 293 296 299 302 302 303 304 303 307 306 308 308 309 311 313 312 311 311 312 313 313 313 312 311 310 310 310 310 309 306 309 309 310 311 310 309 309 306 309 311 311 311
297 297 293 295 299 301 301 303 302 302 303 307 309 309 310 312 312 311 312 312 313 311 312 312 312 311 310 311 309 308 308 306 310 306 309 311 311 310 310 311 311 311 311 313
295 296 294 292 297 300 301 302 303 303 305 309 309 309 310 312 311 311 311 310 312 312 311 310 311 311 310 309 309 310 310 308 308 308 311 311 311 312 312 311 312 314 317 317
295 293 292 291 292 296 299 301 302 304 305 308 308 310 311 312 312 311 311 312 312 311 311 311 311 311 311 310 308 309 311 310 309 308 310 316 314 314 314 314 315 317 318 317
295 295 292 291 295 294 297 302 302 303 306 306 308 309 311 311 311 311 312 312 312 312 312 312 313 313 312 311 310 311 310 310 314 313 314 311 315 317 316 315 317 317 317 315
294 295 295 292 294 295 296 302 302 303 305 304 306 308 309 311 310 311 312 312 312 312 310 311 312 312 312 313 313 310 311 311 312 311 311 313 316 314 314 314 321 316 315 315
294 294 295 296 294 294 295 302 302 303 304 306 308 307 309 311 310 310 312 312 311 311 311 313 309 311 311 314 313 314 313 313 314 310 311 311 310 312 315 319 316 314 314 315
294 294 295 295 296 294 295 299 301 301 302 305 309 310 311 311 311 310 311 309 310 310 310 312 313 311 310 312 311 311 311 311 312 312 314 310 311 314 317 314 315 315 314 313
295 294 294 295 295 296 296 297 300 300 301 306 309 309 311 311 311 313 312 312 310 311 312 311 313 310 309 311 312 309 313 309 311 310 310 308 312 314 314 314 313 312 312 312
296 294 294 294 294 295 295 296 299 301 302 307 310 310 311 311 311 311 312 312 311 311 312 310 310 313 310 313 311 311 311 309 312 312 314 311 312 313 312 312 310 310 309 311
295 294 293 294 293 295 295 295 298 299 302 305 311 311 311 311 311 311 311 312 311 311 311 310 311 313 311 312 310 311 312 311 312 313 312 312 312 312 311 310 309 307 308 308
294 294 294 293 294 296 296 294 296 300 301 306 308 309 310 310 311 311 311 311 311 311 311 311 312 311 311 308 309 309 311 311 314 315 314 314 313 312 311 309 307 306 307 308
294 293 293 295 295 296 297 303 304 303 301 305 309 311 311 310 310 310 311 311 311 311 310 311 310 311 312 313 314 311 312 313 313 313 315 314 313 311 310 309 307 306 307 309
290 292 295 296 296 296 299 302 302 303 304 305 308 309 311 310 310 310 309 310 310 311 310 310 311 311 311 312 313 311 313 312 313 314 314 312 312 312 310 308 308 306 306 305
290 296 297 297 297 296 299 302 302 303 305 306 308 307 307 310 310 309 310 309 309 309 309 310 311 310 310 312 310 312 313 314 314 314 314 314 313 311 308 307 305 305 303 303
297 297 298 297 296 298 302 304 304 305 305 307 307 307 308 310 310 310 309 308 308 307 309 310 311 311 312 312 311 313 312 313 312 312 311 310 310 309 307 306 303 303 300 300
298 299 300 301 301 304 304 306 306 306 307 307 309 309 307 310 311 310 310 309 309 309 309 309 310 311 311 306 305 306 308 310 311 311 309 308 307 306 305 303 303 302 300 299
298 299 300 302 303 305 305 306 307 307 307 308 309 309 308 310 309 310 309 307 305 309 308 309 309 312 306 301 302 303 305 306 307 309 309 310 309 308 305 303 301 300 300 299
296 297 300 303 304 304 305 306 304 306 308 307 308 308 308 309 309 308 308 306 304 310 305 308 309 305 299 300 301 303 304 305 306 308 309 309 308 307 305 304 303 302 301 300
297 299 299 302 302 305 307 308 306 307 305 304 305 306 308 308 308 307 306 308 309 304 307 309 306 299 298 299 300 302 304 304 305 306 307 309 309 307 307 307 306 304 301 302
298 298 298 301 304 303 304 303 302 302 302 303 304 305 306 307 306 307 309 307 304 308 309 309 301 297 297 298 299 300 301 303 303 305 306 309 308 309 308 308 309 308 303 303
297 298 300 301 300 300 300 300 301 301 302 303 304 304 303 303 305 305 304 307 308 308 307 302 297 296 296 297 298 299 300 301 302 304 304 306 306 307 308 307 306 304 303 303
296 297 299 299 299 300 300 300 301 301 301 302 303 303 305 304 305 306 307 307 308 305 297 296 295 295 296 297 298 299 300 301 302 302 303 303 303 304 305 304 303 302 302 302
296 295 297 297 298 299 299 299 299 299 300 302 301 306 307 301 305 307 304 305 298 294 295 295 295 296 296 297 298 299 300 300 300 301 301 301 301 301 301 302 301 301 300 300

GFSNW_850_thetae_054.txt.gz
Theta_e
298 297 295 297 301 302 301 301 303 303 303 300 301 305 307 303 305 310 312 309 310 310 309 310 310 310 310 309 308 310 310 308 311 312 309 309 309 309 306 301 300 298 307 307
298 298 294 296 301 302 301 302 303 303 303 304 304 305 306 304 309 312 313 310 309 309 309 311 310 309 310 309 309 310 309 309 308 310 309 310 309 309 308 304 302 300 304 307
298 298 295 294 300 302 302 302 301 303 303 304 306 306 306 310 309 311 311 309 309 309 311 310 310 311 311 310 310 310 310 308 304 307 307 307 305 309 308 308 304 305 305 307
296 296 294 293 299 302 302 302 303 303 305 306 307 308 310 313 313 310 310 310 311 312 313 311 311 310 311 310 311 310 308 306 306 307 309 310 310 308 307 307 309 306 309 308
296 292 293 292 297 301 302 303 303 302 304 307 308 309 311 312 311 311 311 312 312 311 312 311 312 310 309 310 308 310 307 305 308 305 308 309 309 310 309 308 308 309 309 309
296 294 292 295 296 300 301 301 302 302 305 306 309 309 310 311 311 311 311 312 312 311 310 309 310 310 309 308 308 308 309 306 308 307 309 310 309 310 310 309 308 311 312 311
295 295 294 295 297 296 301 301 302 303 303 305 307 309 309 311 310 311 311 311 311 311 310 311 311 310 309 308 307 308 308 309 308 307 309 314 311 311 310 310 310 311 314 316
295 295 297 295 296 295 300 302 302 303 303 304 306 307 310 310 311 311 311 312 312 312 311 310 311 311 311 311 309 310 308 308 312 312 310 309 314 316 315 315 315 314 317 316
296 295 294 296 296 295 298 302 302 302 304 302 305 306 309 310 309 309 312 312 311 311 309 310 311 312 312 313 312 310 311 311 310 312 308 311 314 314 314 314 317 314 316 315
296 295 294 295 296 295 296 302 302 302 303 305 307 306 309 311 309 308 310 311 310 310 308 310 307 311 311 313 312 314 314 314 314 311 312 308 308 309 315 317 314 314 315 314
296 295 294 294 296 296 296 298 302 302 301 304 307 309 311 311 310 308 310 308 309 308 308 311 311 309 309 310 311 312 311 312 313 311 312 309 309 313 317 313 314 314 314 313
295 296 294 294 294 294 295 296 301 301 301 304 307 309 310 311 311 312 311 311 309 311 311 310 312 311 308 309 310 308 311 307 307 308 308 307 310 311 313 313 312 312 312 312
295 296 294 294 294 294 295 296 297 301 301 304 307 309 309 310 311 311 311 311 311 311 311 310 309 310 308 313 309 309 308 308 310 311 312 309 312 313 312 312 310 309 309 311
296 296 294 294 294 292 295 295 296 299 301 303 309 311 311 312 311 311 311 312 311 310 310 310 311 312 309 309 309 310 310 309 310 310 311 313 312 312 312 311 309 308 307 309
294 295 294 295 293 294 295 296 295 297 301 304 306 309 309 310 311 310 311 311 311 311 310 310 311 311 310 307 307 307 309 309 311 312 314 315 314 314 313 311 309 307 307 307
295 294 293 293 294 295 295 300 298 296 300 302 307 309 311 311 310 310 310 310 311 311 311 311 310 310 310 312 313 310 310 311 312 311 313 313 313 314 313 311 309 308 308 309
291 289 294 295 295 296 296 300 301 302 302 303 307 308 311 310 310 309 309 309 310 311 311 310 310 310 311 311 310 310 311 310 311 313 313 312 314 314 312 311 310 308 307 308
289 296 296 296 296 296 297 300 300 302 304 305 307 307 306 309 310 310 310 310 309 309 310 310 310 310 310 312 308 310 311 312 313 313 312 312 312 312 311 309 308 306 305 305
297 297 296 296 296 297 300 301 303 303 304 305 307 307 303 309 310 310 309 308 308 306 308 309 310 311 312 307 305 305 306 306 308 311 311 311 310 310 309 307 305 304 303 302
298 299 299 299 298 301 302 303 304 304 305 305 308 308 307 309 310 310 310 308 308 307 308 309 310 309 304 301 300 301 302 303 305 307 309 310 309 309 308 307 305 303 302 300
298 299 300 300 301 303 304 305 305 305 306 307 308 308 309 309 308 310 309 306 304 309 307 308 308 310 301 299 300 301 303 304 305 305 307 309 309 309 308 305 303 302 301 300
296 298 300 301 302 303 303 304 304 306 307 307 308 307 307 308 309 308 307 306 303 309 304 307 309 305 298 298 299 301 302 303 304 305 306 308 309 309 308 305 304 302 301 299
297 298 299 300 302 303 304 306 306 306 305 305 305 305 307 308 307 307 306 307 309 304 307 309 305 298 297 297 297 300 302 303 303 305 306 307 308 308 306 306 304 303 302 300
298 298 299 300 303 303 304 304 303 302 302 303 304 305 305 307 306 306 308 307 304 307 308 308 299 296 295 296 297 299 301 302 303 303 305 308 309 307 305 305 305 306 306 304
297 298 299 300 300 300 300 300 301 301 302 303 304 303 303 302 305 304 304 307 307 307 307 299 296 295 295 296 297 298 300 302 302 302 304 305 306 306 306 305 306 306 302 302
296 296 298 298 298 299 299 299 300 301 301 302 304 303 304 305 304 306 307 306 307 303 297 295 295 296 295 296 296 297 298 299 301 301 301 303 304 304 304 305 307 306 304 303
295 294 296 296 297 298 299 299 299 300 300 302 301 305 307 302 305 306 303 304 299 295 295 295 296 296 296 296 297 297 298 299 300 300 300 300 301 301 301 302 304 304 304 304

GFSNW_850_thetae_057.txt.gz
Theta_e
298 298 298 293 301 302 302 302 296 303 303 300 300 303 305 303 306 309 311 309 309 309 310 310 310 310 309 308 308 309 309 308 314 313 309 308 308 308 305 302 302 298 305 305
296 296 296 292 300 301 301 302 302 302 303 302 304 306 307 306 309 311 312 309 309 309 309 310 309 308 308 308 308 309 308 306 303 311 310 309 309 308 304 302 299 297 302 305
296 295 293 292 300 302 302 302 299 302 304 304 306 306 309 311 308 308 309 308 308 309 310 308 310 310 310 308 309 310 308 306 303 306 307 306 304 308 306 308 304 304 304 305
296 296 295 292 299 301 302 302 301 303 305 304 307 309 311 311 310 309 309 310 310 311 311 310 310 310 309 309 312 309 307 306 305 307 308 309 307 308 307 306 307 304 307 307
296 296 295 293 298 301 301 302 302 303 304 307 307 309 310 312 311 310 311 311 310 310 311 311 310 309 309 310 308 309 306 305 306 304 307 308 309 309 307 308 308 308 309 309
296 295 297 294 296 300 301 301 302 302 303 302 308 308 309 310 310 311 311 311 310 310 309 309 309 309 308 308 307 308 309 305 306 304 307 309 309 309 309 308 307 309 310 310
296 295 296 296 294 298 300 301 302 302 302 302 304 306 309 310 310 311 311 311 310 311 310 310 310 309 308 307 306 307 306 307 309 308 307 314 309 308 308 309 309 308 310 311
296 296 295 296 297 294 300 301 302 302 303 302 304 306 309 309 310 310 311 311 311 311 311 309 310 311 311 311 308 308 306 307 311 313 310 307 313 314 309 310 314 310 310 312
296 296 295 295 297 295 298 301 302 302 303 301 304 306 307 308 307 308 311 311 310 310 308 309 310 312 311 313 312 310 309 310 309 311 310 310 310 312 313 312 316 313 314 315
296 296 296 294 295 295 296 301 301 302 303 304 305 306 307 310 307 307 308 310 310 309 307 309 307 311 311 313 313 313 313 314 314 310 311 307 306 307 314 315 314 314 314 314
296 295 295 295 295 295 295 297 300 301 302 304 304 306 309 310 310 308 309 307 308 306 307 308 309 308 308 309 309 311 311 312 313 312 311 308 307 313 316 312 313 313 313 314
295 296 296 295 294 295 295 295 298 299 300 303 305 306 308 310 311 311 310 309 309 310 311 309 311 311 308 307 310 307 311 307 307 307 307 306 308 312 311 311 312 311 311 311
296 296 295 296 294 295 293 296 296 298 300 303 305 307 308 309 310 310 310 311 311 310 311 309 309 309 306 311 311 308 307 307 308 309 310 308 309 312 312 311 311 310 309 309
296 295 295 295 294 295 293 293 296 297 299 301 307 309 311 311 310 310 311 311 311 310 310 309 310 311 307 307 306 308 308 307 310 310 308 311 312 314 313 313 311 309 308 308
296 295 295 295 295 294 294 294 296 296 298 301 305 308 310 310 311 310 311 311 311 310 310 310 311 310 309 308 306 305 307 307 308 309 311 311 312 313 313 312 311 309 308 308
295 296 295 293 294 294 295 295 295 296 297 299 307 308 310 310 309 310 310 310 310 311 311 311 310 310 310 311 312 309 309 310 309 310 311 312 312 312 313 312 310 310 309 309
295 293 293 295 294 294 295 297 299 298 296 300 306 307 309 310 310 310 309 309 310 310 310 310 310 310 310 311 310 308 309 310 311 311 312 312 312 312 311 310 310 309 309 309
290 293 296 296 296 295 295 296 298 298 299 302 306 307 305 309 309 309 310 309 310 309 309 310 310 309 310 311 308 307 306 308 310 310 310 309 310 311 311 310 309 308 307 308
290 297 297 295 296 296 297 300 300 299 301 304 306 307 302 309 310 310 309 309 309 307 309 309 310 311 310 304 301 301 301 302 303 305 307 309 308 309 309 308 307 306 305 305
294 298 298 298 297 298 300 300 301 300 303 303 306 307 306 309 310 309 310 308 307 307 308 308 310 309 302 300 299 300 301 302 303 304 305 306 309 309 309 309 307 305 304 304
297 298 299 300 300 300 301 303 304 303 305 305 306 308 308 308 308 309 308 306 303 308 307 308 308 310 301 298 299 300 301 302 303 303 304 305 305 307 308 308 307 305 303 302
296 297 299 301 301 301 303 305 304 305 305 306 308 308 307 307 308 308 307 306 303 308 303 306 307 303 297 297 297 299 300 301 302 302 304 305 306 307 308 308 306 303 302 301
297 298 299 300 301 303 304 305 305 305 304 305 305 305 307 307 308 307 306 307 308 303 306 308 304 297 296 296 297 299 300 301 302 303 304 306 306 307 307 306 304 303 303 301
297 298 298 300 302 303 303 303 302 301 302 303 304 305 305 306 306 306 308 307 304 307 308 306 298 295 295 296 297 298 299 300 300 301 303 305 306 305 304 303 303 303 302 302
297 297 295 295 299 300 300 300 301 301 302 303 304 303 303 303 304 304 304 306 307 307 305 298 295 295 296 296 297 298 299 299 300 301 301 302 303 304 305 305 305 304 304 303
296 296 297 298 297 297 299 299 300 300 301 302 303 303 304 305 304 305 307 306 306 302 297 295 295 296 296 295 296 297 299 300 299 298 300 301 302 303 304 304 304 305 304 302
294 294 295 296 296 297 299 299 299 300 300 302 301 305 302 301 305 306 303 304 298 296 296 296 296 296 295 294 295 296 297 297 298 298 300 301 300 301 302 302 303 304 305 302

GFSNW_850_thetae_060.txt.gz
Theta_e
296 298 293 292 300 301 302 302 295 302 303 301 300 306 307 304 307 308 308 308 308 308 309 309 309 309 309 308 308 309 308 310 313 312 308 307 308 308 304 303 303 301 303 306
297 297 293 293 300 301 302 301 302 303 304 306 306 306 308 307 309 309 309 309 309 308 308 309 308 308 307 308 308 309 308 305 309 312 310 308 309 307 303 301 299 304 303 304
297 296 295 292 300 301 302 302 300 303 304 304 307 308 309 309 308 308 307 307 308 309 309 308 309 310 309 308 309 309 307 304 304 307 307 306 304 308 304 303 301 303 302 304
297 295 296 292 300 301 302 302 301 303 306 307 307 309 310 310 310 309 309 310 310 310 310 310 310 309 309 309 311 307 307 306 305 306 308 308 307 308 306 304 304 304 305 304
297 296 295 296 299 301 301 302 302 302 303 304 306 308 309 310 310 309 310 310 309 309 310 310 310 308 308 310 307 308 305 304 305 304 307 307 308 308 307 307 307 306 307 308
297 297 295 296 296 300 301 301 302 302 302 301 305 305 308 309 310 311 310 310 309 309 308 307 308 308 307 307 307 307 307 305 304 304 306 308 308 308 308 307 306 308 308 309
297 296 295 295 296 297 300 301 301 302 301 301 304 305 308 310 310 311 310 310 310 310 309 309 309 308 307 306 305 306 306 307 306 308 307 313 308 306 308 308 308 306 308 309
297 296 296 294 296 295 299 301 301 302 303 301 305 304 307 308 309 310 310 311 310 311 310 309 311 311 310 310 307 307 307 308 311 311 310 307 312 311 308 310 314 307 308 309
297 296 295 296 295 296 297 301 301 302 302 301 303 303 305 306 306 307 310 311 310 310 307 308 310 311 310 312 311 309 309 308 307 310 310 310 308 311 310 312 319 312 310 310
297 296 295 296 296 295 295 299 301 302 303 303 304 304 305 309 306 306 307 310 309 309 306 308 307 312 310 312 313 310 312 311 311 310 311 306 305 307 310 317 314 313 313 313
297 295 295 296 295 294 295 295 298 300 300 302 303 304 307 308 309 307 308 306 307 305 307 307 306 307 308 309 309 311 311 311 312 311 311 308 306 313 315 313 312 312 312 312
296 296 295 295 296 295 295 293 296 297 298 301 302 304 305 306 309 310 309 308 308 308 309 307 309 310 307 306 309 306 310 306 309 307 307 305 307 311 311 309 310 311 311 310
295 296 295 295 295 295 295 295 294 296 298 301 303 306 306 307 309 309 309 310 310 310 310 309 309 308 305 308 308 307 306 305 308 308 309 306 310 311 311 312 311 311 310 309
295 295 295 295 295 295 295 294 292 295 297 299 304 308 309 309 309 310 310 311 311 310 310 309 309 310 306 305 305 306 307 306 308 308 307 311 312 312 314 312 312 310 309 309
294 295 295 295 295 294 293 293 293 294 296 299 302 306 308 309 311 311 311 311 310 310 309 310 310 309 309 307 304 304 306 306 307 308 308 310 310 312 312 312 312 311 310 309
294 295 295 294 293 294 294 295 296 294 295 297 304 306 308 309 309 310 310 310 310 310 310 311 310 309 309 307 309 308 308 308 308 308 309 309 311 312 312 311 311 310 310 309
293 296 292 295 295 294 294 295 297 296 295 297 303 306 308 310 310 309 309 310 310 310 310 310 310 310 310 310 310 307 308 308 308 309 310 311 311 310 310 310 309 309 309 309
295 290 295 295 297 297 295 294 294 297 297 298 303 307 306 309 309 309 309 309 309 309 309 310 310 309 309 310 308 306 305 307 307 308 306 306 308 309 309 309 309 308 308 308
291 292 297 296 295 295 296 297 298 297 297 299 305 307 306 308 310 309 309 309 309 307 308 309 309 310 310 306 302 301 302 301 301 304 306 306 305 308 309 308 307 307 307 306
290 296 297 297 297 296 298 299 298 298 299 299 305 306 305 308 309 309 309 308 307 307 307 307 309 309 301 300 299 299 300 300 301 301 303 304 305 305 306 308 307 308 307 305
296 298 298 299 299 300 300 300 302 301 304 304 305 306 307 308 307 308 308 306 303 308 308 309 308 309 302 298 298 298 299 300 301 301 301 303 303 304 305 305 307 308 307 305
296 296 297 299 300 300 302 304 302 303 305 305 307 307 307 307 308 307 306 305 303 308 303 306 308 302 297 296 297 298 299 300 301 301 301 302 304 305 305 306 306 307 307 303
296 297 298 299 300 302 304 302 304 305 303 304 305 306 306 307 307 307 305 307 307 302 306 307 303 297 296 296 297 298 299 299 300 301 301 303 305 305 305 306 306 306 304 302
297 298 298 299 299 302 303 303 297 301 302 303 304 304 305 306 306 306 307 307 304 305 301 302 298 296 295 296 296 298 298 298 299 300 300 301 303 302 302 303 303 303 302 302
296 297 297 296 298 299 300 300 301 301 302 302 303 303 303 303 304 304 304 306 307 305 304 296 296 296 295 295 296 297 298 298 298 299 300 301 301 301 302 302 302 301 301 301
295 296 296 297 297 296 298 298 300 300 300 301 302 302 304 303 303 305 306 305 304 299 296 296 296 296 295 295 296 297 298 298 299 299 299 299 300 301 301 302 302 302 303 302
294 294 295 296 296 296 297 298 299 299 299 301 300 304 303 302 304 305 303 303 294 297 296 297 297 296 296 294 294 295 296 297 298 299 297 297 297 299 300 300 300 302 303 302

GFSNW_850_thetae_063.txt.gz
Theta_e
299 296 297 296 299 302 302 302 298 305 306 305 302 307 307 306 308 308 308 308 308 308 308 308 308 309 309 308 308 309 307 309 313 312 307 307 307 307 304 305 306 303 305 307
298 296 296 296 300 301 302 302 302 305 306 308 307 307 309 308 308 307 308 308 308 306 307 309 307 308 307 308 308 308 307 306 311 312 309 308 309 307 304 302 302 305 306 307
298 297 295 294 300 301 302 302 300 304 306 305 308 309 304 308 308 308 307 307 307 308 308 307 308 310 308 308 310 308 306 304 306 309 308 307 305 307 304 304 307 305 304 304
298 297 295 295 300 301 302 302 301 303 305 303 305 306 307 309 309 308 308 309 308 309 309 309 309 308 308 308 309 307 306 307 305 306 308 307 307 308 305 303 304 307 306 304
297 296 295 295 299 301 302 302 302 302 302 302 303 306 308 309 309 308 309 309 308 308 310 309 309 307 307 308 307 307 305 307 305 305 307 307 308 307 307 306 307 305 305 307
297 296 296 295 297 300 301 301 301 302 302 299 304 307 307 308 309 310 310 309 308 308 307 307 307 307 306 306 307 306 306 305 304 305 306 308 309 308 307 307 306 308 309 309
297 296 296 294 296 298 300 300 301 302 303 304 305 304 306 308 309 311 310 310 309 309 308 308 308 308 306 306 305 305 305 306 306 308 306 312 307 306 307 307 307 306 307 309
298 297 296 295 294 295 299 300 301 301 302 300 305 304 305 306 308 309 310 310 310 310 309 309 311 310 309 309 308 306 307 309 310 310 309 307 313 309 307 309 313 307 307 308
297 296 296 296 295 294 296 300 301 301 302 300 303 303 304 305 304 305 309 309 309 309 306 307 309 309 309 312 311 309 309 307 306 306 307 310 307 311 309 309 319 313 308 311
296 297 295 296 296 295 293 298 299 301 302 302 303 304 305 308 305 304 306 309 309 308 306 309 307 311 310 311 312 311 311 311 309 308 306 307 304 306 308 316 316 312 312 312
295 297 296 295 296 296 294 294 298 298 299 301 302 302 304 308 307 305 307 305 306 304 306 306 307 307 310 309 309 310 310 310 311 310 307 307 305 310 315 314 311 310 310 311
293 295 296 295 294 295 294 294 293 294 297 298 301 301 303 304 305 308 309 307 308 307 305 304 307 310 307 306 310 306 310 305 308 306 307 305 307 309 310 310 309 310 310 309
294 295 296 296 295 295 295 294 294 292 295 298 299 302 305 305 307 307 307 309 310 310 310 308 308 307 304 307 309 307 306 305 307 308 308 305 308 310 310 312 311 311 309 308
293 295 295 296 294 295 295 295 294 293 295 297 301 306 307 307 307 308 308 310 311 310 310 309 309 308 305 304 304 305 305 304 306 306 306 309 311 311 312 315 312 312 310 308
294 292 294 295 295 295 294 294 294 293 294 298 298 302 306 308 309 309 309 309 310 310 309 309 309 309 307 303 302 306 304 305 306 307 308 308 309 310 310 311 312 311 310 309
295 295 291 295 294 294 295 294 296 294 293 296 300 305 307 307 308 310 310 310 310 310 310 310 310 309 308 305 305 305 307 307 307 307 308 309 310 310 310 311 310 310 309 308
296 293 294 293 294 295 295 294 296 296 294 295 299 304 306 308 308 310 310 310 310 310 310 310 310 310 309 309 308 306 307 307 307 308 309 309 309 309 309 310 310 309 308 308
296 293 290 295 296 296 297 295 294 294 294 296 300 305 305 308 309 309 309 309 309 309 309 309 310 309 309 310 309 306 305 306 306 306 306 305 305 306 308 308 308 308 308 308
296 291 293 296 295 295 295 296 295 296 296 296 301 305 306 308 309 309 309 309 309 307 309 309 309 309 310 308 304 303 302 302 302 304 304 304 304 305 305 307 308 308 308 308
294 292 297 296 296 295 296 298 297 297 297 297 301 305 306 308 308 308 309 308 308 308 307 307 309 310 301 301 300 300 301 301 300 300 301 302 303 303 304 305 306 307 307 307
293 297 297 298 298 299 299 299 299 298 301 301 303 305 307 307 308 309 307 307 304 308 307 309 308 310 302 299 299 298 298 299 300 299 299 300 300 302 303 304 305 306 306 307
294 296 296 297 299 300 300 302 302 302 303 304 306 306 306 307 308 305 306 305 302 307 303 306 307 303 297 297 297 298 299 299 300 300 300 301 302 303 304 305 305 306 305 306
295 296 297 298 299 301 303 302 305 305 303 303 304 305 306 305 307 306 305 306 307 302 306 306 301 298 297 296 297 298 299 299 299 299 300 300 301 302 302 303 304 305 306 306
296 297 298 299 299 302 301 302 298 301 301 303 304 305 305 305 305 305 307 307 304 307 305 304 298 297 296 296 297 298 298 298 298 298 298 299 300 301 300 300 301 302 302 302
297 296 296 297 298 298 299 299 300 301 301 302 303 303 303 303 304 304 306 307 307 306 303 296 297 296 295 296 297 297 298 298 297 297 298 299 300 300 300 301 300 299 299 300
294 295 296 296 296 297 297 298 299 300 300 300 301 302 303 304 304 305 304 305 304 302 297 297 297 296 294 294 296 297 298 298 298 298 299 299 299 299 299 300 300 300 300 300
293 293 294 295 296 296 296 297 299 298 299 300 300 302 303 301 303 303 297 299 296 299 298 297 298 297 296 294 293 293 293 293 295 297 298 299 298 297 297 298 299 299 300 299

GFSNW_850_thetae_066.txt.gz
Theta_e
299 298 296 296 300 302 304 304 311 306 307 309 306 310 308 307 309 308 309 310 311 311 311 311 311 312 311 309 310 312 311 313 315 314 309 309 310 312 311 316 313 310 312 311
300 297 296 296 300 302 302 303 304 307 307 309 309 310 310 309 310 309 310 310 310 309 310 312 310 310 308 308 310 311 311 312 313 313 311 310 312 311 308 308 310 313 314 311
298 296 296 295 300 302 302 303 308 306 307 306 307 309 311 311 309 310 309 309 310 310 311 310 311 311 310 309 310 308 309 310 313 314 312 312 313 311 309 313 315 312 313 310
298 297 296 294 300 302 302 303 303 303 307 309 307 310 311 312 312 310 310 311 311 310 311 311 311 310 310 310 309 309 310 312 309 309 310 310 310 311 309 309 311 316 311 310
298 297 295 294 299 301 302 302 303 303 305 304 309 310 311 312 312 312 312 311 310 311 311 310 311 310 310 311 310 310 309 312 310 310 309 309 311 310 310 309 310 310 310 311
297 297 297 295 297 300 300 301 302 302 304 307 310 308 308 311 311 311 311 310 311 311 309 308 309 308 308 309 310 310 310 311 312 313 309 310 313 311 310 310 309 310 312 312
297 298 296 296 295 298 300 300 301 303 307 307 306 307 307 309 311 312 311 310 311 308 308 308 309 309 309 309 308 308 310 311 311 312 310 315 310 308 309 310 310 309 310 310
296 297 295 295 296 295 298 300 301 301 304 304 306 305 307 308 309 311 311 310 309 310 309 311 312 311 311 311 310 309 310 311 312 313 312 311 314 310 310 312 317 311 310 310
293 297 296 294 296 294 295 299 300 301 302 305 303 305 305 309 310 310 310 309 309 309 310 311 311 312 310 312 312 310 309 310 310 311 312 312 312 312 311 311 320 314 310 311
292 295 296 295 295 296 293 297 297 300 301 302 302 304 307 307 308 309 308 309 309 308 311 312 313 312 311 311 311 311 312 312 311 311 312 310 308 307 308 318 319 314 312 312
292 292 296 296 294 296 295 294 294 296 297 298 301 302 304 306 307 309 308 309 308 309 311 311 312 312 312 312 311 311 311 312 312 311 311 312 307 311 315 315 312 310 310 311
293 293 294 297 296 295 295 295 293 293 293 296 299 300 302 302 304 305 308 308 309 309 311 310 310 310 310 311 312 308 312 310 310 310 311 308 307 311 310 310 310 310 310 310
294 293 295 296 295 296 294 295 294 294 294 295 297 297 297 300 303 303 306 308 309 309 310 310 311 310 310 310 311 310 310 307 310 311 311 309 309 310 310 310 312 311 311 309
295 293 295 295 295 294 295 295 295 293 293 295 298 302 304 306 305 305 307 308 310 310 309 310 311 310 307 310 309 310 310 308 311 311 310 310 310 310 311 310 313 313 311 309
294 293 295 295 295 295 295 295 294 294 294 296 297 298 303 305 306 306 306 307 307 310 310 311 311 310 309 308 307 309 307 310 310 310 310 311 311 310 309 310 310 312 311 310
294 293 296 294 295 295 295 294 295 296 295 293 296 300 303 306 307 309 309 309 307 309 310 311 310 309 310 310 310 308 307 307 308 310 308 308 309 309 309 309 309 309 309 309
294 293 296 295 294 293 295 294 294 295 293 293 296 300 304 306 307 308 308 308 309 309 309 310 310 310 310 310 310 308 307 307 307 308 308 308 308 309 308 309 309 309 308 308
295 294 296 293 293 295 296 296 296 295 293 294 297 301 305 306 308 308 308 309 308 309 309 309 310 309 309 310 309 307 306 306 305 306 307 306 306 307 307 306 308 308 308 308
294 296 293 293 296 295 295 295 296 295 295 296 299 304 308 306 308 308 309 308 309 307 309 309 310 309 311 309 309 308 303 304 305 304 304 303 304 304 305 305 305 306 308 307
295 294 295 296 295 295 296 297 296 296 296 295 298 301 304 304 308 308 308 308 309 308 307 308 309 310 307 304 303 302 302 302 302 302 302 301 302 302 303 304 304 304 305 307
295 295 296 297 297 297 298 299 298 297 300 297 299 303 304 305 304 307 306 306 305 309 308 309 309 308 303 299 300 300 299 299 300 300 299 300 300 300 301 303 304 304 305 305
293 296 297 297 298 298 300 302 301 301 303 304 305 305 304 305 307 308 306 306 304 308 305 307 308 305 297 297 297 298 299 299 300 299 300 300 300 301 301 302 303 304 304 305
291 293 297 297 298 301 301 303 305 305 303 303 303 302 306 305 307 306 305 306 308 302 307 307 306 299 297 297 297 298 299 299 299 298 299 299 299 300 300 301 301 302 304 305
296 297 298 298 300 301 302 303 301 301 301 301 301 305 305 305 305 305 307 307 303 309 308 308 302 298 297 297 298 298 298 298 298 298 298 298 299 300 300 300 299 299 301 302
297 297 297 298 298 298 298 299 299 300 300 301 302 303 303 304 305 303 305 308 308 307 307 305 298 297 297 297 297 298 298 298 298 297 297 297 298 298 298 299 299 299 298 298
294 295 296 295 296 298 297 298 298 299 300 300 300 303 304 304 304 306 305 307 308 308 303 299 298 297 296 298 298 298 296 294 295 297 297 297 298 298 298 298 298 299 299 299
292 293 293 294 295 296 296 297 298 298 298 301 300 303 304 302 304 304 304 306 305 301 300 300 298 297 295 294 294 293 292 292 291 291 294 295 297 298 298 299 298 298 298 299

GFSNW_850_thetae_069.txt.gz
Theta_e
299 296 295 294 299 303 306 306 313 307 308 309 308 312 311 308 311 309 311 311 312 313 313 313 314 314 314 310 311 313 313 315 315 315 311 311 312 315 315 318 317 314 316 312
298 295 293 294 300 302 304 306 308 308 310 311 312 312 312 311 312 311 312 312 312 312 312 313 313 313 310 310 312 313 313 315 315 314 313 312 313 313 312 311 314 316 316 312
297 295 293 293 300 302 304 306 309 310 310 308 308 309 312 312 311 312 311 311 311 312 312 312 312 313 311 311 311 308 311 313 315 316 314 314 316 313 311 311 317 315 315 311
294 296 293 292 297 302 304 306 306 305 312 312 310 311 313 313 313 312 311 312 312 311 312 312 313 312 312 311 309 311 312 313 312 312 311 312 313 313 312 311 313 319 313 313
294 296 293 292 295 301 303 303 303 303 308 310 311 311 311 313 313 313 312 312 312 312 312 312 312 312 312 312 311 312 311 314 312 312 311 311 312 312 312 311 311 312 312 312
292 296 295 293 293 298 301 301 302 303 309 311 311 310 310 311 312 313 312 312 312 312 311 310 310 310 310 311 312 312 312 313 313 315 311 312 314 313 312 312 311 312 313 312
292 294 294 293 293 297 299 299 301 303 310 310 309 309 310 311 311 313 312 312 312 309 309 310 311 311 311 311 310 311 312 312 312 314 312 316 312 310 311 312 311 311 312 312
293 293 294 294 295 293 297 299 299 302 305 307 309 309 310 311 311 312 312 311 311 311 311 312 312 313 312 311 311 311 311 312 313 314 314 313 314 311 311 313 315 311 311 311
295 292 293 294 294 294 293 296 298 300 302 308 305 307 308 310 312 312 312 311 310 311 312 312 312 312 312 311 312 311 310 311 312 313 314 314 316 314 312 313 320 314 312 313
297 293 293 295 295 294 295 294 293 298 299 301 304 306 308 308 309 312 311 311 311 310 313 314 313 312 311 312 311 312 312 312 312 312 313 312 311 309 310 318 319 313 312 313
299 295 293 294 297 295 295 296 294 293 297 297 298 302 305 307 308 310 311 312 311 311 313 313 313 312 311 312 311 311 312 312 311 311 312 313 312 312 313 316 314 313 313 313
300 297 294 294 296 296 295 296 296 295 295 295 294 295 297 302 303 305 308 311 311 311 312 312 312 311 312 311 312 311 312 311 312 311 312 311 310 313 311 311 312 312 312 311
300 299 296 294 296 295 294 296 296 295 295 295 296 299 299 295 299 303 306 310 311 311 311 313 312 311 311 311 311 311 311 310 311 311 312 311 310 311 312 310 311 312 311 310
301 299 297 293 295 295 295 296 296 296 295 296 297 299 301 302 301 301 303 305 309 309 311 312 311 310 309 311 310 311 311 311 312 312 312 312 311 311 312 310 310 312 312 312
301 299 295 293 296 294 296 295 295 296 295 296 296 295 296 299 304 305 305 303 304 307 311 312 310 311 310 310 310 310 309 310 312 312 311 311 312 312 310 310 310 310 310 310
300 297 294 295 295 295 295 296 294 296 295 295 295 297 298 303 304 304 305 303 304 306 310 311 311 311 310 311 310 310 309 309 309 309 310 310 310 310 309 309 309 310 309 309
300 298 294 294 296 295 295 296 296 294 295 294 295 298 302 302 305 305 305 305 306 308 309 310 310 311 310 310 311 309 309 308 309 309 308 309 310 310 307 308 308 310 310 308
298 298 296 295 297 294 293 295 295 295 294 294 297 299 302 304 307 308 307 307 307 309 309 309 310 310 310 311 309 309 309 308 307 307 307 307 307 307 306 306 306 307 308 307
298 297 296 296 293 295 297 295 295 295 295 296 298 302 307 304 306 306 307 307 307 307 309 309 310 310 311 310 309 309 307 306 306 305 304 305 305 305 304 304 305 305 305 307
296 295 295 296 295 295 295 296 296 296 295 295 297 298 304 301 305 307 306 308 309 308 308 308 309 309 309 307 304 304 303 303 303 302 303 303 303 303 302 302 302 303 304 304
296 295 295 296 296 296 297 298 297 296 298 296 297 299 302 303 304 305 306 305 306 310 309 309 309 309 306 301 300 301 301 301 301 300 300 300 300 300 300 301 301 301 302 303
295 295 296 297 297 298 300 300 300 300 301 303 303 304 303 303 301 305 306 307 305 309 306 308 309 307 300 298 297 298 299 299 299 299 299 300 300 300 300 301 301 302 303 303
295 293 296 297 298 300 302 303 305 304 303 303 301 302 304 304 306 306 306 307 307 303 308 308 307 302 298 297 297 298 298 298 298 298 298 298 298 299 299 300 300 300 300 301
295 295 297 298 300 301 302 303 303 300 301 301 300 301 305 305 305 305 307 306 304 309 309 309 305 300 298 298 299 299 298 298 298 298 297 297 297 298 298 298 299 299 298 298
296 297 298 298 298 298 298 298 299 300 300 300 301 302 303 304 306 304 305 308 309 308 309 308 301 300 299 299 298 298 299 298 298 298 298 298 298 298 297 297 298 298 298 298
294 295 297 296 297 298 298 297 298 299 299 299 300 302 305 306 304 305 306 307 309 310 308 302 299 298 299 299 299 299 297 294 295 294 294 295 297 298 298 297 297 297 298 298
293 293 294 295 296 296 296 297 298 298 299 300 300 304 305 302 305 305 304 307 308 303 300 299 299 298 298 298 296 294 293 291 291 290 290 290 291 294 296 297 298 298 298 297

GFSNW_850_thetae_072.txt.gz
Theta_e
294 294 293 293 296 303 306 310 312 309 310 308 309 312 311 309 312 310 311 312 313 313 313 313 314 314 312 311 311 314 313 313 316 316 312 311 312 315 314 312 313 312 312 309
293 294 293 293 296 303 305 307 309 311 310 310 310 310 312 312 312 312 312 312 312 312 312 313 313 312 311 311 312 312 313 313 314 313 313 312 312 313 313 311 313 316 313 309
293 294 293 293 295 302 306 307 307 309 310 308 309 311 312 313 312 312 312 312 312 312 312 312 313 313 312 311 310 310 311 312 312 311 314 313 311 313 311 310 313 314 313 310
294 294 294 294 294 299 306 305 305 304 310 311 311 311 311 312 313 313 312 312 312 311 312 312 313 312 312 311 310 311 312 311 311 311 311 312 313 313 311 306 310 309 311 311
294 294 294 293 293 297 302 304 303 303 306 310 310 310 310 311 311 313 313 312 312 312 313 312 312 312 312 312 311 311 311 311 311 309 311 311 311 312 312 310 310 310 311 311
296 294 294 294 293 294 299 300 301 302 306 310 310 310 309 311 311 313 312 312 313 312 310 310 310 310 311 310 311 311 312 310 310 311 311 311 311 311 311 311 310 310 311 310
297 294 294 295 293 292 296 299 300 303 307 308 309 309 309 310 311 312 312 312 312 310 310 311 311 311 311 310 310 310 311 311 311 311 311 314 311 310 311 311 311 310 310 311
299 296 293 295 297 293 294 295 298 301 302 304 306 308 308 310 311 312 312 311 311 311 312 312 311 312 311 311 311 310 310 311 312 311 312 312 312 310 311 311 312 310 310 310
301 298 294 293 296 296 294 294 294 298 300 305 302 304 306 309 309 311 312 311 310 311 312 313 312 312 311 311 310 311 310 309 310 312 312 314 316 312 311 312 318 311 310 310
302 300 297 293 294 296 294 296 294 296 299 299 302 304 305 307 308 309 311 311 311 310 312 312 314 313 311 311 310 312 311 311 310 311 311 311 313 311 310 318 317 312 312 313
303 302 300 297 294 296 296 295 296 295 296 296 295 298 301 303 306 309 310 311 310 311 311 312 313 312 311 311 311 310 311 311 311 311 311 310 311 310 313 315 314 313 313 313
303 302 302 299 295 295 296 295 297 296 295 295 296 295 295 295 302 303 306 309 310 311 311 311 311 311 310 310 311 309 310 309 310 308 309 310 312 310 310 311 312 312 312 311
304 303 301 300 297 295 296 295 295 296 296 295 296 298 298 299 296 300 304 307 310 311 311 311 311 311 309 310 309 310 309 310 309 310 310 309 310 311 312 311 311 312 311 311
305 303 302 300 297 294 296 296 296 297 296 295 296 297 298 302 301 298 301 306 306 306 310 311 310 310 309 308 309 309 309 309 309 309 310 311 311 311 313 310 310 311 311 311
302 303 301 300 297 295 295 295 296 296 296 295 295 294 297 298 297 302 299 299 302 302 308 310 310 310 308 308 308 308 309 308 309 310 309 310 311 311 311 310 309 309 310 310
301 303 301 300 296 295 295 295 295 295 296 295 296 295 295 296 302 299 303 303 303 304 308 308 310 311 310 308 309 308 309 309 309 309 309 309 310 310 310 309 309 309 310 310
301 303 301 298 297 296 296 295 296 295 295 295 295 295 298 302 302 300 305 305 304 305 307 308 309 311 310 309 308 309 309 309 308 309 309 308 309 309 309 308 308 308 308 309
300 300 300 299 297 297 297 296 295 295 295 294 294 297 299 303 305 305 305 305 304 306 308 309 309 310 310 310 309 309 309 309 308 309 308 307 307 308 307 306 306 307 306 307
300 300 297 296 296 296 296 296 296 295 296 296 297 299 301 302 304 305 305 307 307 306 308 309 309 308 309 309 309 309 308 308 307 307 307 306 306 305 305 305 305 305 305 305
299 297 296 295 296 296 295 295 296 295 295 295 295 297 300 300 303 303 303 306 306 307 307 308 309 308 309 307 308 307 306 306 305 305 304 304 304 303 302 302 302 302 303 303
298 296 295 296 296 296 296 297 297 297 297 296 296 296 299 301 304 304 305 304 306 308 308 309 308 306 305 303 304 304 303 302 302 302 301 301 300 300 300 300 300 300 301 302
297 296 296 296 296 297 299 300 299 299 298 300 300 302 299 302 301 302 304 305 303 309 306 308 306 304 300 300 300 300 300 299 299 300 300 300 300 300 300 301 301 301 302 302
296 296 296 297 297 297 300 300 301 303 302 301 300 301 301 302 303 304 304 306 306 304 307 307 305 300 299 298 298 298 298 299 299 299 299 299 299 299 299 299 299 300 300 300
295 294 295 298 299 298 300 300 300 299 300 300 300 299 302 303 303 303 306 305 304 306 308 306 304 301 298 298 298 298 298 299 299 299 299 298 298 298 298 297 298 298 299 299
296 296 296 297 298 298 297 297 297 299 299 300 300 300 301 302 303 303 304 306 306 307 307 304 302 301 300 299 299 298 299 299 298 298 297 297 298 298 298 298 297 297 297 297
295 296 296 297 296 296 297 297 297 298 298 298 299 301 303 303 303 304 306 305 307 306 302 301 301 301 300 299 299 299 299 298 296 293 292 292 292 294 295 296 297 297 296 296
292 293 293 294 295 295 295 296 297 297 298 300 299 302 304 300 304 304 303 305 303 298 300 299 300 300 300 300 299 298 297 293 292 290 289 289 288 289 290 290 293 296 297 296

GFSNW_850_thetae_075.txt.gz
Theta_e
296 295 295 296 297 303 307 309 304 310 310 306 307 311 311 310 311 310 311 309 311 311 310 311 312 312 311 310 310 313 312 313 315 315 313 312 314 315 314 311 313 310 308 310
297 296 295 295 297 304 307 308 309 310 309 303 309 307 310 311 311 311 311 311 311 310 310 312 312 311 310 311 310 311 311 310 312 313 312 310 311 313 313 310 310 311 312 309
298 297 296 295 296 302 307 307 302 307 309 309 308 310 310 312 311 311 311 311 310 310 311 310 312 311 311 311 309 310 310 310 307 309 311 309 308 311 309 305 305 310 308 309
299 297 298 298 295 297 305 305 305 303 304 306 309 310 311 312 311 311 312 311 311 310 310 311 312 311 311 311 310 310 309 308 309 310 311 311 311 311 309 303 309 308 311 310
299 298 298 298 296 296 297 303 302 303 304 305 309 308 309 310 310 311 312 312 312 309 311 310 310 310 310 311 310 310 308 308 308 305 310 310 310 311 310 309 309 309 309 310
300 298 296 297 299 295 296 298 301 302 304 305 308 309 309 310 310 311 312 311 311 310 309 310 310 309 309 309 310 309 309 307 306 307 310 310 309 309 310 309 308 309 309 309
302 299 296 294 296 295 295 296 299 301 302 303 306 304 306 309 310 310 311 311 310 309 311 311 310 310 310 309 308 308 309 309 308 307 309 311 308 309 310 310 310 308 309 309
303 301 299 296 295 296 295 294 296 299 296 301 302 304 305 305 307 311 311 311 311 310 311 312 311 312 310 310 309 308 307 308 309 308 308 309 311 309 309 310 310 309 308 309
303 302 302 300 296 295 296 295 294 297 298 296 299 301 304 304 306 308 311 311 310 310 310 313 312 312 310 310 309 310 308 306 307 310 309 312 315 310 310 311 316 309 308 308
303 302 301 301 299 295 295 296 296 295 296 296 298 301 302 304 307 308 308 310 310 310 309 312 311 312 309 310 309 311 309 308 306 307 307 309 312 311 311 317 314 311 311 312
304 303 302 302 301 298 295 295 296 296 295 295 296 295 298 300 303 307 308 309 308 308 309 309 310 310 310 309 308 308 308 311 311 310 311 309 309 309 312 313 312 313 313 313
305 304 304 303 302 300 295 296 296 296 296 296 296 296 296 296 297 300 304 308 308 311 309 307 308 310 307 307 310 307 309 307 308 307 307 307 310 310 312 313 313 312 312 311
303 302 301 303 302 301 297 296 295 296 296 296 295 297 297 297 298 297 299 305 308 310 309 308 308 310 306 308 307 309 308 308 307 308 309 307 311 310 311 311 311 312 311 311
301 302 302 303 301 300 297 296 295 296 297 296 295 296 297 298 300 299 296 303 305 304 306 309 307 308 307 306 307 307 307 308 308 307 307 309 309 311 312 311 311 311 312 311
292 296 300 303 301 300 298 296 296 295 296 295 295 295 296 296 296 298 299 298 300 301 305 309 307 307 307 305 305 306 307 307 308 308 308 309 309 311 310 310 310 309 309 309
293 296 298 301 300 299 296 296 296 295 297 295 295 295 295 299 296 300 299 300 297 299 304 307 308 310 308 305 306 307 308 308 309 308 309 310 310 310 310 309 309 309 308 309
298 299 299 301 300 299 297 296 296 296 295 295 294 294 294 297 300 297 298 302 300 301 303 306 308 308 309 309 307 307 308 309 309 309 309 308 309 309 309 308 308 307 307 308
300 300 300 299 298 297 297 297 296 296 294 294 292 290 296 301 303 303 300 304 303 304 305 307 307 307 308 308 307 309 308 308 308 308 308 308 308 308 307 307 306 306 306 306
300 300 299 299 297 296 296 296 295 295 294 295 295 293 296 300 302 302 303 304 304 304 306 307 307 306 306 307 308 308 308 308 308 307 307 306 306 305 305 305 305 304 304 304
299 299 299 296 296 296 296 295 297 295 295 294 294 295 296 299 302 302 303 305 304 306 303 307 306 304 307 307 307 308 307 307 306 306 305 305 304 304 303 303 302 302 302 302
298 298 297 296 296 296 296 296 297 296 295 295 295 295 296 297 302 304 302 303 304 306 307 308 307 305 303 302 303 303 304 304 304 304 303 303 302 301 301 301 301 300 300 300
298 297 296 296 296 296 297 298 298 297 296 298 298 300 298 298 301 302 302 304 303 308 306 308 305 303 300 300 300 300 301 301 301 301 301 300 300 300 300 300 300 301 301 301
297 296 296 296 296 295 297 294 296 298 299 300 300 300 300 300 300 301 303 305 306 303 306 305 302 300 298 298 298 298 299 300 300 299 299 299 298 298 299 299 299 299 299 300
295 294 289 294 293 295 295 299 298 298 298 298 300 300 299 301 301 302 306 305 303 305 306 302 300 301 299 298 298 298 299 299 299 299 299 299 299 298 298 297 297 297 297 298
294 295 294 292 296 298 298 297 296 297 297 298 299 298 301 301 302 303 303 306 304 305 306 304 301 300 299 298 298 298 298 298 298 298 295 294 294 294 295 296 297 297 296 296
295 294 294 296 294 293 296 296 296 296 297 298 299 300 301 302 302 300 300 304 307 304 301 299 299 299 299 299 299 299 298 298 298 294 291 290 289 289 290 291 292 294 296 295
292 292 293 294 294 294 294 295 295 296 297 298 296 300 302 299 299 299 298 303 301 298 297 298 298 299 299 299 299 298 299 295 292 292 291 289 288 288 288 288 288 289 292 294

GFSNW_850_thetae_078.txt.gz
Theta_e
300 299 298 296 298 304 308 309 303 309 308 305 302 304 309 310 310 309 309 308 310 310 309 311 310 311 311 310 310 313 311 311 313 313 312 312 312 314 312 306 314 304 304 309
301 300 299 298 297 301 307 308 309 309 308 303 309 307 309 311 311 310 310 311 310 309 310 311 311 310 310 309 310 311 311 311 313 314 312 312 314 315 314 309 304 304 307 309
302 301 300 300 298 298 306 306 300 307 308 308 308 310 309 311 311 310 311 310 309 309 310 309 311 311 311 310 308 310 310 309 306 310 310 308 308 312 312 306 302 307 306 308
302 302 302 301 300 297 303 304 302 302 299 303 306 308 309 310 311 310 311 311 311 310 310 310 311 310 310 310 309 309 308 308 308 309 311 310 309 309 308 305 307 308 309 309
302 301 301 300 301 299 297 301 300 301 302 304 304 307 308 309 310 310 311 311 310 309 310 310 310 308 309 310 309 309 307 309 306 304 309 310 310 310 308 307 308 309 308 309
302 302 301 300 299 299 296 295 299 300 300 302 304 305 307 309 309 310 311 311 310 310 309 309 309 310 308 308 309 308 308 306 305 305 309 309 308 308 309 308 308 309 309 308
302 302 301 301 298 296 297 295 297 298 296 299 302 302 302 306 308 309 309 310 310 309 310 311 310 309 308 308 307 307 307 307 306 306 308 311 306 308 308 309 309 307 308 308
302 302 301 301 300 299 296 296 295 297 294 296 297 299 302 303 305 307 310 311 311 310 310 311 311 311 310 309 308 307 306 306 308 308 307 306 309 309 309 309 309 307 307 307
303 303 300 301 301 301 298 295 296 294 296 294 297 297 300 302 304 306 309 310 310 310 309 312 310 311 310 310 308 307 305 304 306 305 307 311 311 309 309 310 313 309 307 307
303 303 303 301 300 301 301 296 295 296 295 296 297 297 296 296 303 304 307 308 310 309 308 312 310 311 309 309 308 309 306 308 307 307 305 307 307 310 311 315 310 310 308 308
303 303 303 302 302 302 301 298 296 295 296 296 296 296 296 297 299 302 304 306 308 307 309 307 308 308 308 307 307 307 307 307 308 306 308 306 309 309 313 311 312 312 312 312
303 302 303 303 303 302 301 300 297 296 296 296 296 296 296 296 296 296 298 303 303 309 309 306 307 309 306 306 309 306 309 306 307 306 306 305 309 310 311 313 313 312 312 312
296 300 302 302 303 301 300 300 298 295 295 296 296 297 297 296 297 297 296 296 304 307 306 309 310 309 304 307 306 308 307 306 307 308 307 307 309 310 311 311 312 312 311 310
291 291 292 296 300 302 299 300 297 295 295 297 296 296 296 295 296 298 297 297 301 299 303 309 309 308 305 305 305 306 305 306 306 306 306 308 308 310 311 311 311 311 311 312
293 292 293 295 298 301 300 300 297 296 295 296 296 295 295 295 295 296 296 297 296 296 302 307 309 306 306 303 304 306 306 306 307 308 307 307 309 309 311 311 310 310 309 309
296 297 297 297 297 298 300 296 295 295 297 296 295 295 295 295 298 297 295 297 297 297 301 303 306 308 307 304 306 306 307 307 307 308 309 310 310 310 310 310 309 309 308 308
297 299 300 299 300 300 298 297 297 296 296 294 295 294 294 299 300 297 297 296 298 298 298 302 305 307 307 309 308 306 308 308 308 308 309 309 310 310 309 308 308 308 307 307
298 299 299 299 298 297 296 296 297 297 295 294 293 293 294 300 301 300 298 300 301 301 302 305 306 306 306 308 306 308 308 307 307 308 308 308 308 308 308 307 307 307 306 306
298 299 299 298 297 295 296 296 296 295 295 295 295 292 292 298 299 301 301 302 303 302 304 303 306 306 308 305 307 308 308 308 307 307 307 307 306 306 306 305 305 304 304 304
298 298 298 297 296 296 295 295 295 296 294 294 293 294 296 295 299 302 302 302 305 304 303 306 304 304 306 306 307 307 307 307 307 306 305 305 305 304 303 303 303 303 302 302
298 298 297 296 295 296 295 296 296 295 294 294 295 295 295 296 299 302 302 303 304 305 306 305 305 306 301 301 303 303 304 304 304 304 304 304 303 303 302 301 301 300 300 300
298 297 296 296 295 295 296 296 297 295 294 296 297 299 299 297 298 301 302 304 302 308 306 307 305 301 299 300 300 301 301 301 302 301 301 301 300 300 300 300 300 299 300 300
298 296 295 294 295 293 296 289 296 296 298 299 298 298 300 299 299 299 302 305 305 303 306 305 303 300 299 298 298 298 298 299 299 299 300 300 300 299 299 299 298 298 298 298
296 294 290 294 291 294 289 293 295 298 297 297 297 298 300 301 301 302 306 305 303 302 303 303 303 301 299 298 298 298 298 299 299 299 299 299 298 298 298 298 297 297 297 297
295 293 291 289 294 297 298 297 296 296 296 297 298 298 298 301 302 303 303 305 304 304 305 302 298 299 298 297 298 298 298 298 298 298 296 295 293 290 291 292 292 293 295 296
295 294 293 294 292 292 295 295 295 295 296 296 297 299 300 302 302 301 300 301 304 303 299 297 297 298 298 298 298 297 298 298 298 297 292 291 290 289 288 288 288 288 290 293
293 291 293 294 294 293 294 294 295 295 295 296 296 298 300 297 300 299 298 303 300 298 297 297 298 299 299 299 299 298 298 298 294 292 291 289 288 288 288 287 288 288 288 288

GFSNW_850_thetae_081.txt.gz
Theta_e
302 301 301 301 301 300 307 308 301 308 308 304 299 300 307 309 309 308 308 307 308 309 308 310 310 312 311 310 309 311 310 311 313 314 311 311 312 313 312 306 314 308 301 308
302 302 302 302 301 300 304 307 308 309 308 300 299 305 307 309 310 309 309 310 309 309 309 311 310 310 311 309 310 310 310 310 314 313 312 311 313 313 313 307 303 303 306 309
301 301 301 301 302 300 301 305 300 305 307 307 306 306 305 309 311 309 310 310 309 309 309 309 311 310 311 310 308 310 310 308 307 309 310 312 313 312 312 312 311 307 304 309
300 300 300 299 300 300 299 300 299 300 297 300 302 304 306 308 309 309 310 310 310 310 309 309 310 310 310 309 309 308 307 308 306 308 309 308 309 309 312 312 311 309 310 307
299 298 298 298 298 298 298 298 298 298 299 301 302 304 305 307 308 309 309 311 310 310 309 309 309 307 308 309 308 308 306 307 306 305 309 309 310 309 310 311 311 308 308 308
299 298 298 298 299 299 298 297 297 298 297 298 301 302 302 305 304 308 309 311 309 309 308 308 308 309 308 306 308 307 307 306 304 303 308 308 307 307 308 309 307 309 310 309
299 299 299 299 300 300 299 297 296 296 295 295 296 296 298 301 302 304 305 306 309 309 309 310 310 309 307 306 306 305 306 305 305 306 307 307 304 307 307 309 308 306 307 307
299 302 301 300 299 300 300 298 296 295 293 294 295 297 297 298 301 305 306 307 309 310 310 310 310 310 309 308 308 307 304 305 307 307 306 305 308 308 308 308 308 307 307 307
302 303 303 302 300 300 300 299 296 296 294 295 296 296 298 300 296 300 306 303 306 309 309 312 310 310 309 310 308 305 304 303 305 303 306 309 308 309 307 308 309 309 306 306
302 303 302 302 302 302 302 300 298 296 295 296 296 295 295 296 297 298 300 298 305 308 308 313 311 308 308 308 307 309 307 308 310 307 304 306 304 309 309 313 308 309 308 308
302 303 303 302 304 303 302 301 300 296 295 296 296 296 296 296 296 298 299 299 303 307 311 309 309 308 307 306 306 306 306 305 306 307 310 305 308 309 310 309 312 311 309 308
294 299 300 302 302 302 302 301 299 297 296 297 296 296 297 296 296 296 296 299 297 298 309 305 305 308 306 306 308 304 307 305 306 304 304 304 308 309 310 312 312 312 312 312
292 292 292 294 298 300 301 300 300 298 295 296 296 297 296 296 296 296 296 297 298 302 300 305 310 309 303 307 306 307 306 305 307 307 306 305 308 309 311 312 312 312 311 312
293 293 292 291 292 295 301 299 300 297 296 295 296 296 296 295 295 295 296 297 298 297 297 304 307 308 304 304 304 305 305 305 306 305 305 307 308 309 310 310 310 311 311 311
294 295 295 295 297 299 300 299 299 298 295 295 295 295 295 295 295 296 295 296 295 296 297 303 308 306 305 302 303 305 305 306 307 307 307 307 307 308 310 310 310 311 310 309
296 298 298 300 297 299 298 298 296 296 295 296 294 295 295 294 300 299 296 295 295 296 298 300 303 306 307 307 305 305 306 306 307 307 308 309 310 309 310 310 309 309 308 308
297 298 300 299 299 299 299 298 297 296 296 295 293 293 294 297 300 296 295 295 296 297 298 299 302 305 304 308 307 305 307 307 307 307 308 309 310 310 309 309 308 307 307 307
298 298 299 298 298 297 297 296 296 296 295 294 292 290 293 297 299 300 298 297 298 299 299 301 303 303 304 306 305 306 307 307 307 307 308 308 308 309 308 307 307 307 307 306
298 298 298 297 297 296 296 295 295 296 295 294 293 290 290 296 298 300 299 301 302 300 304 303 305 304 304 303 304 305 306 307 306 306 307 307 307 307 306 306 306 305 304 304
298 297 298 296 295 295 295 295 295 295 295 293 292 293 291 295 298 300 301 301 303 303 301 304 303 302 304 304 304 304 305 306 306 305 305 305 305 305 304 304 303 303 303 303
297 298 297 296 295 295 295 295 295 295 294 293 294 294 295 296 296 300 301 303 303 305 304 305 305 305 301 301 301 302 302 303 304 304 304 304 303 303 302 302 301 301 300 300
298 297 295 295 294 294 295 296 296 295 293 295 296 298 298 298 297 299 301 303 302 305 304 306 305 302 299 299 299 300 300 301 302 302 302 302 301 300 300 300 300 300 300 300
297 296 294 295 294 294 295 286 295 296 298 298 297 298 298 299 298 298 301 304 303 302 306 306 304 300 300 299 298 298 298 299 299 299 300 300 300 299 299 299 298 298 298 298
297 295 290 289 289 294 288 289 291 297 297 296 296 298 298 300 301 302 304 305 303 303 300 301 301 298 298 298 297 298 298 297 297 297 297 296 294 293 293 294 294 294 295 296
295 294 288 290 292 293 295 296 296 296 296 295 296 297 297 300 301 303 302 304 303 305 304 301 297 297 297 297 296 296 297 297 297 297 297 298 296 291 289 289 289 288 289 291
295 293 292 292 292 291 294 294 295 295 295 295 295 298 299 301 301 301 300 301 303 301 298 296 296 298 298 297 297 297 297 298 298 298 295 292 290 289 288 288 288 288 288 288
293 292 293 293 293 293 295 294 294 295 294 295 296 297 299 295 299 299 298 301 299 297 297 297 297 297 297 298 298 298 298 298 297 293 292 290 289 288 288 287 287 287 287 287

GFSNW_850_thetae_084.txt.gz
Theta_e
301 301 301 301 301 301 301 306 300 308 307 303 297 298 306 308 308 307 306 306 308 309 308 308 311 313 312 310 309 309 309 312 313 314 311 311 311 312 311 308 310 306 301 309
300 300 299 299 298 299 300 303 306 307 307 299 297 302 306 308 309 309 309 310 308 308 308 310 309 311 310 310 311 310 309 310 314 314 311 311 312 311 309 305 304 309 307 309
299 298 298 298 298 298 299 301 297 302 305 305 304 304 303 307 308 309 309 309 309 308 308 308 310 310 311 310 309 311 310 309 308 310 309 310 312 311 310 305 302 308 305 307
298 298 297 297 297 297 298 299 298 298 294 296 299 301 304 307 307 308 309 310 310 309 309 308 309 309 310 310 309 308 308 308 307 307 308 310 310 310 310 308 309 308 309 307
298 298 297 297 296 297 298 298 297 297 297 298 298 301 302 302 303 305 307 309 310 309 309 309 308 307 308 309 308 308 305 308 306 305 308 309 310 308 309 310 310 308 308 307
298 298 297 297 297 299 299 298 297 297 296 294 297 298 296 298 299 301 306 304 304 307 308 307 307 308 308 307 307 307 307 305 304 304 308 308 307 307 308 310 309 310 310 310
299 298 298 300 299 299 300 299 297 296 296 295 295 296 296 297 298 299 300 303 305 307 307 309 309 308 307 305 305 305 305 305 305 307 306 308 305 306 306 308 308 307 307 307
298 298 301 301 300 300 300 300 298 296 294 294 295 296 296 296 297 298 298 303 303 305 306 309 309 308 308 307 306 306 304 305 307 307 306 305 307 307 307 307 308 306 306 307
298 298 302 301 302 301 301 301 300 297 294 295 295 295 295 295 293 295 299 299 301 303 309 312 310 309 308 309 307 304 303 302 305 304 306 308 306 309 307 306 309 308 306 306
298 302 303 302 302 302 302 301 300 298 296 297 296 294 294 296 296 295 297 297 299 301 308 312 311 308 307 308 307 308 307 308 306 309 306 305 303 305 308 311 307 309 307 306
298 303 302 303 303 302 303 301 301 298 297 297 297 296 296 296 295 297 297 298 299 299 310 311 311 308 307 306 305 306 305 304 306 308 310 305 304 308 310 307 311 311 309 307
295 296 294 297 298 301 301 301 301 298 297 297 297 296 296 296 296 295 295 297 297 299 303 306 306 308 309 305 308 304 307 304 305 304 305 303 305 309 309 310 312 312 312 310
294 292 292 292 293 297 298 300 299 299 297 297 296 296 296 296 295 295 296 296 298 298 297 300 306 308 303 310 308 306 305 303 305 306 305 304 306 308 309 311 312 312 311 311
293 293 294 294 293 295 296 299 299 298 297 295 296 296 295 295 295 295 295 296 297 296 297 299 304 307 304 304 303 305 305 305 305 305 305 306 307 308 310 310 310 311 310 310
294 295 296 297 297 299 299 298 298 298 296 295 295 296 295 295 296 296 296 295 295 296 295 300 305 305 304 301 302 304 304 306 306 306 306 306 307 308 309 310 310 310 310 309
295 297 298 300 297 299 298 298 296 296 295 295 293 295 295 295 299 297 297 295 295 295 297 297 299 302 306 305 304 304 305 306 306 306 306 308 309 308 309 310 309 308 308 308
296 298 299 298 298 298 298 297 297 296 295 295 293 292 294 296 299 297 295 294 295 296 297 298 299 303 303 306 306 306 306 306 307 307 306 308 309 309 309 308 308 307 307 307
298 298 298 298 298 297 296 295 295 295 295 293 292 291 293 296 297 300 297 296 297 298 298 299 300 301 301 302 304 304 305 306 307 307 307 307 307 308 308 307 307 306 306 306
298 298 297 297 296 295 295 295 295 295 294 293 293 290 290 296 297 299 299 299 300 299 300 300 302 302 303 301 302 303 304 304 306 306 306 307 307 307 306 306 306 306 305 304
297 297 297 296 295 295 295 294 295 295 294 293 293 293 295 295 297 298 301 300 302 303 300 303 303 301 303 301 301 302 303 304 305 304 304 305 305 305 304 304 303 303 303 303
297 298 297 295 295 295 294 295 295 294 293 293 294 294 294 296 297 299 300 301 302 303 300 303 303 305 300 300 299 299 301 302 303 304 304 304 304 303 303 302 302 301 301 300
298 297 295 295 294 294 295 295 296 295 293 294 295 298 297 298 297 297 299 301 302 302 303 305 305 300 300 299 299 299 300 300 301 301 302 302 301 301 301 300 300 299 299 299
297 296 294 295 294 293 289 287 294 296 296 297 297 296 297 298 298 298 301 302 303 302 304 303 303 298 298 298 298 298 298 298 299 299 299 299 299 299 299 299 298 298 297 297
297 295 292 290 292 293 289 288 288 296 297 296 295 296 297 299 300 301 302 302 302 301 299 303 299 297 297 297 296 297 297 297 297 297 295 294 292 291 291 291 291 290 289 290
296 294 292 291 292 292 293 294 296 296 296 295 295 295 296 299 301 302 302 302 302 304 302 300 296 296 297 296 296 296 296 296 296 297 296 297 297 293 289 288 288 288 288 288
296 293 289 291 291 290 292 293 295 295 295 294 295 296 299 297 299 300 297 298 298 297 296 296 296 297 297 297 296 296 296 296 297 297 297 293 290 289 288 288 287 287 287 287
293 291 293 293 293 293 294 295 295 295 294 288 295 297 297 294 296 298 298 300 297 297 297 297 297 297 298 298 297 297 297 297 296 292 292 291 290 289 288 287 287 286 286 287

GFSNW_850_thetae_087.txt.gz
Theta_e
301 299 299 298 298 299 299 301 297 306 306 301 296 297 304 306 307 306 307 307 308 309 308 308 311 310 309 308 307 307 308 312 313 312 311 311 311 312 310 310 312 302 305 312
299 299 298 298 298 299 299 300 304 305 304 298 298 301 303 305 307 308 308 309 309 308 308 310 309 310 311 310 308 309 309 311 314 314 311 311 313 311 307 305 306 309 312 311
299 298 298 298 298 298 299 300 294 300 303 301 300 300 301 305 306 306 306 309 309 308 308 307 309 308 311 310 311 311 311 309 308 308 308 309 312 311 308 306 308 309 308 310
298 298 298 298 298 298 299 298 296 298 293 295 296 299 303 300 301 301 303 307 304 303 308 308 307 308 306 310 310 309 309 311 307 308 308 310 310 310 309 305 307 309 308 308
298 298 298 297 297 299 300 298 297 296 296 296 296 297 299 298 298 299 300 303 301 302 305 307 310 307 307 309 309 308 305 309 306 306 308 309 310 309 308 309 309 308 307 308
298 298 297 297 297 300 299 299 298 297 296 294 295 296 296 297 297 299 299 299 300 304 305 304 305 306 307 307 308 309 307 307 306 306 307 307 306 306 308 309 307 309 311 310
298 298 297 297 298 300 300 300 298 297 297 295 295 295 295 296 296 297 298 299 303 304 301 304 307 307 307 305 304 305 305 305 306 308 306 307 304 305 306 308 308 308 308 307
298 297 298 299 300 301 300 300 299 298 295 294 296 295 295 295 295 296 296 298 299 300 302 309 308 307 307 305 303 304 303 305 307 308 307 305 307 307 307 308 308 306 308 308
298 297 298 299 301 302 301 300 300 299 295 296 296 294 295 294 293 294 297 298 298 300 305 310 308 308 307 308 307 303 302 302 306 305 307 308 306 308 306 306 310 307 306 305
298 297 298 302 302 301 302 301 299 299 297 297 296 295 294 295 295 295 296 295 298 300 307 310 311 307 306 308 307 307 305 308 307 307 307 305 303 303 306 310 308 308 308 306
297 298 301 302 303 302 302 299 299 299 298 297 297 297 296 295 295 295 295 297 297 299 305 309 309 306 305 305 304 305 305 304 306 308 308 305 303 307 310 307 311 311 310 307
296 296 296 297 300 300 300 298 299 298 297 297 297 296 296 296 296 295 295 295 296 298 301 300 303 308 309 305 307 303 306 303 304 304 305 303 304 308 309 309 311 311 312 310
296 295 292 292 296 298 298 298 298 298 296 297 296 296 296 295 295 295 295 296 297 297 296 297 302 308 304 307 309 305 304 302 304 305 305 303 306 306 307 310 311 311 311 311
295 293 293 294 293 297 294 297 298 297 297 294 296 296 295 295 295 295 295 295 295 296 296 296 299 303 304 303 302 303 304 304 304 304 304 306 307 307 308 310 310 310 310 310
295 294 296 297 297 296 298 298 297 297 297 296 296 296 295 295 295 297 297 296 295 295 295 296 300 303 305 301 300 302 303 304 305 306 305 305 306 308 308 309 309 310 310 309
294 295 297 298 299 298 298 298 296 296 296 295 293 295 295 294 297 299 296 296 295 295 296 296 297 299 304 304 303 303 304 305 305 305 306 306 307 308 308 309 309 308 308 307
295 297 299 298 298 298 298 297 297 296 295 294 291 293 294 296 298 298 295 295 294 295 296 297 298 299 303 303 303 305 305 305 305 305 306 307 308 308 308 308 308 307 307 306
297 300 299 298 298 297 296 296 295 295 295 293 287 290 294 296 297 299 297 296 295 296 297 297 297 299 299 299 302 303 303 304 304 306 306 306 306 307 307 307 306 306 306 305
299 300 298 298 296 295 295 295 294 295 294 293 292 288 290 296 297 298 299 298 298 298 299 298 299 299 301 300 301 302 302 302 303 304 304 305 306 306 306 305 305 305 304 303
298 298 297 296 295 294 294 294 294 294 294 293 293 292 290 295 297 297 300 299 301 303 300 301 301 301 300 299 299 299 300 302 303 303 304 304 304 304 304 304 303 303 303 302
297 297 296 295 295 294 294 295 295 293 294 293 294 294 291 296 296 298 298 300 302 304 299 300 301 304 299 300 299 299 299 300 301 302 303 303 303 303 303 302 302 301 300 300
298 297 295 295 294 294 292 289 295 294 292 293 294 296 296 297 297 297 298 301 301 301 302 304 302 301 298 297 298 298 298 299 299 300 300 301 301 300 300 300 299 299 299 298
297 296 294 294 294 290 288 291 293 295 294 295 296 294 296 298 298 298 300 301 302 301 304 301 302 298 296 297 297 297 297 297 297 298 298 298 298 298 298 297 296 294 292 291
297 295 293 292 292 290 290 289 288 295 297 296 295 295 296 298 299 300 302 302 302 301 297 300 297 296 295 295 296 296 296 296 296 296 297 295 292 290 290 290 289 289 289 289
296 295 294 291 291 291 292 294 296 296 296 295 295 295 295 297 299 299 302 301 300 301 297 296 296 296 296 296 296 296 296 295 295 295 295 296 296 294 291 289 288 288 288 288
295 293 290 290 291 288 292 292 294 295 295 294 294 295 295 295 297 298 296 295 295 294 295 297 297 297 297 297 297 297 297 296 296 295 295 293 290 289 288 288 288 287 287 287
295 292 293 293 293 292 292 293 295 295 294 288 293 293 293 293 295 298 297 297 294 297 298 295 294 294 294 296 298 298 297 297 297 296 295 292 292 292 291 289 288 287 287 286

GFSNW_850_thetae_090.txt.gz
Theta_e
301 299 299 299 299 299 299 301 309 304 305 305 300 306 303 304 307 307 308 308 307 310 311 310 311 310 310 307 306 307 307 312 312 314 312 312 312 315 314 318 316 311 315 315
300 299 299 299 299 299 299 299 304 303 304 307 303 302 302 304 303 305 305 309 309 306 309 311 311 307 308 308 308 311 311 314 315 315 313 312 312 313 312 312 314 316 316 315
299 298 299 299 300 299 300 299 308 299 301 299 301 300 302 301 300 304 301 304 303 303 310 309 311 308 310 309 309 310 312 312 312 314 313 313 314 315 313 315 318 315 316 314
299 298 299 299 300 299 300 298 302 298 302 301 300 301 302 300 300 299 301 303 302 303 306 309 311 307 309 308 308 310 311 314 311 311 311 312 313 314 312 313 314 317 314 313
299 298 299 299 299 299 300 299 300 297 298 297 299 299 300 299 299 299 301 300 301 303 305 305 306 306 306 307 309 309 310 312 310 310 311 311 313 312 313 313 313 312 311 312
299 298 298 298 298 299 300 300 299 299 297 299 300 299 298 298 298 298 299 299 302 305 304 301 302 303 305 308 310 311 310 311 312 313 309 310 311 310 312 312 311 312 314 313
299 298 298 298 298 300 300 300 298 299 301 300 299 298 297 298 297 298 298 299 301 302 300 303 306 307 307 307 307 306 309 309 310 311 309 310 307 307 308 310 310 311 311 311
299 298 298 297 297 300 300 300 300 299 301 298 298 298 297 297 296 297 297 298 298 299 302 310 310 310 309 308 306 307 307 309 310 311 310 309 311 310 310 310 311 309 310 310
298 298 297 297 298 299 300 300 300 299 301 300 297 297 296 298 298 298 297 297 298 300 305 310 311 311 310 310 310 306 306 307 310 310 311 309 311 309 307 308 315 310 309 310
298 298 297 297 299 299 301 299 299 299 299 297 297 298 298 296 297 298 297 296 298 300 308 310 311 311 308 310 309 310 310 310 312 310 310 308 307 307 307 313 314 310 310 308
298 297 297 297 299 297 299 299 298 299 298 297 297 296 296 296 296 298 296 299 299 301 306 306 309 310 309 309 307 309 309 309 310 310 309 309 305 309 311 311 310 312 310 307
298 297 296 297 298 301 297 298 298 297 297 297 297 296 296 296 296 296 296 297 297 300 301 301 303 309 310 309 311 306 309 308 309 309 308 306 305 309 309 308 310 311 311 308
298 296 295 294 294 299 298 297 298 298 297 297 296 296 296 295 295 295 296 296 297 297 297 298 301 307 307 309 311 309 307 304 308 308 307 307 307 306 306 308 311 310 311 310
297 296 294 293 295 297 296 296 298 297 296 298 296 295 296 296 296 296 295 295 295 295 296 298 300 303 305 308 306 307 307 306 308 308 308 308 307 307 307 309 310 309 310 310
297 294 293 294 299 296 295 298 297 297 296 298 296 295 295 294 294 297 297 295 295 296 297 298 301 303 304 304 304 307 306 308 309 309 306 307 307 307 307 309 309 309 310 309
296 293 294 296 298 295 297 298 297 297 296 296 298 295 294 294 298 297 296 296 295 296 297 298 298 297 302 304 306 306 304 304 304 306 305 305 306 307 307 308 309 308 308 307
293 294 297 299 298 298 298 297 297 296 295 295 296 296 294 296 298 297 295 295 295 296 296 298 298 299 301 305 304 304 303 303 303 304 305 306 307 307 308 308 307 307 306 306
293 297 300 298 298 297 296 296 296 294 295 294 295 296 295 296 297 299 296 295 295 296 297 298 299 299 300 301 302 301 302 303 304 304 304 305 305 307 306 306 306 306 305 305
298 299 299 298 297 296 295 295 295 294 294 294 294 300 301 296 297 297 298 297 298 297 299 299 300 301 302 301 301 301 300 299 301 303 303 304 305 305 305 305 305 305 304 304
299 298 297 296 296 295 295 294 294 294 294 293 296 293 298 296 298 299 299 299 301 302 301 300 302 302 299 300 300 300 299 300 300 301 303 303 303 304 304 304 304 303 303 302
298 297 295 295 295 294 294 295 295 294 294 294 294 294 297 296 299 299 298 301 301 304 303 303 303 305 300 299 298 299 299 299 299 300 301 302 302 302 302 302 301 301 301 300
298 297 295 295 294 294 294 294 295 294 296 293 295 296 295 296 297 297 298 301 302 302 302 305 303 302 297 296 297 298 297 298 298 298 299 300 301 301 300 300 299 298 299 298
297 296 295 294 294 294 294 294 295 296 294 294 295 297 297 297 297 298 299 301 302 301 304 305 303 298 296 296 296 296 296 296 296 297 297 297 297 298 297 296 294 291 290 290
298 296 294 295 294 294 293 294 294 294 295 295 296 295 297 297 297 298 301 301 302 304 303 304 301 296 296 295 296 295 296 295 295 295 295 296 291 290 290 289 289 288 288 288
297 296 299 293 292 291 292 292 293 294 295 295 295 295 296 297 297 299 300 302 302 303 303 301 298 298 297 296 295 295 295 295 295 295 294 294 295 295 292 292 289 288 288 288
296 293 292 290 292 290 291 292 294 296 295 294 294 296 296 298 298 299 300 299 300 301 299 298 298 296 296 297 296 297 296 296 296 295 295 294 290 289 289 291 291 289 289 288
295 293 293 293 292 292 293 293 295 295 294 295 293 293 296 295 298 298 299 300 300 298 298 297 295 294 294 294 294 296 297 296 296 296 296 296 294 291 291 291 290 289 289 288

GFSNW_850_thetae_093.txt.gz
Theta_e
302 300 298 299 299 299 300 305 311 303 303 308 307 305 303 304 303 305 307 308 309 308 310 312 310 310 309 307 305 308 308 312 314 314 312 311 313 314 315 319 318 316 318 315
301 299 298 299 299 299 299 305 307 301 305 306 306 303 303 302 302 304 303 305 305 305 308 313 313 307 309 309 307 312 311 315 316 315 314 312 313 314 316 314 317 319 319 315
301 298 299 299 300 300 300 304 310 302 302 301 303 303 304 302 301 302 303 303 304 306 308 309 311 307 310 309 309 311 312 314 314 316 315 314 314 315 315 315 319 316 316 314
301 298 299 299 300 300 300 302 306 301 304 303 302 302 303 302 301 301 301 304 303 304 308 308 308 307 307 310 310 310 312 316 313 312 313 313 314 316 315 314 316 319 315 315
300 298 299 299 300 299 300 304 303 300 301 301 302 302 302 301 301 301 302 302 303 304 306 304 306 305 308 309 309 309 312 314 312 313 313 313 314 314 315 314 314 314 314 314
300 298 298 299 300 299 300 300 299 303 300 302 302 302 301 300 300 300 300 302 304 305 304 302 302 303 304 306 310 312 312 313 314 315 311 312 314 314 314 314 313 314 315 314
300 298 298 299 299 299 300 300 300 303 303 302 301 300 299 300 299 300 300 301 302 302 301 304 306 307 309 310 310 309 311 311 311 312 310 312 310 309 310 312 312 312 312 312
300 298 299 299 298 300 300 300 300 303 303 302 301 300 300 299 299 300 300 300 300 300 303 311 311 311 310 310 309 309 310 311 312 313 311 310 312 311 311 312 313 312 312 312
301 299 298 298 298 299 300 300 300 302 303 302 300 300 299 301 301 302 300 300 300 301 305 311 312 312 311 311 311 309 309 310 312 312 312 310 312 310 309 310 315 313 312 312
301 299 298 298 297 298 299 299 299 301 302 299 299 301 300 298 300 302 300 299 301 302 309 311 312 312 309 311 310 310 310 311 312 312 312 310 309 309 309 314 316 313 312 310
302 299 298 298 297 298 299 299 299 301 302 298 298 297 298 298 298 301 299 302 302 304 309 309 309 310 310 311 309 310 310 310 310 311 311 310 308 310 312 312 312 313 313 309
301 301 298 297 297 297 297 299 298 298 301 299 297 296 297 297 297 298 298 300 299 301 304 304 306 310 310 310 312 308 310 309 310 310 310 308 307 308 309 309 310 313 313 309
303 298 297 296 297 297 297 298 298 298 299 298 297 297 296 296 296 296 299 298 299 299 299 301 303 305 307 309 311 310 309 307 309 309 309 309 309 308 308 307 311 310 311 311
301 298 297 297 296 297 297 297 298 298 299 301 298 296 297 297 297 296 295 296 296 297 298 301 303 303 306 307 307 309 309 308 309 309 309 309 309 309 308 310 310 309 309 310
300 298 297 298 297 296 297 297 298 298 300 301 298 296 296 295 295 296 297 296 297 298 299 301 303 303 305 306 306 308 308 309 310 310 307 307 308 307 308 309 310 309 309 308
299 297 295 295 295 297 296 298 298 297 297 299 300 296 295 294 297 297 296 297 297 297 299 300 300 299 301 304 306 307 306 306 305 306 305 305 306 306 307 308 308 308 308 307
299 296 293 294 299 295 298 299 298 297 296 298 298 298 294 295 297 297 296 296 297 297 298 299 300 300 302 304 305 304 303 303 303 304 304 307 307 307 307 307 307 307 307 307
300 293 294 298 297 297 298 297 296 295 296 296 300 299 297 296 299 299 297 297 297 297 298 299 300 300 300 302 302 302 302 302 304 302 303 303 304 305 306 306 305 305 305 305
293 296 299 298 298 298 297 296 295 294 295 298 299 303 304 296 299 299 297 298 298 299 299 300 300 302 302 302 302 302 301 300 300 300 302 303 304 304 304 304 304 304 304 304
297 299 298 297 296 296 295 295 295 295 295 295 300 297 301 299 300 300 299 299 301 302 302 301 302 303 303 300 299 298 299 299 298 298 302 302 303 303 302 302 303 302 302 302
299 297 295 296 295 295 295 296 296 295 297 296 298 298 300 297 301 301 299 301 301 303 304 303 303 305 302 299 297 297 298 298 298 298 298 298 301 301 301 302 301 301 301 300
298 297 295 295 295 295 296 297 296 296 299 296 298 298 298 297 297 298 299 299 302 302 302 304 303 303 299 298 297 298 297 297 297 297 297 298 299 300 299 299 299 299 298 298
296 297 295 296 295 296 297 298 297 298 296 296 297 298 298 297 297 297 299 301 302 302 303 304 304 300 298 296 296 296 295 296 295 295 296 296 297 297 297 297 297 293 292 290
298 297 296 300 296 297 297 299 299 297 297 297 298 298 299 298 298 299 299 301 301 304 304 305 303 299 297 296 296 296 296 295 295 295 295 295 295 295 291 289 288 288 289 289
298 298 303 297 294 292 293 293 294 295 296 297 297 297 298 298 298 299 301 302 301 303 305 305 301 299 298 298 296 297 297 296 295 295 294 294 294 294 294 294 292 288 287 288
296 294 295 292 294 292 292 294 293 294 296 296 297 297 297 298 299 299 299 301 302 305 303 301 299 297 296 295 296 297 298 297 296 296 295 294 294 294 293 291 292 294 291 289
295 294 293 294 295 294 295 296 295 295 296 298 296 296 297 298 298 299 300 302 303 302 300 299 297 295 295 295 295 294 294 296 297 296 296 295 295 295 294 292 289 289 289 289

GFSNW_850_thetae_096.txt.gz
Theta_e
304 302 299 298 298 298 300 308 313 303 305 308 308 307 303 303 302 304 306 306 306 306 307 311 310 310 309 307 305 307 309 312 311 311 311 311 311 311 314 317 317 315 316 312
304 301 299 298 298 298 301 307 308 301 304 308 308 304 304 302 302 303 304 305 305 305 307 312 309 307 308 309 307 312 310 313 315 314 312 312 313 313 315 315 314 318 320 312
304 301 299 298 298 299 300 305 309 303 304 302 303 304 304 302 301 302 302 303 305 306 308 309 309 307 309 310 311 311 311 313 313 316 315 312 311 312 314 313 316 315 316 312
304 301 299 298 298 299 300 305 309 305 307 304 303 302 303 302 302 301 302 304 305 304 307 309 308 307 309 310 310 310 311 314 312 313 313 313 313 314 314 312 314 315 315 314
304 300 298 299 299 299 302 304 302 301 302 301 302 302 302 301 301 301 302 302 304 305 305 304 306 304 307 308 308 309 310 314 312 311 313 313 314 315 314 314 314 313 313 313
304 299 298 298 299 299 302 301 302 304 302 302 302 302 301 301 300 301 301 302 303 305 304 302 302 303 303 305 308 311 312 314 312 315 311 312 313 313 314 314 313 314 314 313
304 299 298 299 299 299 300 300 300 304 302 302 302 301 300 300 300 301 301 301 302 301 301 304 305 306 306 307 309 309 309 310 310 310 310 312 309 308 309 313 312 311 311 310
304 299 298 299 299 299 300 300 301 305 302 302 301 301 301 300 300 300 300 301 301 301 304 309 311 311 310 310 309 309 308 309 311 311 310 309 310 310 310 311 312 311 311 311
302 298 299 302 299 299 300 300 300 304 302 301 301 301 300 301 301 301 301 301 301 303 305 310 312 312 310 311 310 308 308 308 310 309 311 311 311 309 309 310 313 312 312 311
302 299 300 299 298 299 300 300 300 303 301 299 300 301 301 299 300 301 301 300 302 303 307 310 309 311 309 310 310 310 309 309 309 310 310 309 308 309 309 313 314 313 312 309
303 298 299 298 298 298 300 300 300 303 301 298 299 298 299 298 299 301 299 301 302 305 308 308 308 308 309 310 309 309 309 308 309 310 310 309 309 309 312 311 313 313 313 309
300 300 299 298 298 298 299 299 299 301 302 299 297 297 297 298 298 299 299 300 300 300 303 303 305 307 308 308 311 308 309 307 308 308 309 307 307 307 307 308 308 312 312 310
302 303 299 297 297 298 298 299 299 298 298 297 298 297 297 296 296 297 299 299 299 299 299 301 303 305 304 308 310 309 309 307 306 308 308 308 309 308 308 308 311 311 311 311
303 302 298 298 297 297 298 299 299 300 301 301 298 297 297 297 297 297 297 297 297 297 298 300 302 304 305 306 306 306 307 307 308 308 307 309 308 307 308 309 310 310 310 311
305 302 300 298 298 297 297 298 298 299 302 301 297 297 296 296 296 297 297 296 297 297 299 300 302 303 304 305 305 304 307 306 307 310 305 305 306 306 307 309 310 309 309 309
304 300 302 301 300 297 297 298 298 298 300 298 298 297 295 295 298 297 296 296 296 297 298 300 300 300 300 301 304 305 305 304 303 304 304 304 306 306 307 308 308 308 308 307
302 302 303 301 300 297 299 300 299 298 297 299 297 297 295 296 297 297 297 296 296 297 298 299 300 300 301 301 302 302 303 302 302 304 303 306 306 305 305 306 307 306 306 307
301 300 300 298 299 296 298 298 298 297 297 298 298 297 296 296 298 298 297 297 296 297 298 298 299 300 300 300 301 302 302 302 303 302 302 302 303 304 304 305 305 304 304 304
301 299 298 299 297 298 297 297 296 296 297 299 299 298 298 297 300 298 297 297 299 298 298 299 300 301 300 301 302 301 300 299 299 300 301 303 303 304 304 304 304 303 303 303
298 296 298 298 298 297 296 296 295 295 295 297 300 300 297 299 299 299 300 299 301 301 301 301 301 300 302 301 299 299 298 298 298 298 299 298 300 302 302 302 302 302 303 303
295 298 296 296 296 296 296 296 297 296 297 297 299 299 297 299 300 300 299 300 301 302 303 302 303 303 301 301 299 297 298 298 297 297 297 298 298 299 301 301 300 301 301 300
298 298 296 296 296 295 297 297 296 296 299 297 297 298 298 297 297 298 298 299 299 301 302 303 302 301 300 299 297 296 297 297 297 296 296 297 298 298 299 299 299 298 297 296
298 300 297 297 295 297 297 297 297 298 298 297 297 297 297 297 297 298 298 299 298 301 302 303 301 301 299 298 296 296 296 296 296 295 295 296 296 296 296 296 296 296 294 293
300 297 296 298 297 297 298 300 299 298 298 297 298 298 298 298 298 298 299 300 300 302 303 300 297 301 299 297 296 295 295 295 295 295 295 295 295 294 294 294 293 289 289 293
299 299 302 296 295 294 295 296 296 297 297 298 297 297 298 297 297 298 300 302 300 301 297 297 302 300 299 299 297 297 296 296 296 296 295 295 295 294 293 292 293 293 290 290
297 296 294 294 294 292 293 295 296 297 297 297 297 294 292 295 297 298 298 299 295 296 296 302 300 299 297 296 295 295 296 297 297 296 296 295 295 295 295 295 295 294 294 290
296 294 294 295 295 294 294 294 295 297 296 294 294 291 292 293 297 298 296 295 295 302 301 300 299 297 296 296 295 295 295 294 294 296 296 296 295 295 296 296 296 295 292 291

GFSNW_850_thetae_099.txt.gz
Theta_e
310 304 302 300 298 298 302 308 305 302 306 302 303 297 302 303 302 302 305 304 305 305 307 311 307 308 308 308 304 309 308 309 308 308 311 309 308 310 314 310 315 308 305 309
312 304 302 299 298 298 302 308 305 302 305 297 296 302 303 302 301 302 303 304 304 304 306 311 308 306 307 309 309 309 309 312 310 311 312 311 312 312 314 314 310 313 315 310
310 304 301 298 298 298 304 305 301 303 303 302 300 302 303 302 301 302 302 303 303 304 307 307 308 306 308 310 310 310 310 311 311 309 309 309 310 311 312 309 309 316 315 312
309 303 301 298 298 298 302 305 304 304 300 300 300 301 302 302 301 301 301 303 303 304 304 307 307 306 308 308 309 308 311 313 311 311 312 312 311 311 313 312 313 315 315 312
306 303 300 298 299 299 301 303 300 302 300 301 300 300 300 301 300 301 301 302 303 305 303 303 306 304 306 307 308 307 307 310 311 307 312 312 313 313 313 313 313 313 312 313
305 303 299 298 300 299 301 305 302 302 301 299 298 299 299 300 300 300 301 301 301 305 302 301 301 302 303 304 307 311 310 311 310 310 310 311 312 312 313 313 312 313 313 311
306 303 298 299 301 299 301 300 302 302 299 298 299 300 300 300 300 300 301 301 300 301 301 303 304 304 304 305 306 306 308 307 307 307 308 311 308 307 309 312 311 310 310 309
304 302 298 299 298 299 299 300 301 304 298 298 299 299 299 299 299 298 299 300 300 301 305 306 309 308 308 308 306 307 306 307 308 309 307 308 310 309 309 310 312 310 310 310
307 302 299 298 298 299 299 300 302 304 299 298 301 299 300 297 297 299 300 300 301 303 305 307 309 308 309 310 309 307 306 306 307 306 308 310 310 308 309 308 311 311 311 308
307 304 299 299 303 298 300 300 301 303 300 299 300 298 298 299 299 298 299 300 302 302 305 308 303 309 307 309 309 309 307 306 307 308 308 307 308 308 309 309 311 312 310 308
309 301 298 301 304 298 300 299 301 302 299 299 300 299 298 298 299 298 298 300 301 300 306 307 307 306 306 307 307 308 306 305 306 305 308 307 309 309 311 309 311 312 311 308
302 298 300 303 302 298 299 300 301 302 300 298 298 299 299 299 299 299 299 300 300 300 303 303 305 305 305 306 309 306 307 305 308 306 307 305 307 306 307 307 308 312 311 309
301 299 305 301 298 298 299 300 300 300 297 297 297 297 296 297 297 299 298 299 299 299 299 301 303 305 302 305 308 307 307 306 305 306 307 306 308 308 308 309 310 311 311 311
303 299 301 299 299 298 299 299 300 300 300 297 296 296 297 297 297 297 298 298 298 298 299 300 303 304 304 303 304 303 305 306 306 307 305 306 306 306 306 308 310 309 310 311
300 300 302 301 298 298 299 299 299 300 301 297 296 297 296 296 297 297 296 296 297 297 298 297 301 301 302 303 304 301 303 304 306 306 304 305 305 305 306 308 309 309 309 308
302 302 301 300 298 298 299 299 299 300 299 298 295 296 295 295 297 296 296 296 296 297 298 299 300 300 299 298 303 302 302 303 303 303 304 303 304 306 306 307 308 308 308 307
304 302 302 300 298 297 299 299 298 299 299 298 295 294 295 297 297 297 296 296 296 297 297 298 299 300 300 299 300 301 302 301 302 303 303 304 304 303 304 305 306 306 306 307
304 302 302 301 297 297 299 298 298 297 298 299 294 293 294 297 297 297 297 296 296 296 297 298 298 299 299 298 299 301 301 301 302 302 301 301 302 303 304 304 305 304 304 304
302 303 302 299 297 297 298 298 297 297 298 298 296 291 293 297 298 298 297 297 298 297 298 299 299 299 300 298 300 301 300 299 299 299 300 301 302 303 303 303 303 303 303 303
303 300 298 298 297 297 297 296 296 296 296 298 298 298 294 298 298 298 299 298 300 300 300 300 301 299 300 301 301 300 298 298 297 297 297 298 298 300 301 302 302 302 301 301
298 298 297 296 296 299 297 295 296 295 296 296 298 298 296 298 299 299 299 299 300 300 301 300 302 301 299 300 300 299 297 297 296 296 295 296 297 298 299 300 300 300 300 300
300 298 296 297 299 299 297 293 295 295 298 296 296 298 297 297 298 298 298 299 297 296 301 301 298 298 301 300 299 298 296 296 295 295 295 295 296 297 297 299 299 298 298 297
299 301 299 299 296 295 294 295 296 296 296 297 297 294 296 297 297 298 298 298 293 300 300 298 295 300 300 299 298 297 296 295 296 295 294 295 294 296 295 296 296 296 295 294
300 299 297 298 297 296 296 298 297 297 297 297 297 297 297 297 297 297 292 298 300 300 295 294 292 301 300 299 298 296 296 296 295 294 294 294 294 294 294 294 294 293 289 291
300 298 300 295 295 295 296 298 297 297 297 298 297 296 297 297 297 296 295 300 299 296 294 292 302 301 300 299 298 296 296 296 295 295 294 294 294 294 293 293 293 294 294 293
297 296 293 293 293 293 295 297 297 297 298 297 297 292 291 294 295 298 293 292 291 292 290 303 302 300 300 298 297 296 295 295 295 295 295 294 295 294 293 293 294 294 294 292
296 293 295 295 294 293 295 297 297 298 297 294 292 291 293 291 291 292 294 293 291 297 302 302 300 299 298 297 296 295 295 294 294 293 293 294 294 294 294 295 294 295 294 294

GFSNW_850_thetae_102.txt.gz
Theta_e
320 319 306 303 299 298 304 308 305 302 305 301 298 295 301 302 301 302 305 304 305 303 306 309 306 306 307 308 306 308 308 307 306 306 310 308 307 309 312 305 312 304 301 309
317 318 304 301 298 297 304 308 301 304 305 297 294 300 302 301 302 301 302 303 303 304 307 309 306 305 306 309 308 309 308 309 308 306 311 309 310 311 312 309 305 309 304 308
315 313 303 301 298 298 305 305 299 302 302 300 298 301 301 300 300 301 301 303 303 304 307 306 307 301 307 309 311 309 310 311 306 303 307 308 308 311 312 306 304 311 307 312
317 307 303 300 297 299 306 305 300 302 299 299 299 300 301 301 300 300 301 303 304 303 306 307 307 304 305 307 308 307 310 311 311 311 310 310 309 310 311 306 312 315 314 313
316 308 302 299 297 299 303 305 300 301 299 299 298 300 299 300 300 300 301 302 302 303 304 302 307 305 306 306 306 306 306 309 308 307 310 311 312 311 312 313 312 313 313 312
315 304 301 297 297 299 300 303 301 301 299 297 297 297 298 299 299 300 300 301 300 303 302 301 301 301 303 304 306 309 310 308 308 308 308 310 309 312 311 312 312 311 312 310
312 304 301 297 299 302 300 303 301 300 298 297 298 298 299 299 299 299 300 300 300 301 300 303 304 303 303 304 305 304 307 306 306 305 305 309 308 306 310 311 310 309 309 309
310 304 300 297 298 302 299 301 302 302 297 297 298 298 298 298 299 298 300 300 300 301 305 305 308 307 307 307 305 305 304 306 307 307 306 306 309 309 309 310 311 309 310 309
308 303 298 298 298 300 299 300 303 302 298 297 299 298 298 296 296 298 300 300 302 303 306 306 308 307 308 309 309 304 304 304 306 305 307 310 309 307 308 308 312 311 310 308
306 302 299 297 298 299 298 300 303 302 299 299 299 297 298 299 297 296 299 300 302 302 304 306 302 308 306 308 309 308 305 305 306 307 308 306 307 307 308 308 309 312 309 308
306 301 298 297 300 300 298 300 303 302 299 299 300 299 299 299 299 297 298 300 300 298 304 306 306 305 305 306 306 307 305 304 305 304 307 307 308 308 311 308 310 312 310 308
305 303 298 298 301 299 299 300 302 301 300 298 299 298 298 299 300 299 299 299 300 300 299 300 302 305 303 304 308 305 306 304 306 305 305 304 306 306 307 307 307 311 311 309
307 302 299 300 302 299 299 300 301 300 297 296 297 296 297 297 298 299 299 299 300 300 300 301 302 304 303 304 307 305 306 304 303 305 305 305 306 306 307 309 310 310 310 310
307 299 300 301 301 299 299 300 300 300 299 297 296 296 297 297 296 297 299 299 299 299 300 300 302 303 302 303 302 302 303 303 304 305 305 304 305 304 306 308 309 309 310 310
302 300 300 301 299 298 299 300 299 300 301 295 296 296 296 296 297 296 296 298 298 298 297 297 298 301 300 302 304 300 302 302 304 305 304 305 306 306 306 307 308 308 308 309
299 300 302 302 298 298 299 299 300 301 300 299 295 295 294 296 296 296 296 297 297 297 298 297 299 299 299 297 301 301 302 302 303 303 303 304 305 304 305 304 306 307 307 307
300 301 304 302 298 298 299 299 299 299 299 298 294 293 295 296 296 296 296 296 296 297 297 297 298 299 299 297 299 300 301 301 301 302 302 303 303 303 303 304 304 305 305 306
301 302 301 297 298 298 299 298 299 299 299 298 292 292 295 297 297 297 296 296 296 296 297 297 297 298 298 298 298 300 301 301 301 301 301 300 301 302 303 304 304 304 304 304
302 300 300 298 297 298 298 298 297 298 298 298 292 290 291 296 298 297 297 297 294 297 295 297 298 297 298 298 298 301 301 300 300 299 298 299 300 300 301 302 303 303 303 303
301 300 297 297 297 297 297 297 297 297 297 299 296 296 293 297 298 298 298 298 299 296 297 299 298 297 299 300 301 301 300 299 297 297 297 297 296 297 299 300 301 301 302 301
300 299 297 296 297 299 298 296 295 295 294 297 297 296 297 297 297 299 299 296 299 295 296 298 295 297 298 300 300 300 299 298 297 297 297 296 296 296 297 298 299 300 300 300
300 300 297 299 301 302 301 291 294 294 296 296 296 297 298 297 298 298 298 296 298 295 299 300 297 296 301 301 300 299 298 297 296 296 295 296 296 295 296 297 298 298 298 298
299 300 301 299 298 300 299 295 293 294 296 296 296 294 296 296 297 297 298 298 293 299 299 297 294 297 300 301 300 298 297 295 295 295 294 294 294 294 294 295 296 296 295 295
302 299 298 299 297 297 295 297 297 296 297 297 297 296 296 296 294 297 294 295 300 300 296 294 291 300 301 300 299 298 296 295 295 294 294 294 294 294 294 294 293 293 292 289
300 300 301 296 295 295 297 297 297 297 297 297 296 296 297 294 294 295 294 298 299 295 293 291 300 301 301 300 299 298 295 295 295 295 294 294 293 293 294 294 293 292 292 292
298 296 292 293 294 294 297 297 297 297 298 298 297 292 291 294 293 293 295 294 291 292 289 301 302 301 300 300 299 297 296 295 295 294 294 294 294 295 294 294 294 294 294 293
296 292 294 294 295 295 297 297 297 297 297 292 291 292 293 291 289 291 291 292 290 296 300 302 302 301 300 298 297 296 295 294 294 293 292 293 293 293 293 294 294 294 294 294

GFSNW_850_thetae_105.txt.gz
Theta_e
303 305 310 311 308 301 303 307 305 303 304 300 295 295 300 302 301 303 304 303 304 304 306 308 305 303 305 306 307 308 307 303 301 305 307 308 307 308 310 308 311 305 301 310
305 304 309 313 304 299 304 305 303 303 304 296 293 299 301 300 301 301 302 302 303 304 307 306 305 303 305 308 308 308 308 307 301 303 308 308 309 310 311 307 303 311 302 309
303 308 310 311 303 299 305 302 300 303 304 298 297 300 300 300 300 300 301 302 302 304 306 305 305 301 307 309 309 310 310 311 304 302 306 307 308 310 311 301 302 311 305 310
302 309 310 304 300 301 306 304 300 301 298 298 298 299 299 300 300 300 301 303 303 300 304 306 305 302 306 307 307 307 310 311 312 311 310 309 309 310 311 303 309 305 312 312
304 308 309 301 299 304 305 304 301 299 297 298 298 300 299 300 299 300 300 302 304 303 304 301 306 304 305 302 306 307 307 309 307 306 309 310 311 310 310 312 311 312 311 312
309 309 307 302 297 304 303 303 301 301 298 296 297 297 297 299 298 299 300 300 301 302 302 301 301 301 302 303 305 308 308 306 304 306 305 310 308 308 310 311 311 311 313 311
309 310 304 301 297 303 301 302 301 300 298 297 298 297 298 298 299 299 300 300 300 301 301 303 303 303 303 304 305 304 305 305 305 305 304 308 306 306 309 310 309 309 309 309
305 308 302 299 297 301 301 302 303 301 296 297 297 298 297 298 299 298 299 300 300 301 305 305 307 306 306 307 304 303 302 304 307 306 305 306 309 308 309 310 311 309 310 309
307 306 302 299 297 301 301 301 302 302 298 297 299 296 297 295 295 297 299 300 302 304 306 306 307 306 307 308 308 303 303 303 304 305 306 310 308 306 306 307 312 310 309 307
308 305 302 298 297 302 301 300 303 301 298 298 299 297 296 298 296 296 299 300 302 303 302 303 301 306 305 307 308 307 304 304 305 306 305 305 304 306 307 308 306 311 309 308
309 306 302 298 299 299 300 299 303 302 298 298 299 299 298 298 299 297 298 300 300 298 303 303 303 304 303 304 305 305 305 303 305 303 307 306 304 307 310 306 309 311 310 308
308 303 300 297 298 300 300 300 302 301 300 297 298 298 298 299 300 299 298 299 299 300 299 299 300 303 296 302 305 304 305 303 305 303 304 303 306 306 307 308 307 310 310 309
305 301 298 298 299 300 298 300 301 300 297 296 297 296 297 298 299 300 300 299 300 300 301 299 299 302 300 301 303 304 304 303 302 304 304 303 304 305 306 309 309 310 310 310
303 301 298 298 299 298 299 300 300 299 298 296 296 296 297 296 297 298 299 300 300 300 300 300 299 300 301 300 301 300 301 302 303 303 303 303 304 305 306 308 308 309 309 310
304 299 299 301 301 299 299 300 299 300 300 295 296 296 296 297 296 297 298 299 299 299 298 297 298 299 299 300 300 299 301 301 303 307 303 304 305 305 306 305 306 307 308 308
304 300 300 303 302 298 300 299 300 300 301 299 295 294 295 296 296 296 297 298 298 297 297 297 298 298 298 297 299 300 302 302 303 303 303 304 304 304 304 305 304 305 306 307
301 300 301 304 299 299 299 299 299 300 300 298 293 293 296 296 296 296 296 296 296 297 297 296 297 298 298 296 298 299 302 301 302 302 302 302 302 303 303 302 303 304 304 306
300 300 300 298 299 299 299 299 299 299 299 298 291 293 296 296 297 296 296 296 296 296 296 297 296 297 297 297 297 300 301 301 300 301 301 301 301 301 302 302 303 303 303 303
300 301 302 298 298 298 298 299 298 298 298 295 291 291 291 296 297 297 297 297 292 297 294 295 296 296 297 297 298 299 301 301 300 300 299 298 299 299 299 300 301 301 301 302
303 303 297 298 297 298 298 298 298 298 298 299 292 295 295 297 297 297 296 297 295 289 296 298 296 296 299 299 299 299 301 300 300 299 298 297 297 297 297 298 300 300 301 301
301 298 297 296 297 298 297 296 295 295 293 298 296 296 295 296 294 296 297 290 292 290 295 296 294 296 296 300 300 300 300 300 299 298 297 296 296 296 296 298 298 299 299 299
300 300 297 299 302 302 298 290 292 293 295 295 295 296 297 297 298 297 297 292 296 292 298 299 297 295 298 299 299 300 300 299 298 297 295 295 295 295 294 295 296 297 298 297
300 302 302 302 299 299 301 300 292 291 294 295 296 294 297 297 297 297 295 294 292 297 299 297 293 296 299 300 300 300 299 298 297 295 295 294 294 294 294 293 294 295 296 295
304 300 299 300 298 298 297 296 292 295 296 296 297 294 296 296 293 296 289 294 298 299 296 294 289 298 300 300 300 300 299 297 296 295 295 294 294 293 293 294 294 294 294 293
301 301 303 298 295 295 296 296 296 296 296 297 296 295 296 292 293 294 293 298 299 295 293 290 298 300 300 301 300 299 299 298 296 294 294 294 294 293 293 293 294 293 292 293
299 297 294 293 295 295 297 297 296 296 297 298 297 292 290 293 292 291 291 292 293 291 288 298 301 301 301 301 300 300 298 296 295 293 293 293 293 293 293 293 292 292 293 294
296 293 294 295 296 296 297 297 297 297 297 296 292 290 292 290 288 290 291 292 291 295 297 301 301 302 301 300 299 297 296 296 295 293 293 292 292 292 292 292 294 293 294 294

GFSNW_850_thetae_108.txt.gz
Theta_e
301 300 302 306 307 308 302 304 303 303 303 300 294 294 299 301 301 304 303 303 303 305 306 306 297 302 304 305 306 308 306 302 304 308 307 308 307 308 310 306 311 304 304 311
301 302 303 305 308 307 304 305 302 303 303 298 294 298 300 300 301 301 302 302 302 303 306 304 304 299 304 308 307 309 308 304 296 301 304 307 308 309 310 305 304 311 308 311
300 301 302 303 309 308 303 302 303 302 303 301 297 299 299 300 300 300 302 302 302 304 306 304 305 300 306 308 308 310 309 310 303 304 308 306 306 309 308 300 304 309 306 310
299 302 304 306 305 305 304 301 301 303 303 297 297 298 298 299 300 299 301 302 302 300 303 305 305 302 305 306 305 307 308 308 310 311 310 309 309 309 310 302 307 304 310 310
300 302 309 308 307 303 305 302 301 299 296 297 297 300 298 299 299 299 300 302 303 301 302 300 303 303 305 301 306 307 307 307 306 306 306 310 309 308 310 310 311 311 310 311
303 304 304 308 307 306 303 302 301 301 297 296 297 296 297 299 298 299 300 301 301 302 302 301 301 301 302 302 305 307 308 304 303 305 304 309 306 306 310 311 310 310 312 310
303 310 305 308 303 306 303 302 301 300 298 297 298 297 298 298 298 299 299 301 301 301 301 302 303 303 303 303 304 303 305 304 304 305 304 308 305 306 307 309 308 307 308 308
305 307 307 305 302 304 303 302 302 300 296 296 297 297 296 298 298 298 299 299 300 301 305 304 307 305 306 306 304 303 302 303 306 306 304 305 309 307 311 310 310 309 309 308
303 307 306 300 300 304 301 301 302 301 297 297 298 296 297 295 295 297 299 300 301 304 305 306 306 305 307 307 306 302 302 301 303 304 305 309 307 305 305 307 311 310 308 307
304 305 305 303 298 302 301 302 302 301 298 297 298 296 297 297 296 295 298 300 302 303 302 303 300 305 304 307 307 306 303 303 304 305 304 305 303 305 306 307 304 310 308 307
306 306 305 302 298 302 301 301 301 301 297 297 298 298 297 297 298 297 298 300 299 297 302 302 301 303 302 303 303 304 304 302 304 303 306 305 303 305 308 304 307 310 309 308
308 307 305 300 297 301 300 301 301 301 300 297 297 298 298 299 299 299 299 298 299 301 299 298 299 302 294 300 304 302 304 301 303 303 303 302 305 305 307 308 307 309 309 309
308 306 302 297 298 300 299 300 301 301 297 296 297 297 298 298 299 300 301 300 301 301 301 298 298 302 298 300 300 304 303 301 301 303 303 302 304 305 307 308 308 308 309 309
308 303 301 298 299 299 299 300 300 300 298 296 295 296 296 296 298 299 299 301 301 301 301 299 298 299 299 299 299 299 301 302 301 301 302 302 304 305 305 307 308 308 308 309
306 303 300 301 300 299 299 300 299 299 300 295 295 296 296 295 297 298 298 299 300 300 298 297 298 298 298 297 298 297 299 300 302 303 303 303 304 304 305 305 304 306 307 308
304 299 298 302 299 298 300 299 299 300 300 299 295 294 296 295 296 297 298 299 299 298 298 296 297 298 298 297 298 298 301 303 303 303 304 305 303 303 303 304 304 303 305 306
300 300 302 299 299 300 300 299 299 300 300 298 293 293 296 296 296 296 297 297 297 297 296 296 296 298 297 295 296 298 302 302 303 303 303 302 301 303 303 303 303 303 303 304
302 302 299 299 299 299 299 298 299 299 299 298 291 293 296 296 296 296 296 296 296 296 296 296 296 297 296 297 296 298 301 301 301 301 301 301 301 301 301 301 302 302 302 303
300 299 301 299 299 299 299 299 298 298 298 294 291 294 294 296 297 296 296 296 292 296 294 295 296 295 297 297 298 298 301 301 302 301 300 299 299 299 299 299 300 300 300 301
300 300 298 298 298 298 299 298 298 298 298 297 292 295 296 296 296 295 295 296 294 289 295 296 296 296 298 299 299 299 301 301 300 299 298 298 298 297 296 296 297 298 300 300
300 300 297 297 298 298 297 296 296 295 294 297 294 295 294 296 293 293 296 289 290 289 294 295 293 296 295 299 299 299 300 301 300 300 299 297 296 296 296 296 296 297 298 299
302 300 297 297 300 302 295 290 292 293 295 294 294 295 297 297 298 295 296 291 288 292 295 294 294 294 298 298 299 299 300 300 300 299 297 296 295 295 295 294 295 296 295 297
298 299 301 301 299 297 297 299 293 292 293 294 295 294 297 296 297 296 291 288 293 296 298 296 293 295 297 298 299 300 300 299 299 298 296 295 294 294 294 294 294 295 295 295
303 301 301 300 299 297 297 297 295 294 296 296 296 293 295 296 293 292 289 293 296 299 292 293 288 297 299 299 299 299 300 299 298 297 296 294 293 293 293 293 293 294 294 294
301 301 303 299 296 295 295 295 295 295 296 297 295 294 296 291 293 293 294 297 297 295 293 290 297 298 299 300 299 300 300 299 298 297 295 293 293 292 293 293 293 294 293 292
299 297 295 294 296 296 296 296 295 296 297 297 297 291 290 292 292 291 291 292 291 292 289 297 299 299 300 301 301 300 299 299 297 295 294 293 292 292 292 292 292 292 292 293
296 294 294 295 296 296 296 296 296 297 297 292 291 291 292 290 288 290 290 290 291 295 296 299 300 300 301 301 300 300 299 297 296 295 293 293 292 291 291 292 293 293 293 294

GFSNW_850_thetae_111.txt.gz
Theta_e
301 302 302 299 302 306 309 304 303 304 303 302 296 294 298 300 300 304 302 302 302 303 305 304 295 302 304 305 306 308 306 302 305 308 306 308 307 308 309 309 312 304 310 313
301 302 302 300 302 304 304 303 302 303 303 300 294 297 299 299 300 301 302 302 302 303 304 302 303 298 303 306 308 309 309 305 301 304 306 306 307 308 309 304 306 309 310 312
301 302 302 300 302 305 304 303 303 302 303 301 297 298 299 299 300 299 301 301 302 304 305 302 304 298 305 307 306 309 309 310 304 311 310 307 308 309 307 301 310 310 308 309
301 302 302 301 304 305 304 302 303 303 302 301 296 298 298 299 300 299 302 302 302 300 303 304 304 301 303 305 306 307 307 308 310 309 310 309 308 309 309 307 307 308 310 309
301 302 301 301 302 304 304 301 299 301 296 299 296 298 297 299 298 299 301 302 301 301 301 299 302 303 301 300 304 307 305 305 305 305 308 307 308 308 309 310 310 309 309 310
301 302 302 304 305 304 303 303 301 300 297 295 296 296 296 298 298 299 299 300 300 302 301 301 301 302 302 302 304 305 305 304 303 305 304 308 306 306 309 310 308 309 311 309
301 301 302 304 305 304 303 302 300 299 297 297 297 296 298 297 298 299 299 301 301 301 301 303 303 303 303 304 304 302 304 303 304 304 303 307 304 305 306 309 308 306 307 307
301 306 306 307 305 304 303 301 300 300 296 296 296 296 296 297 298 298 298 299 300 301 304 303 305 303 305 305 301 302 301 302 305 305 304 305 308 306 310 311 311 308 308 305
303 308 306 307 304 304 302 301 301 300 297 296 297 295 297 295 295 296 298 299 300 304 304 305 305 305 306 306 305 301 302 299 303 304 305 309 307 304 305 307 311 308 307 306
303 306 306 306 304 302 301 301 301 300 297 296 297 296 296 297 295 294 298 301 302 303 301 303 300 304 304 306 306 306 302 302 303 306 304 304 303 303 305 306 306 309 307 307
304 304 306 305 304 301 301 301 301 300 297 297 297 297 297 297 298 296 298 300 299 297 302 301 301 302 301 303 303 304 303 302 304 302 305 306 303 304 307 303 306 309 308 307
305 306 304 303 303 303 300 301 301 300 299 296 297 297 298 298 299 299 299 298 299 301 298 297 299 302 293 299 304 300 304 301 303 302 303 301 305 305 306 307 307 308 309 308
305 307 303 301 300 302 301 300 300 300 297 296 297 297 298 298 299 301 301 300 301 301 300 298 297 302 298 299 300 303 302 300 301 303 303 303 304 305 307 307 308 308 309 309
307 307 304 301 299 301 299 300 300 300 298 295 295 296 297 298 299 300 300 301 302 301 301 299 298 299 298 298 299 299 300 300 299 300 301 303 304 304 306 306 307 307 308 308
307 307 304 301 298 300 299 300 299 299 299 295 295 296 295 296 297 298 299 301 301 300 298 297 298 298 297 295 296 296 299 299 301 302 302 302 303 305 305 305 304 304 306 307
308 306 303 298 299 300 300 299 299 299 299 298 294 295 295 296 297 298 298 299 300 298 298 296 297 297 297 297 298 298 301 302 304 304 303 305 305 304 303 304 304 303 303 305
301 298 298 301 299 299 299 299 299 299 300 298 293 294 295 296 296 297 297 298 297 297 296 296 296 297 297 295 296 298 300 302 303 304 304 302 302 303 302 303 303 302 303 303
300 300 300 299 299 299 299 298 299 299 299 298 290 294 295 296 296 296 296 296 296 296 296 296 295 296 295 296 296 298 301 302 302 303 302 302 301 301 301 301 301 301 301 301
300 301 302 299 299 299 299 299 298 298 298 295 291 294 295 296 296 296 296 296 292 295 294 294 295 295 297 297 297 298 301 302 302 301 301 300 300 300 300 300 300 300 300 300
301 300 300 299 299 298 298 298 298 298 298 296 292 295 295 296 295 294 295 295 293 288 295 295 295 296 298 298 299 300 301 302 302 301 299 299 299 299 298 297 297 297 298 299
300 301 300 298 298 298 298 297 297 295 295 296 294 295 294 295 292 292 295 291 289 289 294 294 293 295 295 299 299 299 300 302 301 301 300 300 299 298 296 296 296 296 296 296
301 301 297 298 298 300 294 292 292 293 295 293 294 295 296 296 297 295 294 290 286 292 294 292 294 294 297 298 299 299 300 301 300 300 300 299 297 296 295 295 295 295 295 296
298 300 300 299 299 296 294 295 294 292 294 294 294 294 297 296 297 294 290 288 290 295 297 294 293 295 296 298 298 298 299 300 300 300 298 297 296 294 293 294 294 295 294 295
300 301 296 296 296 296 296 296 298 294 295 294 296 293 295 295 293 291 289 293 294 297 292 293 288 296 298 298 298 298 299 299 300 299 297 296 295 294 292 292 293 293 293 294
302 302 303 298 297 295 295 295 295 295 296 297 295 294 295 291 293 293 293 296 297 294 293 291 296 297 298 298 299 299 299 299 299 298 297 296 294 293 292 292 292 293 293 293
300 298 296 295 296 295 293 295 295 296 297 297 296 291 291 292 293 292 292 292 292 292 289 297 298 298 299 299 299 299 300 300 298 297 296 294 293 293 292 292 292 292 292 292
296 294 295 296 296 297 295 296 296 296 296 292 291 292 293 290 288 291 291 291 291 294 296 297 299 299 300 300 300 300 300 299 297 296 295 293 293 292 292 291 291 292 292 292

GFSNW_850_thetae_114.txt.gz
Theta_e
301 301 302 302 301 304 304 303 305 303 302 303 301 305 300 301 302 304 305 305 305 306 306 305 305 306 306 306 307 309 308 308 312 311 308 309 310 312 312 317 315 312 316 315
301 300 301 302 301 301 303 301 301 302 302 304 303 300 301 301 302 304 304 305 305 305 306 306 306 304 306 306 309 310 310 311 312 311 309 310 311 312 311 309 313 313 317 315
301 301 301 302 300 301 302 302 303 301 302 300 301 302 302 302 300 302 302 304 304 306 306 306 306 307 306 307 306 309 310 310 311 313 312 311 313 313 311 310 317 314 314 313
300 301 301 302 301 301 302 302 304 303 303 302 301 300 301 302 302 301 303 304 305 306 306 306 306 305 306 306 307 309 310 312 311 311 311 311 312 313 312 312 311 316 313 313
301 301 302 302 302 302 303 301 302 302 300 303 303 300 301 302 300 302 303 305 305 304 306 305 306 305 306 307 308 309 308 312 310 311 309 311 312 311 313 313 312 313 313 312
301 301 302 303 302 305 304 302 301 301 300 302 303 301 301 301 301 300 301 304 305 305 304 303 303 303 303 305 307 309 309 310 310 312 308 310 313 311 312 312 311 313 315 311
301 301 302 303 303 304 304 303 301 300 300 302 303 300 300 301 301 302 301 303 305 302 302 303 304 305 305 306 306 305 309 309 309 310 308 312 309 309 309 312 311 311 311 310
301 301 302 303 303 304 304 304 300 300 300 300 299 299 300 300 300 301 301 300 301 301 304 307 308 308 308 308 306 306 306 308 309 311 310 309 309 309 311 312 313 310 309 309
301 302 304 304 305 304 304 302 300 299 300 300 298 299 300 301 301 301 300 299 301 304 307 308 309 310 309 309 308 305 305 305 309 310 310 311 309 307 307 309 314 310 309 309
306 306 306 305 304 305 303 300 300 300 298 296 297 300 300 298 299 302 300 301 303 303 307 309 309 309 306 309 309 309 308 308 310 310 310 309 306 306 306 310 313 310 308 308
307 306 306 304 304 303 301 301 300 300 297 296 297 297 297 297 299 303 300 303 302 304 308 308 308 308 307 308 306 307 308 308 309 309 310 310 305 306 309 309 308 309 308 307
305 305 305 303 302 301 301 301 300 299 299 296 296 297 297 298 299 299 299 301 302 305 306 304 305 307 305 306 309 304 308 306 308 307 308 305 305 307 306 306 309 309 309 308
305 307 306 303 301 300 300 300 299 299 297 297 297 297 298 298 299 301 303 301 302 301 301 303 304 306 304 308 307 307 305 302 306 307 305 306 305 305 306 307 307 308 309 308
305 306 306 304 300 300 300 300 299 299 298 299 296 297 297 298 299 301 301 301 302 301 301 303 304 306 301 305 304 306 305 304 305 305 304 304 304 304 306 307 307 307 307 308
306 305 305 304 302 302 300 299 299 299 299 298 296 296 296 297 298 299 300 301 301 300 301 302 304 301 302 301 302 304 303 306 307 308 306 306 306 304 305 304 304 305 306 307
306 303 303 302 301 300 300 299 299 299 299 299 299 295 295 297 297 298 299 300 300 299 299 299 298 298 300 303 304 302 301 303 304 306 304 305 304 305 305 305 305 304 304 304
307 304 302 299 300 299 299 299 299 299 299 298 296 296 295 296 297 297 298 298 298 298 297 298 299 298 299 301 303 300 300 302 304 305 304 303 304 304 304 304 304 303 303 303
307 304 301 299 300 299 299 298 299 299 299 298 297 295 296 296 296 297 296 296 296 296 297 296 298 297 298 301 301 298 300 302 303 303 304 305 305 304 303 302 302 302 302 302
302 298 298 299 299 299 299 299 299 298 298 297 296 298 299 296 296 296 296 296 299 295 298 298 297 300 301 302 300 298 300 302 303 303 303 302 302 301 301 300 300 300 300 300
300 299 300 299 299 299 298 299 298 298 298 296 296 295 298 296 296 296 297 296 298 300 298 296 299 301 299 299 299 300 301 302 303 301 299 300 300 300 299 299 299 298 298 298
300 301 302 298 298 298 298 297 299 296 298 295 295 295 296 295 298 299 296 296 296 301 299 300 301 301 299 298 299 299 300 303 302 303 303 302 300 300 300 298 297 296 297 297
301 302 298 298 298 298 298 297 295 296 299 294 295 295 296 296 296 297 295 297 294 301 296 298 301 301 297 298 298 299 299 302 302 301 300 300 300 299 298 297 296 296 296 295
299 300 301 299 299 301 300 298 298 297 295 294 295 297 296 296 296 296 296 297 298 296 298 300 301 297 297 298 298 298 299 301 301 300 300 300 298 297 296 296 295 295 295 295
302 300 301 300 300 300 301 301 301 296 296 295 297 295 297 296 297 295 297 296 297 299 298 300 300 297 297 298 298 298 299 300 300 300 300 299 297 296 295 294 293 293 293 293
301 300 301 297 298 296 296 295 296 295 296 297 296 295 296 296 296 296 295 296 298 298 301 300 297 297 297 297 298 298 300 300 300 300 299 298 297 295 294 293 292 291 292 293
300 300 298 296 297 296 294 294 295 295 296 297 297 295 296 297 297 296 297 298 300 302 298 297 297 297 298 298 298 298 299 300 300 299 298 297 295 294 293 293 292 291 291 292
297 296 296 297 297 298 296 296 296 296 296 299 295 296 298 294 295 297 296 298 301 295 296 297 298 298 299 298 299 299 299 299 299 298 297 295 293 293 293 293 292 291 291 292

GFSNW_850_thetae_117.txt.gz
Theta_e
301 302 301 301 303 302 302 303 304 304 302 304 304 308 303 303 304 306 306 307 307 308 307 307 308 308 308 308 308 309 309 310 314 312 310 310 311 314 313 320 317 317 315 315
301 302 301 302 303 303 303 301 301 302 303 306 307 303 303 303 304 306 306 307 307 306 307 308 308 308 307 308 309 311 311 312 316 316 312 312 313 313 312 312 317 317 316 317
301 301 301 302 303 302 303 302 304 301 302 303 305 304 304 303 302 305 304 306 306 307 307 307 308 308 307 307 308 309 310 310 313 315 313 312 315 313 313 315 318 316 316 314
301 301 301 302 302 302 303 304 306 304 305 304 303 304 304 304 304 304 304 306 307 308 308 307 308 307 308 308 308 310 311 311 311 312 312 313 313 314 314 315 315 316 314 314
301 301 301 302 302 301 303 304 305 304 303 303 304 302 303 303 303 304 305 306 307 307 308 307 308 307 308 309 309 310 311 313 311 311 312 313 313 313 313 314 314 314 314 314
301 302 301 302 301 301 303 302 303 304 303 305 305 305 303 303 303 303 303 305 307 307 306 305 306 306 307 307 309 310 311 312 313 313 311 311 313 312 313 313 313 314 315 313
301 302 302 302 302 302 304 303 302 303 304 305 305 303 302 303 304 304 304 306 307 304 303 305 306 307 307 308 309 308 311 311 311 312 311 313 311 311 312 313 313 312 311 311
301 302 302 303 302 304 304 304 301 303 303 304 303 302 302 302 303 304 304 302 302 303 306 309 310 310 310 309 308 309 309 310 311 313 312 311 311 311 313 314 313 310 311 310
302 302 302 303 303 304 305 304 304 301 303 302 301 302 302 303 305 304 302 301 302 305 309 309 310 311 309 310 310 308 308 308 312 311 312 313 311 309 309 310 314 311 310 310
302 302 302 302 304 304 303 303 303 301 301 298 300 302 302 303 305 306 304 303 305 305 310 310 311 310 309 310 309 309 309 309 312 311 312 310 308 308 308 312 314 311 310 310
307 306 302 303 304 304 303 301 300 301 300 297 297 298 300 300 303 306 304 305 305 307 310 309 310 310 309 309 309 309 309 309 309 310 311 312 308 309 311 312 312 311 310 310
306 305 304 304 304 305 303 300 300 299 300 297 297 297 298 299 299 302 303 304 306 308 310 308 308 309 309 309 309 307 309 308 310 309 310 307 307 309 308 309 310 310 310 309
305 305 304 303 304 304 301 300 299 299 298 298 299 297 298 299 300 301 304 303 303 304 303 307 308 308 307 308 308 308 307 305 308 308 307 308 308 308 308 309 309 309 309 309
304 303 302 301 301 300 300 300 299 299 300 301 298 297 298 299 300 301 301 302 303 302 303 306 307 308 304 307 306 308 307 306 308 308 307 307 307 308 308 307 307 307 308 309
303 302 301 300 300 300 300 299 299 299 301 301 298 297 297 298 299 299 300 301 302 303 304 305 306 304 304 304 304 306 306 308 308 308 308 308 308 307 307 307 306 306 307 307
306 304 301 300 299 300 300 299 299 299 299 300 301 296 296 297 298 299 300 300 301 301 303 303 301 300 302 305 305 305 305 307 307 308 307 307 307 306 305 305 305 305 305 304
307 307 307 302 299 299 299 300 299 299 299 300 299 299 296 297 297 298 299 299 299 300 301 301 302 301 301 304 305 304 303 305 305 305 305 305 305 305 305 305 305 305 304 304
306 306 306 304 300 299 299 299 299 299 299 299 301 299 298 296 298 300 297 299 299 299 300 299 301 300 301 303 303 301 302 304 304 305 305 306 305 304 305 305 304 303 302 302
304 303 301 301 300 299 299 299 299 299 298 301 301 303 304 296 298 298 298 298 302 298 301 300 300 302 303 304 303 301 302 303 304 304 304 304 305 305 305 303 302 301 301 300
304 301 299 299 300 300 298 299 298 298 298 297 300 298 301 299 299 300 300 299 302 304 302 298 300 302 302 302 301 301 301 303 303 302 302 302 303 304 302 302 300 300 300 299
298 299 300 299 299 298 298 299 302 299 301 298 297 299 298 297 302 302 299 301 301 304 303 301 305 304 303 300 300 300 300 302 303 304 304 303 303 303 301 300 300 299 298 297
301 302 299 298 298 298 300 303 298 299 303 296 298 297 299 297 297 300 298 301 298 304 299 301 303 304 299 298 299 299 300 301 302 303 303 302 302 301 300 300 298 297 297 296
301 299 299 300 300 303 302 302 301 301 297 296 296 299 298 296 298 299 299 300 302 298 301 304 306 301 297 298 298 298 300 301 301 302 302 301 300 300 299 297 296 296 296 295
302 302 303 302 304 303 305 305 306 299 298 297 299 298 300 298 299 299 301 300 299 302 302 304 306 301 298 298 297 298 299 301 301 301 301 300 300 298 297 296 295 294 294 294
302 300 304 303 301 298 297 298 296 296 297 298 298 298 299 299 298 299 298 298 301 302 306 307 302 297 297 298 297 298 298 300 301 301 300 300 299 298 296 295 294 293 293 292
301 300 301 299 298 298 295 296 297 296 297 298 298 299 299 301 301 299 300 302 304 310 304 302 297 297 297 298 297 298 299 301 301 301 300 299 298 297 295 293 294 293 293 292
299 298 299 299 298 301 299 297 297 296 297 302 300 301 303 297 300 300 301 303 308 301 297 297 297 297 298 298 298 298 299 300 300 300 299 298 297 295 294 294 293 292 292 291